[[{"header":{"parameterUnit":"m.s-1","parameterCategory":1,"la1":31.0,"la2":29.5877,"lo1":-88.7671,"lo2":-86.6584,"dy":0.0162,"dx":0.0185,"nx":115,"ny":88,"refTime":"2024-04-23T12:00:00:Z","depth":0,"parameterNumber":2,"parameterNumberName":"U-component_of_WINDS"},"data":[0.0,0.0,0.0,0.0,0.0,0.0,0.0,0.0,0.0,0.0,0.0,0.0,0.0,0.0,0.0,0.0,0.0,0.0,0.0,0.0,0.0,0.0,0.0,0.0,0.0,0.0,0.0,0.0,0.0,0.0,0.0,0.0,0.0,0.0,0.0,0.0,0.0,0.0,0.0,0.0,0.0,0.0,0.0,0.0,0.0,0.0,0.0,0.0,0.0,0.0,0.0,0.0,0.0,0.0,0.0,0.0,0.0,0.0,0.0,0.0,0.0,0.0,0.0,0.0,0.0,0.0,0.0,0.0,0.0,0.0,0.0,0.0,0.0,0.0,0.0,0.0,0.0,0.0,0.0,0.0,0.0,0.0,0.0,0.0,0.0,0.0,0.0,0.0,0.0,0.0,0.0,0.0,0.0,0.0,0.0,0.0,0.0,0.0,0.0,0.0,0.0,0.0,0.0,0.0,0.0,0.0,0.0,0.0,0.0,0.0,0.0,0.0,0.0,0.0,0.0,0.0,0.0,0.0,0.0,0.0,0.0,0.0,0.0,0.0,0.0,0.0,0.0,0.0,0.0,0.0,0.0,0.0,0.0,0.0,0.0,0.0,0.0,0.0,0.0,0.0,0.0,0.0,0.0,0.0,0.0,0.0,0.0,0.0,0.0,0.0,0.0,0.0,0.0,0.0,0.0,0.0,0.0,0.0,0.0,0.0,0.0,0.0,0.0,0.0,0.0,0.0,0.0,0.0,0.0,0.0,0.0,0.0,0.0,0.0,0.0,0.0,0.0,0.0,0.0,0.0,0.0,0.0,0.0,0.0,0.0,0.0,0.0,0.0,0.0,0.0,0.0,0.0,0.0,0.0,0.0,0.0,0.0,0.0,0.0,0.0,0.0,0.0,0.0,0.0,0.0,0.0,0.0,0.0,0.0,0.0,0.0,0.0,0.0,0.0,0.0,0.0,0.0,0.0,0.0,0.0,0.0,0.0,0.0,0.0,0.0,0.0,0.0,0.0,0.0,0.0,0.0,0.0,0.0,0.0,0.0,0.0,0.0,0.0,0.0,0.0,0.0,0.0,0.0,0.0,0.0,0.0,0.0,0.0,0.0,0.0,0.0,0.0,0.0,0.0,0.0,0.0,0.0,0.0,0.0,0.0,0.0,0.0,0.0,0.0,0.0,0.0,0.0,0.0,0.0,0.0,0.0,0.0,0.0,0.0,0.0,0.0,0.0,0.0,0.0,0.0,0.0,0.0,0.0,0.0,0.0,0.0,0.0,0.0,0.0,0.0,0.0,0.0,0.0,0.0,0.0,0.0,0.0,0.0,0.0,0.0,0.0,0.0,0.0,0.0,0.0,0.0,0.0,0.0,0.0,0.0,0.0,0.0,0.0,0.0,0.0,0.0,0.0,0.0,0.0,0.0,0.0,0.0,0.0,0.0,0.0,0.0,0.0,0.0,0.0,0.0,0.0,0.0,0.0,0.0,0.0,0.0,0.0,0.0,0.0,0.0,0.0,0.0,0.0,0.0,0.0,0.0,0.0,0.0,0.0,0.0,0.0,0.0,0.0,0.0,0.0,0.0,0.0,0.0,0.0,0.0,0.0,0.0,0.0,0.0,0.0,0.0,0.0,0.0,0.0,0.0,0.0,0.0,0.0,0.0,0.0,0.0,0.0,0.0,0.0,0.0,0.0,0.0,0.0,0.0,0.0,0.0,0.0,0.0,0.0,0.0,0.0,0.0,0.0,0.0,0.0,0.0,0.0,0.0,0.0,0.0,0.0,0.0,0.0,0.0,0.0,0.0,0.0,0.0,0.0,0.0,0.0,0.0,0.0,0.0,0.0,0.0,0.0,0.0,0.0,0.0,0.0,0.0,0.0,0.0,0.0,0.0,0.0,0.0,0.0,0.0,0.0,0.0,0.0,0.0,0.0,0.0,0.0,0.0,0.0,0.0,0.0,0.0,0.0,0.0,0.0,0.0,0.0,0.0,0.0,0.0,0.0,0.0,0.0,0.0,0.0,0.0,0.0,0.0,0.0,0.0,0.0,0.0,0.0,0.0,0.0,0.0,0.0,0.0,0.0,0.0,0.0,0.0,0.0,0.0,0.0,0.0,0.0,0.0,0.0,0.0,0.0,0.0,0.0,0.0,0.0,0.0,0.0,0.0,0.0,0.0,0.0,0.0,0.0,0.0,0.0,0.0,0.0,0.0,0.0,0.0,0.0,0.0,0.0,0.0,0.0,0.0,0.0,0.0,0.0,0.0,0.0,0.0,0.0,0.0,0.0,0.0,0.0,0.0,0.0,0.0,0.0,0.0,0.0,0.0,0.0,0.0,0.0,0.0,0.0,0.0,0.0,0.0,0.0,0.0,0.0,0.0,0.0,0.0,0.0,0.0,0.0,0.0,0.0,0.0,0.0,0.0,0.0,0.0,0.0,0.0,0.0,0.0,0.0,0.0,0.0,0.0,0.0,0.0,0.0,0.0,0.0,0.0,0.0,0.0,0.0,0.0,0.0,0.0,0.0,0.0,0.0,0.0,0.0,0.0,0.0,0.0,0.0,0.0,0.0,0.0,0.0,0.0,0.0,0.0,0.0,0.0,0.0,0.0,0.0,0.0,0.0,0.0,0.0,0.0,0.0,0.0,0.0,0.0,0.0,0.0,0.0,0.0,0.0,0.0,0.0,0.0,0.0,0.0,0.0,0.0,0.0,0.0,0.0,0.0,0.0,0.0,0.0,0.0,0.0,0.0,0.0,0.0,0.0,0.0,0.0,0.0,0.0,0.0,0.0,0.0,0.0,0.0,0.0,0.0,0.0,0.0,0.0,0.0,0.0,0.0,0.0,0.0,0.0,0.0,0.0,0.0,0.0,0.0,0.0,0.0,0.0,0.0,0.0,0.0,0.0,0.0,0.0,0.0,0.0,0.0,0.0,0.0,0.0,0.0,0.0,0.0,0.0,0.0,0.0,0.0,0.0,0.0,0.0,0.0,0.0,0.0,0.0,0.0,0.0,0.0,0.0,0.0,0.0,0.0,0.0,0.0,0.0,0.0,0.0,0.0,0.0,0.0,0.0,0.0,0.0,0.0,0.0,0.0,0.0,0.0,0.0,0.0,0.0,0.0,0.0,0.0,0.0,0.0,0.0,0.0,0.0,0.0,0.0,0.0,0.0,0.0,0.0,0.0,0.0,0.0,0.0,0.0,0.0,0.0,0.0,0.0,0.0,0.0,0.0,0.0,0.0,0.0,0.0,0.0,0.0,0.0,0.0,0.0,0.0,0.0,0.0,0.0,0.0,0.0,0.0,0.0,0.0,0.0,0.0,0.0,0.0,0.0,0.0,0.0,0.0,0.0,0.0,0.0,0.0,0.0,0.0,0.0,0.0,0.0,0.0,0.0,0.0,0.0,0.0,0.0,0.0,0.0,0.0,0.0,0.0,0.0,0.0,0.0,0.0,0.0,0.0,0.0,0.0,0.0,0.0,0.0,0.0,0.0,0.0,0.0,0.0,0.0,0.0,0.0,0.0,0.0,0.0,0.0,0.0,0.0,0.0,0.0,0.0,0.0,0.0,0.0,0.0,0.0,0.0,0.0,0.0,0.0,0.0,0.0,0.0,0.0,0.0,0.0,0.0,0.0,0.0,0.0,0.0,0.0,0.0,0.0,0.0,0.0,0.0,0.0,0.0,0.0,0.0,0.0,0.0,0.0,0.0,0.0,0.0,0.0,0.0,0.0,0.0,0.0,0.0,0.0,0.0,0.0,0.0,0.0,0.0,0.0,0.0,0.0,0.0,0.0,0.0,0.0,0.0,0.0,0.0,0.0,0.0,0.0,0.0,0.0,0.0,0.0,0.0,0.0,0.0,0.0,0.0,0.0,0.0,0.0,0.0,0.0,0.0,0.0,0.0,0.0,0.0,0.0,0.0,0.0,0.0,0.0,0.0,0.0,0.0,0.0,0.0,0.0,0.0,0.0,0.0,0.0,0.0,0.0,0.0,0.0,0.0,0.0,0.0,0.0,0.0,0.0,0.0,0.0,0.0,0.0,0.0,0.0,0.0,0.0,0.0,0.0,0.0,0.0,0.0,0.0,0.0,0.0,0.0,0.0,0.0,0.0,0.0,0.0,0.0,0.0,0.0,0.0,0.0,0.0,0.0,0.0,0.0,0.0,0.0,0.0,0.0,0.0,0.0,0.0,0.0,0.0,0.0,0.0,0.0,0.0,0.0,0.0,0.0,0.0,0.0,0.0,0.0,0.0,0.0,0.0,0.0,0.0,0.0,0.0,-0.8309,0.0,0.0,0.0,0.0,0.0,0.0,0.0,0.0,0.0,0.0,0.0,0.0,0.0,0.0,0.0,0.0,0.0,0.0,0.0,0.0,0.0,0.0,0.0,0.0,0.0,0.0,0.0,0.0,0.0,0.0,0.0,0.0,0.0,0.0,0.0,0.0,0.0,0.0,0.0,0.0,0.0,0.0,0.0,0.0,0.0,0.0,0.0,0.0,0.0,0.0,0.0,0.0,0.0,0.0,0.0,0.0,0.0,0.0,0.0,0.0,0.0,0.0,0.0,0.0,0.0,0.0,0.0,0.0,0.0,0.0,0.0,0.0,0.0,0.0,0.0,0.0,0.0,0.0,0.0,0.0,0.0,0.0,0.0,0.0,0.0,0.0,0.0,0.0,0.0,0.0,0.0,0.0,0.0,0.0,0.0,0.0,0.0,0.0,0.0,0.0,0.0,0.0,0.0,0.0,0.0,0.0,0.0,0.0,0.0,0.0,-0.8309,-0.8309,-0.8309,-0.8309,-0.8309,0.0,0.0,0.0,0.0,0.0,0.0,0.0,0.0,0.0,0.0,0.0,0.0,0.0,0.0,0.0,0.0,0.0,0.0,0.0,0.0,0.0,0.0,0.0,0.0,0.0,0.0,0.0,0.0,0.0,0.0,0.0,0.0,0.0,0.0,0.0,0.0,0.0,0.0,0.0,0.0,0.0,0.0,0.0,0.0,0.0,0.0,0.0,0.0,0.0,0.0,0.0,0.0,0.0,0.0,0.0,0.0,0.0,0.0,0.0,0.0,0.0,0.0,0.0,0.0,0.0,0.0,0.0,0.0,0.0,0.0,0.0,0.0,0.0,0.0,0.0,0.0,0.0,0.0,0.0,0.0,0.0,0.0,0.0,0.0,0.0,0.0,0.0,0.0,0.0,0.0,0.0,0.0,0.0,0.0,0.0,0.0,0.0,0.0,0.0,0.0,0.0,0.0,0.0,0.0,0.0,0.0,0.0,0.0,0.0,0.0,0.0,0.0,-0.877,-0.877,-0.8783,0.0,0.0,0.0,0.0,0.0,0.0,0.0,0.0,0.0,0.0,0.0,0.0,0.0,0.0,0.0,0.0,0.0,0.0,0.0,0.0,0.0,0.0,0.0,0.0,0.0,0.0,0.0,0.0,0.0,0.0,0.0,0.0,0.0,0.0,0.0,0.0,0.0,0.0,0.0,0.0,0.0,0.0,0.0,0.0,0.0,0.0,0.0,0.0,0.0,0.0,0.0,0.0,0.0,0.0,0.0,0.0,0.0,0.0,0.0,0.0,0.0,0.0,0.0,0.0,0.0,0.0,0.0,0.0,0.0,0.0,0.0,0.0,0.0,0.0,0.0,0.0,0.0,0.0,0.0,0.0,0.0,0.0,0.0,0.0,0.0,0.0,0.0,0.0,0.0,0.0,0.0,0.0,0.0,0.0,0.0,0.0,0.0,0.0,0.0,0.0,0.0,0.0,0.0,0.0,0.0,0.0,0.0,0.0,0.0,0.0,-0.8926,-1.0176,-1.0191,0.0,-1.0207,0.0,0.0,0.0,0.0,0.0,0.0,0.0,0.0,0.0,0.0,0.0,0.0,0.0,0.0,0.0,0.0,0.0,0.0,0.0,0.0,0.0,0.0,0.0,0.0,0.0,0.0,0.0,0.0,0.0,0.0,0.0,0.0,0.0,0.0,0.0,0.0,0.0,0.0,0.0,0.0,0.0,0.0,0.0,0.0,0.0,0.0,0.0,0.0,0.0,0.0,0.0,0.0,0.0,0.0,0.0,0.0,0.0,0.0,0.0,0.0,0.0,0.0,0.0,0.0,0.0,0.0,0.0,0.0,0.0,0.0,0.0,0.0,0.0,0.0,0.0,0.0,0.0,0.0,0.0,0.0,0.0,0.0,0.0,0.0,0.0,0.0,0.0,0.0,0.0,0.0,0.0,0.0,0.0,0.0,0.0,0.0,0.0,0.0,0.0,0.0,0.0,0.0,0.0,0.0,0.0,0.0,0.0,0.0,0.0,0.0,-0.9813,-1.0396,-1.0412,-1.0412,0.0,0.0,0.0,0.0,0.0,0.0,0.0,0.0,0.0,0.0,0.0,0.0,0.0,0.0,0.0,0.0,0.0,0.0,0.0,0.0,0.0,0.0,0.0,0.0,0.0,0.0,0.0,0.0,0.0,0.0,0.0,0.0,0.0,0.0,0.0,0.0,0.0,0.0,0.0,0.0,0.0,0.0,0.0,0.0,0.0,0.0,0.0,0.0,0.0,0.0,0.0,0.0,0.0,0.0,0.0,0.0,0.0,0.0,0.0,0.0,0.0,0.0,0.0,0.0,0.0,0.0,0.0,0.0,0.0,0.0,0.0,0.0,0.0,0.0,0.0,0.0,0.0,0.0,0.0,0.0,0.0,0.0,0.0,0.0,0.0,0.0,0.0,0.0,0.0,0.0,0.0,0.0,0.0,0.0,0.0,0.0,0.0,0.0,0.0,0.0,0.0,0.0,0.0,0.0,0.0,0.0,0.0,0.0,0.0,0.0,-1.0065,-1.0586,-1.0949,-1.098,-1.0807,-1.0428,0.0,0.0,0.0,0.0,0.0,0.0,0.0,0.0,0.0,0.0,0.0,0.0,0.0,0.0,0.0,0.0,0.0,0.0,0.0,0.0,0.0,0.0,0.0,0.0,0.0,0.0,0.0,0.0,0.0,0.0,0.0,0.0,0.0,0.0,0.0,0.0,0.0,0.0,0.0,0.0,0.0,0.0,0.0,0.0,0.0,0.0,0.0,0.0,0.0,0.0,0.0,0.0,0.0,0.0,0.0,0.0,0.0,0.0,0.0,0.0,0.0,0.0,0.0,0.0,0.0,0.0,0.0,0.0,0.0,0.0,0.0,0.0,0.0,0.0,0.0,0.0,0.0,0.0,0.0,0.0,0.0,0.0,0.0,0.0,0.0,0.0,0.0,0.0,0.0,0.0,0.0,0.0,0.0,0.0,0.0,0.0,0.0,0.0,0.0,0.0,0.0,0.0,0.0,0.0,0.0,0.0,0.0,0.0,-1.2072,-1.1027,-1.1059,-1.2356,-1.24,-1.1769,0.0,0.0,0.0,0.0,0.0,0.0,0.0,0.0,0.0,0.0,0.0,0.0,0.0,0.0,0.0,0.0,0.0,0.0,0.0,0.0,0.0,0.0,0.0,0.0,0.0,0.0,0.0,0.0,0.0,0.0,0.0,0.0,0.0,0.0,0.0,0.0,0.0,0.0,0.0,0.0,0.0,0.0,0.0,0.0,0.0,0.0,0.0,0.0,0.0,0.0,0.0,0.0,0.0,0.0,0.0,0.0,0.0,0.0,0.0,0.0,0.0,0.0,0.0,0.0,0.0,0.0,0.0,0.0,0.0,0.0,0.0,0.0,0.0,0.0,0.0,0.0,0.0,0.0,0.0,0.0,0.0,0.0,0.0,0.0,0.0,0.0,0.0,0.0,0.0,0.0,0.0,0.0,0.0,0.0,0.0,0.0,0.0,0.0,0.0,0.0,0.0,0.0,0.0,0.0,0.0,0.0,0.0,0.0,0.0,-0.9749,-1.0176,-1.1501,-1.3668,-1.21,-1.1106,0.0,0.0,0.0,0.0,0.0,0.0,0.0,0.0,0.0,0.0,0.0,0.0,0.0,0.0,0.0,0.0,0.0,0.0,0.0,0.0,0.0,0.0,0.0,0.0,0.0,0.0,0.0,0.0,0.0,0.0,0.0,0.0,0.0,0.0,0.0,0.0,0.0,0.0,0.0,0.0,0.0,0.0,0.0,0.0,0.0,0.0,0.0,0.0,0.0,0.0,0.0,0.0,0.0,0.0,0.0,0.0,0.0,0.0,0.0,0.0,0.0,0.0,0.0,0.0,0.0,0.0,0.0,0.0,0.0,0.0,0.0,0.0,0.0,0.0,0.0,0.0,0.0,0.0,0.0,0.0,0.0,0.0,0.0,0.0,0.0,0.0,0.0,0.0,0.0,0.0,0.0,0.0,0.0,0.0,0.0,0.0,0.0,0.0,0.0,0.0,0.0,0.0,0.0,0.0,0.0,0.0,0.0,0.0,0.0,-0.9654,0.0,-1.2467,-1.3763,-1.2069,-1.0854,0.0,0.0,0.0,0.0,0.0,0.0,0.0,0.0,0.0,0.0,0.0,0.0,0.0,0.0,0.0,0.0,0.0,0.0,0.0,0.0,0.0,0.0,0.0,0.0,0.0,0.0,0.0,0.0,0.0,0.0,0.0,0.0,0.0,0.0,0.0,0.0,0.0,0.0,0.0,0.0,0.0,0.0,0.0,0.0,0.0,0.0,0.0,0.0,0.0,0.0,0.0,0.0,0.0,0.0,0.0,0.0,0.0,0.0,0.0,0.0,0.0,0.0,0.0,0.0,0.0,0.0,0.0,0.0,0.0,0.0,0.0,0.0,0.0,0.0,0.0,0.0,0.0,0.0,0.0,0.0,0.0,0.0,0.0,0.0,0.0,0.0,0.0,0.0,0.0,0.0,0.0,0.0,0.0,0.0,0.0,0.0,0.0,0.0,0.0,0.0,0.0,0.0,0.0,0.0,0.0,0.0,0.0,0.0,-0.9686,-1.2325,-1.3731,-1.3794,-1.2589,-1.2451,-1.1156,0.0,0.0,0.0,0.0,0.0,0.0,0.0,0.0,0.0,0.0,0.0,0.0,0.0,0.0,0.0,0.0,0.0,0.0,0.0,0.0,0.0,0.0,0.0,0.0,0.0,0.0,0.0,0.0,0.0,0.0,0.0,0.0,0.0,0.0,0.0,0.0,0.0,0.0,0.0,0.0,0.0,0.0,0.0,0.0,0.0,0.0,0.0,0.0,0.0,0.0,0.0,0.0,0.0,0.0,0.0,0.0,0.0,0.0,0.0,0.0,0.0,0.0,0.0,0.0,0.0,0.0,0.0,0.0,0.0,0.0,0.0,0.0,0.0,0.0,0.0,0.0,0.0,0.0,0.0,0.0,0.0,0.0,0.0,0.0,0.0,0.0,0.0,0.0,0.0,0.0,0.0,0.0,0.0,0.0,0.0,0.0,0.0,0.0,0.0,0.0,0.0,0.0,0.0,0.0,0.0,0.0,0.0,0.0,0.0,-1.1075,-1.242,-1.3415,-1.3858,-1.2053,-1.0854,0.0,0.0,0.0,0.0,0.0,0.0,0.0,0.0,0.0,0.0,0.0,0.0,0.0,0.0,0.0,0.0,0.0,0.0,0.0,0.0,0.0,0.0,0.0,0.0,0.0,0.0,0.0,0.0,0.0,0.0,0.0,0.0,0.0,0.0,0.0,0.0,0.0,0.0,0.0,0.0,0.0,0.0,0.0,0.0,0.0,0.0,0.0,0.0,0.0,0.0,0.0,0.0,0.0,0.0,0.0,0.0,0.0,0.0,0.0,0.0,0.0,0.0,0.0,0.0,0.0,0.0,0.0,0.0,0.0,0.0,0.0,0.0,0.0,0.0,0.0,0.0,0.0,0.0,0.0,0.0,0.0,0.0,0.0,0.0,0.0,0.0,0.0,0.0,0.0,0.0,0.0,0.0,0.0,0.0,0.0,0.0,0.0,0.0,0.0,0.0,0.0,0.0,0.0,0.0,0.0,0.0,0.0,0.0,0.0,-1.1661,-1.3173,-1.4079,-1.4174,-1.223,-1.1012,-1.0634,0.0,0.0,0.0,0.0,0.0,0.0,0.0,0.0,0.0,0.0,0.0,0.0,0.0,0.0,0.0,0.0,0.0,0.0,0.0,0.0,0.0,0.0,0.0,0.0,0.0,0.0,0.0,0.0,0.0,0.0,0.0,0.0,0.0,0.0,0.0,0.0,0.0,0.0,0.0,0.0,0.0,0.0,0.0,0.0,0.0,0.0,0.0,0.0,0.0,0.0,0.0,0.0,0.0,0.0,0.0,0.0,0.0,0.0,0.0,0.0,0.0,0.0,0.0,0.0,0.0,0.0,0.0,0.0,0.0,0.0,0.0,0.0,0.0,0.0,0.0,0.0,0.0,0.0,0.0,0.0,0.0,0.0,0.0,0.0,0.0,0.0,0.0,0.0,0.0,0.0,0.0,0.0,0.0,0.0,0.0,0.0,0.0,0.0,0.0,0.0,0.0,0.0,0.0,0.0,0.0,0.0,0.0,0.0,-1.3542,-1.5524,-1.5659,-1.3779,-1.2957,-1.1614,0.0,0.0,0.0,0.0,0.0,0.0,0.0,0.0,0.0,0.0,0.0,0.0,0.0,0.0,0.0,0.0,0.0,0.0,0.0,0.0,0.0,0.0,0.0,0.0,0.0,0.0,0.0,0.0,0.0,0.0,0.0,0.0,0.0,0.0,0.0,0.0,0.0,0.0,0.0,0.0,0.0,0.0,0.0,0.0,0.0,0.0,0.0,0.0,0.0,0.0,0.0,0.0,0.0,0.0,0.0,0.0,0.0,0.0,0.0,0.0,0.0,0.0,0.0,0.0,0.0,0.0,0.0,0.0,0.0,0.0,0.0,0.0,0.0,0.0,0.0,0.0,0.0,0.0,0.0,0.0,0.0,0.0,0.0,0.0,0.0,0.0,0.0,0.0,0.0,0.0,0.0,0.0,0.0,0.0,0.0,0.0,0.0,0.0,0.0,0.0,0.0,0.0,0.0,0.0,0.0,0.0,0.0,0.0,0.0,-1.43,-1.5808,-1.6344,-1.576,-1.4142,-1.2751,0.0,0.0,0.0,0.0,0.0,0.0,0.0,0.0,0.0,0.0,0.0,0.0,0.0,0.0,0.0,0.0,0.0,0.0,0.0,0.0,0.0,0.0,0.0,0.0,0.0,0.0,0.0,0.0,0.0,0.0,0.0,0.0,0.0,0.0,0.0,0.0,0.0,0.0,0.0,0.0,0.0,0.0,0.0,0.0,0.0,0.0,0.0,0.0,0.0,0.0,0.0,0.0,0.0,0.0,0.0,0.0,0.0,0.0,0.0,0.0,0.0,0.0,0.0,0.0,0.0,0.0,0.0,0.0,0.0,0.0,0.0,0.0,0.0,0.0,0.0,0.0,0.0,0.0,0.0,0.0,0.0,0.0,0.0,0.0,0.0,0.0,0.0,0.0,0.0,0.0,0.0,0.0,0.0,0.0,0.0,0.0,0.0,0.0,0.0,0.0,0.0,0.0,0.0,0.0,0.0,0.0,0.0,0.0,-1.3605,-1.4979,-1.6028,-1.6607,-1.6607,-1.4885,-1.3325,0.0,0.0,0.0,0.0,0.0,0.0,0.0,0.0,0.0,0.0,0.0,0.0,0.0,0.0,0.0,0.0,0.0,0.0,0.0,0.0,0.0,0.0,0.0,0.0,0.0,0.0,0.0,0.0,0.0,0.0,0.0,0.0,0.0,0.0,0.0,0.0,0.0,0.0,0.0,0.0,0.0,0.0,0.0,0.0,0.0,0.0,0.0,0.0,0.0,0.0,0.0,0.0,0.0,0.0,0.0,0.0,0.0,0.0,0.0,0.0,0.0,0.0,0.0,0.0,0.0,0.0,0.0,0.0,0.0,0.0,0.0,0.0,0.0,0.0,0.0,0.0,0.0,0.0,0.0,0.0,0.0,0.0,0.0,0.0,0.0,0.0,0.0,0.0,0.0,0.0,0.0,0.0,0.0,0.0,0.0,0.0,0.0,0.0,0.0,0.0,0.0,0.0,0.0,0.0,0.0,0.0,0.0,0.0,-1.4158,-1.5589,-1.6259,-1.6607,-1.6549,-1.5374,-1.3659,0.0,0.0,0.0,0.0,0.0,0.0,0.0,0.0,0.0,0.0,0.0,0.0,0.0,0.0,0.0,0.0,0.0,0.0,0.0,0.0,0.0,0.0,0.0,0.0,0.0,0.0,0.0,0.0,0.0,0.0,0.0,0.0,0.0,0.0,0.0,0.0,0.0,0.0,0.0,0.0,0.0,0.0,0.0,0.0,0.0,0.0,0.0,0.0,0.0,0.0,0.0,0.0,0.0,0.0,0.0,0.0,0.0,0.0,0.0,0.0,0.0,0.0,0.0,0.0,0.0,0.0,0.0,0.0,0.0,0.0,0.0,0.0,0.0,0.0,0.0,0.0,0.0,0.0,0.0,0.0,0.0,0.0,0.0,0.0,0.0,0.0,0.0,0.0,0.0,0.0,0.0,0.0,0.0,0.0,0.0,0.0,0.0,0.0,0.0,0.0,0.0,0.0,0.0,0.0,0.0,0.0,0.0,0.0,-1.4196,-1.5589,-1.6259,-1.6607,-1.6607,-1.5817,-1.4578,0.0,0.0,0.0,0.0,0.0,0.0,0.0,0.0,0.0,0.0,0.0,0.0,0.0,0.0,0.0,0.0,0.0,0.0,0.0,0.0,0.0,0.0,0.0,0.0,0.0,0.0,0.0,0.0,0.0,0.0,0.0,0.0,0.0,0.0,0.0,0.0,0.0,0.0,0.0,0.0,0.0,0.0,0.0,0.0,0.0,0.0,0.0,0.0,-0.5507,0.0,0.0,0.0,0.0,0.0,0.0,0.0,0.0,0.0,0.0,0.0,0.0,0.0,0.0,0.0,0.0,0.0,0.0,0.0,0.0,0.0,0.0,0.0,0.0,0.0,0.0,0.0,0.0,0.0,0.0,0.0,0.0,0.0,0.0,0.0,0.0,0.0,0.0,0.0,0.0,0.0,0.0,0.0,0.0,0.0,0.0,0.0,0.0,0.0,0.0,0.0,0.0,0.0,0.0,0.0,0.0,0.0,0.0,0.0,-1.4679,-1.6038,-1.6407,-1.6607,-1.6581,-1.6259,-1.5009,0.0,0.0,0.0,0.0,0.0,0.0,0.0,0.0,0.0,0.0,0.0,0.0,0.0,0.0,0.0,0.0,0.0,0.0,0.0,0.0,0.0,0.0,0.0,0.0,0.0,0.0,0.0,0.0,0.0,0.0,0.0,0.0,0.0,0.0,0.0,0.0,0.0,0.0,0.0,0.0,0.0,0.0,0.0,0.0,0.0,0.0,0.0,0.0,0.0,0.0,0.0,0.0,0.0,0.0,0.0,0.0,0.0,0.0,0.0,0.0,0.0,0.0,0.0,0.0,0.0,0.0,0.0,0.0,0.0,0.0,0.0,0.0,0.0,0.0,0.0,0.0,0.0,0.0,0.0,0.0,0.0,0.0,0.0,0.0,0.0,0.0,0.0,0.0,0.0,0.0,0.0,0.0,0.0,0.0,0.0,0.0,0.0,0.0,0.0,0.0,0.0,0.0,0.0,0.0,0.0,0.0,0.0,-1.3889,-1.5137,-1.6517,-1.6607,-1.6607,-1.6607,-1.6607,-1.5173,-1.2173,0.0,0.0,0.0,0.0,0.0,0.0,0.0,0.0,0.0,0.0,0.0,0.0,0.0,0.0,0.0,0.0,0.0,0.0,0.0,0.0,0.0,0.0,0.0,0.0,0.0,0.0,0.0,0.0,0.0,0.0,0.0,0.0,0.0,0.0,0.0,0.0,0.0,0.0,-0.4595,-0.5938,0.0,0.0,0.0,0.0,0.0,0.0,0.0,0.0,-0.6076,0.0,0.0,0.0,0.0,0.0,0.0,0.0,0.0,0.0,0.0,0.0,0.0,0.0,0.0,0.0,0.0,0.0,0.0,0.0,0.0,0.0,0.0,0.0,0.0,0.0,0.0,0.0,0.0,0.0,0.0,0.0,0.0,0.0,0.0,0.0,0.0,0.0,0.0,0.0,0.0,0.0,0.0,0.0,0.0,0.0,0.0,0.0,0.0,0.0,0.0,0.0,0.0,0.0,0.0,0.0,0.0,-1.4189,-1.3873,-1.4632,-1.6533,-1.6607,-1.6607,-1.6607,-1.6607,-1.5238,-1.2453,0.0,0.0,0.0,0.0,0.0,0.0,0.0,0.0,0.0,0.0,0.0,0.0,0.0,0.0,0.0,0.0,0.0,0.0,0.0,0.0,0.0,0.0,0.0,0.0,0.0,0.0,0.0,0.0,0.0,0.0,0.0,0.0,0.0,0.0,0.0,0.0,0.0,0.0,0.0,-0.7624,-0.8359,0.0,0.0,0.0,0.0,0.0,0.0,0.0,0.0,-0.5842,0.0,0.0,0.0,0.0,0.0,0.0,0.0,0.0,0.0,0.0,0.0,0.0,0.0,0.0,0.0,0.0,0.0,0.0,0.0,0.0,0.0,0.0,0.0,0.0,0.0,0.0,0.0,0.0,0.0,0.0,0.0,0.0,0.0,0.0,0.0,0.0,0.0,0.0,0.0,0.0,0.0,0.0,0.0,0.0,0.0,0.0,0.0,0.0,0.0,0.0,0.0,0.0,0.0,0.0,0.0,-1.3415,-1.4205,-1.5248,-1.656,-1.6607,-1.6607,-1.6565,-1.5943,-1.4507,0.0,0.0,0.0,0.0,0.0,0.0,0.0,0.0,0.0,0.0,0.0,0.0,0.0,0.0,0.0,0.0,0.0,0.0,0.0,0.0,0.0,0.0,0.0,0.0,0.0,0.0,0.0,0.0,0.0,0.0,0.0,0.0,0.0,0.0,0.0,0.0,0.0,0.0,0.0,0.0,-0.7509,-0.8136,-0.7854,0.0,0.0,0.0,0.0,0.0,0.0,-0.6869,-0.6552,0.0,0.0,0.0,0.0,0.0,0.0,0.0,0.0,0.0,0.0,0.0,0.0,0.0,0.0,0.0,0.0,0.0,0.0,0.0,0.0,0.0,0.0,0.0,0.0,0.0,0.0,0.0,0.0,0.0,0.0,0.0,0.0,0.0,0.0,0.0,0.0,0.0,0.0,0.0,0.0,0.0,0.0,0.0,0.0,0.0,0.0,0.0,0.0,0.0,0.0,0.0,0.0,0.0,0.0,0.0,-1.2546,-1.4411,-1.5785,-1.6533,-1.6607,-1.6607,-1.6591,-1.5422,-1.3973,0.0,0.0,0.0,0.0,0.0,0.0,0.0,0.0,0.0,0.0,0.0,0.0,0.0,0.0,0.0,0.0,0.0,0.0,0.0,0.0,0.0,0.0,0.0,0.0,0.0,0.0,0.0,0.0,0.0,0.0,0.0,0.0,0.0,0.0,0.0,0.0,0.0,0.0,0.0,0.0,0.0,-0.8001,-0.8156,-0.7788,0.0,0.0,0.0,0.0,-0.7774,-0.7492,0.0,0.0,0.0,0.0,0.0,0.0,0.0,0.0,0.0,0.0,0.0,0.0,0.0,0.0,0.0,0.0,0.0,0.0,0.0,0.0,0.0,0.0,0.0,0.0,0.0,0.0,0.0,0.0,0.0,0.0,0.0,0.0,0.0,0.0,0.0,0.0,0.0,0.0,0.0,0.0,0.0,0.0,0.0,0.0,0.0,0.0,0.0,0.0,0.0,0.0,0.0,0.0,0.0,0.0,0.0,0.0,-1.2499,-1.3952,-1.5343,-1.6544,-1.6607,-1.6607,-1.6607,-1.588,-1.4537,0.0,0.0,0.0,0.0,0.0,0.0,0.0,0.0,0.0,0.0,0.0,0.0,0.0,0.0,0.0,0.0,0.0,0.0,0.0,0.0,0.0,0.0,0.0,0.0,0.0,0.0,0.0,0.0,0.0,0.0,0.0,0.0,0.0,0.0,0.0,0.0,0.0,0.0,0.0,0.0,0.0,-0.9384,-0.766,-0.8009,-0.8153,0.0,0.0,-0.7122,-0.8022,-0.7654,0.0,0.0,0.0,0.0,0.0,0.0,0.0,0.0,0.0,0.0,0.0,0.0,0.0,0.0,0.0,0.0,0.0,0.0,0.0,0.0,0.0,0.0,0.0,0.0,0.0,0.0,0.0,0.0,0.0,0.0,0.0,0.0,0.0,0.0,0.0,0.0,0.0,0.0,0.0,0.0,0.0,0.0,0.0,0.0,0.0,0.0,0.0,0.0,0.0,0.0,0.0,0.0,0.0,0.0,0.0,-1.1898,-1.2542,-1.4632,-1.6038,-1.6565,-1.6607,-1.6607,-1.6607,-1.558,-1.4388,0.0,0.0,0.0,0.0,0.0,0.0,0.0,0.0,0.0,0.0,0.0,0.0,0.0,0.0,0.0,0.0,0.0,0.0,0.0,0.0,0.0,0.0,0.0,0.0,0.0,0.0,0.0,0.0,0.0,0.0,0.0,0.0,0.0,0.0,0.0,0.0,0.0,0.0,0.0,0.0,0.0,0.0,-0.8117,-0.8227,0.0,0.0,0.0,-0.8106,-0.8329,0.0,0.0,0.0,0.0,0.0,0.0,0.0,0.0,0.0,0.0,0.0,0.0,0.0,0.0,0.0,0.0,0.0,0.0,0.0,0.0,0.0,0.0,0.0,0.0,0.0,0.0,0.0,0.0,0.0,0.0,0.0,0.0,0.0,0.0,0.0,0.0,0.0,0.0,0.0,0.0,0.0,0.0,0.0,0.0,0.0,0.0,0.0,0.0,0.0,0.0,0.0,0.0,0.0,0.0,0.0,0.0,0.0,-1.2562,-1.5366,-1.6786,-1.6612,-1.6812,-1.6786,-1.6581,-1.5453,0.0,0.0,0.0,0.0,0.0,0.0,0.0,0.0,0.0,0.0,0.0,0.0,0.0,0.0,0.0,0.0,0.0,0.0,0.0,0.0,0.0,0.0,0.0,0.0,0.0,0.0,0.0,-0.3527,0.0,0.0,0.0,0.0,0.0,0.0,0.0,0.0,0.0,0.0,0.0,0.0,0.0,0.0,-0.7832,-0.8663,-0.8599,-0.8484,0.0,0.0,-0.8795,-0.868,-0.9077,-0.892,0.0,0.0,0.0,0.0,0.0,0.0,0.0,0.0,0.0,0.0,0.0,0.0,0.0,0.0,0.0,0.0,0.0,0.0,0.0,0.0,0.0,0.0,0.0,0.0,0.0,0.0,0.0,0.0,0.0,0.0,0.0,0.0,0.0,0.0,0.0,0.0,0.0,0.0,0.0,0.0,0.0,0.0,0.0,0.0,0.0,0.0,0.0,0.0,0.0,0.0,0.0,0.0,0.0,0.0,0.0,-1.2625,-1.5896,-1.729,-1.6644,-1.7275,-1.729,-1.6612,-1.5912,-1.4885,0.0,0.0,0.0,0.0,0.0,0.0,0.0,0.0,0.0,0.0,0.0,0.0,0.0,0.0,0.0,0.0,0.0,0.0,0.0,0.0,0.0,0.0,0.0,0.0,0.0,0.0,0.0,0.0,0.0,0.0,0.0,0.0,0.0,0.0,0.0,0.0,0.0,0.0,0.0,0.0,0.0,-0.8755,-0.8939,-0.914,-0.9206,0.0,0.0,-0.8601,-0.9062,-0.9106,-0.8592,-0.7332,0.0,0.0,0.0,0.0,0.0,0.0,0.0,0.0,0.0,0.0,0.0,0.0,0.0,0.0,0.0,0.0,0.0,0.0,0.0,0.0,0.0,0.0,0.0,0.0,0.0,0.0,0.0,0.0,0.0,0.0,0.0,0.0,0.0,0.0,0.0,0.0,0.0,0.0,0.0,0.0,0.0,0.0,0.0,0.0,0.0,0.0,0.0,0.0,0.0,0.0,0.0,0.0,0.0,-1.2514,-1.2562,-1.5943,-1.7587,-1.729,-1.7543,-1.7543,-1.7275,-1.618,-1.4932,0.0,0.0,0.0,0.0,0.0,0.0,0.0,0.0,0.0,0.0,0.0,0.0,0.0,0.0,0.0,0.0,0.0,0.0,0.0,0.0,0.0,0.0,0.0,0.0,0.0,0.0,0.0,0.0,-0.4905,-0.5122,-0.5439,0.0,0.0,0.0,0.0,0.0,0.0,0.0,0.0,0.0,0.0,-0.9069,-0.9807,-0.9787,0.0,0.0,-0.975,-0.9589,-0.8972,-0.9256,-0.9031,-0.7751,-0.7468,0.0,0.0,0.0,0.0,0.0,0.0,0.0,0.0,0.0,0.0,0.0,0.0,0.0,0.0,0.0,0.0,0.0,0.0,0.0,0.0,0.0,0.0,0.0,0.0,0.0,0.0,0.0,0.0,0.0,0.0,0.0,0.0,0.0,0.0,0.0,0.0,0.0,0.0,0.0,0.0,0.0,0.0,0.0,0.0,0.0,0.0,0.0,0.0,0.0,0.0,0.0,0.0,-1.2593,-1.283,-1.6244,-1.8013,-1.7985,-1.8205,-1.814,-1.7713,-1.6749,-1.5469,0.0,0.0,0.0,0.0,0.0,0.0,0.0,0.0,0.0,0.0,0.0,0.0,0.0,0.0,0.0,0.0,0.0,0.0,0.0,0.0,0.0,0.0,0.0,0.0,0.0,0.0,0.0,0.0,-0.5247,-0.5384,-0.576,0.0,0.0,0.0,0.0,0.0,0.0,0.0,0.0,0.0,0.0,-0.93,-1.0222,-1.0007,-0.9783,-1.0055,-1.0081,-0.9891,-0.9271,-0.9426,-0.9232,-0.8175,0.0,0.0,0.0,0.0,0.0,0.0,0.0,0.0,0.0,0.0,0.0,0.0,0.0,0.0,0.0,0.0,0.0,0.0,0.0,0.0,0.0,0.0,0.0,0.0,0.0,0.0,0.0,0.0,0.0,0.0,-0.9554,0.0,0.0,0.0,0.0,0.0,0.0,0.0,0.0,0.0,0.0,0.0,0.0,0.0,0.0,0.0,0.0,0.0,0.0,0.0,0.0,0.0,0.0,0.0,-1.351,-1.6876,-1.8661,-1.8708,-1.9388,-1.9042,-1.7764,-1.7653,-1.6644,-1.4584,0.0,0.0,0.0,0.0,0.0,0.0,0.0,0.0,0.0,0.0,0.0,0.0,0.0,0.0,0.0,0.0,0.0,0.0,0.0,0.0,0.0,0.0,0.0,0.0,0.0,0.0,-0.576,-0.5782,-0.5771,0.0,0.0,0.0,0.0,0.0,0.0,0.0,0.0,0.0,0.0,-0.924,-0.9507,-1.004,-0.9674,-0.9638,-1.0366,-0.9538,-0.9139,-1.0109,-0.9682,-0.9036,0.0,0.0,0.0,0.0,0.0,0.0,0.0,0.0,0.0,0.0,0.0,0.0,0.0,0.0,0.0,0.0,0.0,0.0,0.0,0.0,0.0,0.0,0.0,0.0,0.0,0.0,0.0,-1.3891,-1.3282,0.0,0.0,0.0,0.0,0.0,0.0,0.0,0.0,0.0,0.0,0.0,-1.6958,-1.7166,0.0,0.0,0.0,0.0,0.0,0.0,0.0,0.0,0.0,0.0,0.0,0.0,-1.351,-1.43,-1.6749,-1.8503,-1.9404,-1.9198,-1.8851,-1.8377,-1.7464,-1.5776,-1.3289,0.0,0.0,0.0,0.0,0.0,0.0,0.0,0.0,0.0,0.0,0.0,0.0,0.0,0.0,0.0,0.0,0.0,0.0,0.0,0.0,0.0,0.0,0.0,0.0,0.0,-0.5793,0.0,0.0,0.0,0.0,0.0,0.0,0.0,0.0,0.0,0.0,0.0,-0.8723,-0.9281,-0.96,-1.0048,-1.0573,-1.0496,-1.0458,0.0,0.0,0.0,0.0,0.0,0.0,0.0,0.0,0.0,0.0,0.0,0.0,0.0,0.0,-0.7587,-0.6784,-0.653,-0.6554,-0.6745,0.0,0.0,0.0,0.0,0.0,0.0,0.0,0.0,0.0,0.0,0.0,0.0,0.0,0.0,0.0,0.0,-1.5524,0.0,0.0,0.0,0.0,0.0,0.0,0.0,0.0,-1.8355,-1.9004,-1.8981,-1.9222,-1.9063,0.0,-1.7984,-1.6713,0.0,0.0,0.0,0.0,0.0,0.0,0.0,0.0,-1.4347,-1.5327,-1.7381,-1.8993,-2.0067,-1.9688,-1.9325,-1.9072,-1.7448,-1.5539,-1.3289,-1.1864,-1.0679,0.0,0.0,0.0,0.0,0.0,0.0,0.0,0.0,0.0,0.0,0.0,0.0,0.0,0.0,0.0,0.0,0.0,0.0,0.0,0.0,0.0,0.0,0.0,-0.5793,0.0,0.0,0.0,0.0,0.0,0.0,0.0,0.0,0.0,-0.8087,-0.889,-0.9699,-1.0168,-1.0262,-1.0466,-1.1001,0.0,0.0,0.0,0.0,0.0,0.0,0.0,-1.0476,-0.981,-0.9894,-0.9979,-0.9763,-0.9549,-0.9366,-0.9271,0.0,0.0,-0.7547,-0.7253,-0.7158,-0.7261,-0.6767,-0.6437,-0.6731,-0.6344,-0.5788,0.0,0.0,0.0,0.0,0.0,0.0,0.0,0.0,-1.9033,-1.8571,0.0,-1.7597,0.0,0.0,0.0,0.0,0.0,0.0,0.0,0.0,-2.1497,-2.2211,-2.2028,-2.1379,-2.1406,-2.1996,-2.1652,-2.0824,-1.9343,-1.6025,0.0,0.0,0.0,0.0,0.0,0.0,-1.5343,-1.6686,-1.8647,-2.0083,-2.0747,-2.0747,-2.0431,-1.9736,-1.7745,-1.6022,-1.4663,-1.3289,-1.1873,-1.0354,-0.9639,0.0,0.0,0.0,0.0,0.0,0.0,0.0,0.0,0.0,0.0,0.0,0.0,0.0,0.0,0.0,0.0,0.0,0.0,0.0,0.0,-0.5793,0.0,0.0,0.0,0.0,0.0,0.0,0.0,0.0,0.0,0.0,-0.9484,-0.983,-1.0534,-1.1612,0.0,0.0,0.0,0.0,-1.1223,-1.1948,-1.1535,-1.1398,-1.2102,-1.1414,-1.075,-1.0724,0.0,0.0,-0.958,-0.9461,-0.9565,-0.989,-0.989,-0.9588,-0.863,-0.8151,-0.7811,-0.7484,-0.7351,-0.7212,-0.6911,-0.6847,-0.6732,-2.375,0.0,0.0,0.0,0.0,-2.0363,-2.1155,-2.2417,-2.2178,-2.1672,-2.0974,-2.0645,0.0,0.0,0.0,0.0,0.0,0.0,-1.9939,-2.0758,-2.1662,-2.233,-2.2816,-2.2605,-2.2527,-2.2563,-2.2358,-2.166,-2.056,-1.9386,-1.7432,-1.4791,0.0,0.0,0.0,0.0,-1.7332,-1.8092,-1.8708,-1.9593,-2.0763,-2.0336,-1.9751,-1.9024,-1.7982,-1.6733,-1.5359,-1.4458,-1.3331,-1.1904,-1.1149,0.0,0.0,0.0,0.0,0.0,0.0,0.0,0.0,0.0,0.0,0.0,0.0,0.0,0.0,0.0,0.0,0.0,0.0,0.0,-0.5793,-0.5793,-0.6068,0.0,0.0,0.0,0.0,0.0,0.0,0.0,0.0,0.0,-1.0821,-1.1131,-1.1214,0.0,0.0,-1.1118,-1.1051,-1.1445,-1.1859,-1.2049,0.0,0.0,0.0,-1.1572,-1.1305,-1.1041,-1.1056,-1.1039,-1.0921,-1.0494,-1.028,-1.0613,-1.0057,-0.9485,-0.946,-0.935,-0.9178,-0.8832,-0.8372,-0.7944,-0.7636,-0.7231,-0.6717,-2.6448,-2.374,-2.2638,-2.2704,-2.3539,-2.3535,-2.4076,-2.4951,-2.4986,-2.4623,-2.4025,-2.3589,-2.2584,-2.1147,-2.0336,0.0,0.0,0.0,-2.1882,-2.2909,-2.3271,-2.3626,-2.3997,-2.4032,-2.3955,-2.3807,-2.3308,-2.2794,-2.2287,-2.1701,-2.0237,-1.7907,0.0,0.0,-1.6604,-1.7786,-1.8712,-1.9313,-1.9587,-2.0098,-2.0909,-2.0447,-1.9736,-1.8756,-1.8284,-1.7429,-1.6054,-1.5343,-1.4347,-1.2957,-1.1946,-1.0741,0.0,0.0,0.0,0.0,0.0,0.0,0.0,0.0,0.0,0.0,0.0,-0.479,0.0,0.0,0.0,0.0,-0.5837,-0.6321,-0.6617,-0.6672,0.0,0.0,0.0,0.0,0.0,0.0,0.0,-1.0747,-1.1086,-1.1424,-1.1964,-1.2171,-1.2148,-1.1839,-1.1947,-1.2141,-1.2339,0.0,-1.2369,-1.2534,-1.2415,-1.2223,-1.2003,-1.1922,-1.1742,-1.1431,-1.1481,-1.1465,-1.1288,-1.0939,-1.0772,-1.0852,-1.0351,-0.9963,-1.0242,-1.0192,-0.9911,-0.9344,-0.8721,-0.8177,-0.7728,-0.7279,-0.6854,-2.8624,-2.786,-2.7612,-2.7409,-2.728,-2.7217,-2.7203,-2.7204,-2.7186,-2.7135,-2.6971,-2.6171,-2.5245,-2.4186,-2.2473,0.0,-2.3976,-2.3795,-2.445,-2.5818,-2.5699,-2.5544,-2.5428,-2.5428,-2.5428,-2.5401,-2.4433,-2.4102,-2.4287,-2.3177,-2.2241,-2.155,-1.9662,-1.8913,-1.9276,-1.9346,-1.9702,-2.0367,-2.0969,-2.1214,-2.1103,-2.0925,-2.0131,-1.8756,-1.8724,-1.8045,-1.6659,-1.5943,-1.4932,-1.3557,-1.2262,-1.0866,-0.9359,0.0,0.0,0.0,0.0,0.0,0.0,0.0,0.0,0.0,0.0,0.0,0.0,0.0,0.0,0.0,-0.6853,0.0,-0.7845,-0.8068,0.0,0.0,0.0,-0.912,-1.0212,-1.065,-1.1217,-1.2156,0.0,0.0,-1.2889,0.0,-1.3172,-1.3696,-1.3486,-1.358,-1.4445,-1.3485,-1.2963,-1.3268,-1.2984,-1.2727,-1.2724,-1.2434,-1.2148,-1.1965,-1.1884,-1.1688,-1.118,-1.1003,-1.0987,-1.0995,-1.0701,-1.0566,-1.0939,-1.0685,-1.0183,-0.9173,-0.8656,-0.8181,-0.7481,-0.7297,-0.723,-3.0376,-2.9612,-2.9478,-2.8643,-2.7388,-2.7358,-2.7299,-2.7204,-2.7204,-2.7169,-2.7115,-2.684,-2.6413,-2.5889,-2.531,-2.5258,-2.5624,-2.5541,-2.5668,-2.6027,-2.5886,-2.5811,-2.576,-2.5675,-2.5623,-2.5597,-2.509,-2.4865,-2.4858,-2.3863,-2.3243,-2.2993,-2.1832,-2.0888,-2.0234,-2.0757,-2.1026,-2.1066,-2.1228,-2.123,-2.1103,-2.1055,-2.0289,-1.8756,-1.8724,-1.8045,-1.6644,-1.5959,-1.4948,-1.3573,-1.3178,-1.2116,-1.0206,-0.9797,0.0,0.0,0.0,0.0,0.0,0.0,0.0,0.0,0.0,-0.7115,-0.6132,0.0,-0.7662,0.0,-0.8311,-0.8472,-0.8097,-0.8447,0.0,0.0,-0.9591,-0.995,-1.1964,-1.1719,-1.167,-1.2606,-1.2824,-1.2889,-1.2889,-1.3576,-1.4078,-1.4209,-1.3838,-1.3719,-1.4062,-1.3855,-1.3626,-1.3671,-1.3387,-1.3149,-1.3103,-1.3075,-1.2904,-1.2698,-1.2425,-1.2058,-1.151,-1.1148,-1.0995,-1.0971,-1.0701,-1.0721,-1.1042,-1.0833,-1.0249,-0.9592,-0.9169,-0.8689,-0.7775,-0.7666,-0.7647,-3.1752,-3.1274,-3.0905,-3.0087,-2.9068,-2.8644,-2.8428,-2.8346,-2.833,-2.8312,-2.8275,-2.7774,-2.7154,-2.6515,-2.6385,-2.6495,-2.6729,-2.6694,-2.6844,-2.7112,-2.7043,-2.6967,-2.6915,-2.6836,-2.6774,-2.6721,-2.6131,-2.5817,-2.5708,-2.4517,-2.3853,-2.3708,-2.285,-2.2067,-2.1434,-2.1687,-2.1738,-2.1526,-2.1464,-2.134,-2.1199,-2.1199,-2.0399,-1.8772,-1.8797,-1.8146,-1.667,-1.5959,-1.509,-1.4031,-1.3384,-1.2388,-1.0933,-1.057,-0.9999,0.0,0.0,0.0,0.0,0.0,0.0,0.0,0.0,0.0,0.0,0.0,-0.9033,0.0,-0.9728,0.0,-0.9928,-1.0447,-1.1103,-1.183,-1.1417,-1.1678,-1.3117,-1.28,-1.2767,-1.3488,-1.3401,-1.3346,-1.3554,-1.386,-1.4242,-1.4646,-1.4324,-1.4123,-1.4405,-1.4162,-1.3886,-1.3893,-1.3543,-1.3213,-1.3048,-1.3011,-1.2968,-1.285,-1.2534,-1.2169,-1.1802,-1.1407,-1.11,-1.0841,-1.0649,-1.0593,-1.0796,-1.0721,-1.0308,-0.9873,-0.9569,-0.9123,-0.827,-0.8003,-0.7793,-3.2806,-3.2634,-3.1943,-3.1562,-3.1339,-3.05,-3.0015,-2.979,-2.9719,-2.9701,-2.9645,-2.8783,-2.7823,-2.6891,-2.6808,-2.71,-2.7568,-2.758,-2.7868,-2.8432,-2.8406,-2.8353,-2.8255,-2.8228,-2.8146,-2.8035,-2.7305,-2.6904,-2.6729,-2.5305,-2.441,-2.4066,-2.3319,-2.2798,-2.2525,-2.2326,-2.2084,-2.1869,-2.1754,-2.1573,-2.134,-2.134,-2.0507,-1.8817,-1.8885,-1.8259,-1.667,-1.5943,-1.5304,-1.4616,-1.3431,-1.2404,-1.1564,-1.0947,-1.0186,0.0,-0.8621,0.0,0.0,0.0,0.0,0.0,0.0,0.0,0.0,-0.992,-1.086,-1.0681,-1.1216,-1.1778,-1.2268,-1.2904,-1.333,-1.341,-1.3395,-1.3502,-1.3795,-1.3828,-1.3914,-1.4299,-1.3991,-1.3925,-1.4165,-1.398,-1.4122,-1.4751,-1.459,-1.4509,-1.4871,-1.438,-1.3908,-1.382,-1.3525,-1.3186,-1.2954,-1.2791,-1.2848,-1.2842,-1.2546,-1.2218,-1.2016,-1.1668,-1.1194,-1.0669,-1.0538,-1.053,-1.0522,-1.053,-1.0352,-0.9976,-0.9814,-0.9496,-0.8744,-0.8283,-0.8008,-3.3356,-3.2691,-3.2539,-3.2447,-3.2397,-3.206,-3.1089,-2.9738,-2.9701,-2.9701,-2.9701,-2.9492,-2.9225,-2.8827,-2.8566,-2.8498,-2.8596,-2.8445,-2.8442,-2.8562,-2.8562,-2.8554,-2.851,-2.8406,-2.8353,-2.83,-2.7949,-2.7756,-2.7727,-2.6669,-2.5813,-2.5102,-2.4172,-2.3361,-2.2773,0.0,0.0,0.0,-2.213,-2.1882,-2.1568,-2.1526,-2.0629,-1.8801,-1.8885,0.0,-1.6686,-1.5959,-1.5304,-1.4632,-1.4332,0.0,0.0,0.0,0.0,0.0,0.0,0.0,0.0,0.0,0.0,0.0,-1.0946,-1.0718,-1.0288,-1.2068,-1.275,-1.1653,-1.3076,-1.3815,-1.3111,-1.3533,-1.393,-1.4132,-1.3987,-1.4004,-1.445,-1.438,-1.4155,-1.3849,-1.4067,-1.4178,-1.3903,-1.4056,-1.4307,-1.454,-1.4468,-1.4446,-1.453,-1.4165,-1.3774,-1.3497,-1.3341,-1.3268,-1.3195,-1.314,-1.3121,-1.3159,-1.2913,-1.251,-1.204,-1.1634,-1.1186,-1.0637,-1.0522,-1.0522,-1.0522,-1.0522,-1.0462,-1.036,-1.0087,-0.9555,-0.8778,-0.8521,-0.8368,-3.4397,0.0,-3.3509,-3.3303,0.0,-3.2699,-3.1916,-3.0998,-3.0903,-3.0884,-3.0903,-3.0881,-3.0557,-2.9969,-2.9751,-2.9365,-2.8905,-2.8669,-2.8587,-2.8587,-2.8587,-2.8587,-2.8587,-2.8554,-2.8476,-2.8398,-2.8264,-2.8136,-2.7961,-2.7106,-2.6229,-2.5401,-2.455,-2.3702,-2.2962,-2.2944,-2.2868,-2.2676,-2.2426,-2.2113,-2.1777,-2.1794,-2.1075,-1.9562,0.0,0.0,0.0,0.0,0.0,0.0,0.0,0.0,0.0,0.0,0.0,-1.2085,-1.1869,-1.163,-1.1316,-1.1461,-1.1917,-1.265,-1.3113,-1.3106,-1.2536,-1.336,-1.3841,-1.3721,-1.4638,-1.4968,-1.4484,-1.4689,-1.4896,-1.4958,-1.4817,-1.4788,-1.488,-1.4789,-1.4653,-1.4463,-1.446,-1.4459,-1.4249,-1.4266,-1.4419,-1.443,-1.4384,-1.432,-1.4136,-1.3942,-1.371,-1.3358,-1.3296,-1.3213,-1.303,-1.2984,-1.2984,-1.2965,-1.2704,-1.2377,-1.2149,-1.1678,-1.1181,-1.0802,-1.0624,-1.0522,-1.0522,-1.0522,-1.0522,-1.047,-1.0308,-0.988,-0.9099,-0.8732,-0.8468,-3.535,-3.5184,-3.4515,-3.4181,-3.3985,-3.3339,-3.2933,-3.2751,0.0,0.0,0.0,-3.2219,-3.1744,-3.087,-3.0717,-3.0116,-2.9219,-2.901,-2.8839,-2.8694,-2.8662,-2.8644,-2.8637,-2.8612,-2.8536,-2.8432,-2.8424,-2.8291,-2.8035,-2.7341,-2.6551,-2.5666,-2.4884,-2.4015,-2.3172,-2.3119,-2.302,-2.2868,-2.2659,-2.2343,-2.1969,-2.2039,-2.1532,-2.0332,-1.9731,-1.9026,-1.8106,-1.6769,-1.5994,-1.5969,-1.5311,-1.49,-1.4774,-1.4751,-1.446,-1.3861,-1.3485,-1.3351,-1.3498,-1.3121,-1.3288,-1.4186,-1.5057,-1.5284,-1.4653,-1.452,-1.4835,-1.574,-1.5877,-1.5885,-1.5761,-1.5807,-1.578,-1.5558,-1.5513,-1.5412,-1.5198,-1.5108,-1.5062,-1.5062,-1.4869,-1.4743,-1.4777,-1.4593,-1.4466,-1.4477,-1.443,-1.4233,-1.391,-1.3668,-1.3384,-1.3088,-1.2965,-1.292,-1.2724,-1.2562,-1.2614,-1.2544,-1.2356,-1.2163,-1.21,-1.1678,-1.1251,-1.0922,-1.0675,-1.0522,-1.0522,-1.0522,-1.0522,-1.0522,-1.047,-1.0257,-0.942,-0.8942,-0.8573,-3.5424,-3.5364,-3.5268,-3.5132,-3.4986,-3.4823,-3.4678,-3.4453,-3.3354,-3.2596,-3.2123,-3.2633,-3.2519,-3.1877,-3.1768,-3.1195,-3.0355,-3.0216,-2.9757,0.0,-2.8934,-2.8839,-2.8839,-2.8687,-2.8605,-2.8562,-2.845,-2.8398,-2.8327,-2.8002,-2.7419,-2.6568,-2.5684,-2.4524,-2.3225,-2.3119,-2.3095,-2.3052,-2.2868,-2.2571,-2.2181,-2.2124,-2.1532,-2.0378,-2.0303,-1.9854,-1.8872,-1.8015,-1.7518,-1.7397,-1.6707,-1.607,-1.5501,-1.5377,-1.4634,-1.332,-1.398,-1.4328,-1.407,-1.4898,-1.5641,-1.6014,-1.6642,-1.667,-1.5942,-1.6298,-1.6523,-1.6441,-1.6809,-1.6902,-1.6298,-1.6232,-1.612,-1.5824,-1.5603,-1.5468,-1.5424,-1.5244,-1.5119,-1.5153,-1.5062,-1.5017,-1.5017,-1.4834,-1.4662,-1.4662,-1.4523,-1.428,-1.3831,-1.325,-1.2733,-1.2382,-1.225,-1.2214,-1.2264,-1.2168,-1.2236,-1.2149,-1.2131,-1.2045,-1.1885,-1.1589,-1.1226,-1.0972,-1.0675,-1.0522,-1.0522,-1.0522,-1.0522,-1.0522,-1.0522,-1.0205,-0.942,-0.9159,-0.8784,-3.5538,-3.5457,-3.5407,-3.5369,-3.5289,-3.5162,-3.5075,-3.4944,-3.432,-3.3884,-3.3657,-3.3882,-3.3559,-3.286,-3.2636,-3.1837,-3.0605,-3.0472,-2.9921,-2.9123,-2.9034,-2.8962,-2.8905,-2.881,-2.8712,-2.8587,-2.8554,-2.8476,-2.8398,-2.8273,-2.7745,-2.6764,-2.5464,-2.4436,-2.3769,-2.3312,-2.3119,-2.3119,-2.302,-2.2825,-2.2544,-2.2381,-2.1961,-2.1296,-2.0788,-2.0283,-1.9841,-1.8974,-1.8463,-1.841,-1.7963,-1.7574,-1.7302,-1.7247,-1.6827,-1.6003,-1.6285,-1.6338,-1.6018,-1.6618,-1.7022,-1.7162,-1.7543,-1.7639,-1.7249,-1.739,-1.7435,-1.7263,-1.7383,-1.7269,-1.6934,-1.6723,-1.6466,-1.612,-1.5976,-1.5856,-1.5691,-1.557,-1.5468,-1.548,-1.5379,-1.5322,-1.5334,-1.5062,-1.4937,-1.4891,-1.4697,-1.4373,-1.3905,-1.3536,-1.3055,-1.2569,-1.2431,-1.2332,-1.2126,-1.2076,-1.2076,-1.2076,-1.2076,-1.2017,-1.1868,-1.1578,-1.1276,-1.1124,-1.0769,-1.0522,-1.0522,-1.0522,-1.0522,-1.0522,-1.0522,-1.0205,-0.9673,-0.9204,-0.8633,-3.5648,-3.5519,-3.5483,-3.5455,-3.5398,-3.5226,-3.5162,-3.511,-3.5001,-3.4982,-3.4964,-3.4869,-3.4432,-3.3846,-3.3585,-3.2673,-3.1341,-3.0934,-3.0327,-2.9548,-2.9283,-2.9101,-2.9007,-2.898,-2.8839,-2.8687,-2.8681,-2.8569,-2.8458,-2.8424,-2.7853,-2.6756,-2.5341,-2.4505,-2.4286,-2.3506,-2.3119,-2.3119,-2.3119,-2.3003,-2.2816,-2.2623,-2.2354,-2.2062,-2.123,-2.0776,-2.0701,-1.9816,-1.927,-1.9212,-1.8876,-1.8724,-1.8724,-1.8724,-1.8619,-1.8408,-1.8207,-1.8,-1.7855,-1.8069,-1.8129,-1.8033,-1.8208,-1.8307,-1.8202,-1.8043,-1.7963,-1.7882,-1.7652,-1.7488,-1.7352,-1.7157,-1.6863,-1.6497,-1.6367,-1.6194,-1.5957,-1.5824,-1.5792,-1.5792,-1.5659,-1.5546,-1.5513,-1.5334,-1.5153,-1.5062,-1.488,-1.4512,-1.4104,-1.3952,-1.3621,-1.3045,-1.2764,-1.2529,-1.2175,-1.2076,-1.2076,-1.2076,-1.2076,-1.2076,-1.2017,-1.1669,-1.1377,-1.1276,-1.0922,-1.0616,-1.0522,-1.0522,-1.0522,-1.0522,-1.0522,-1.0352,-0.9873,-0.9256,-0.8573,-3.5766,-3.5678,-3.5706,-3.5546,-3.5393,-3.5383,-3.5289,-3.5193,-3.5157,-3.5157,-3.5141,-3.4963,-3.4851,-3.4775,-3.4658,-3.4031,-3.3088,-3.2311,-3.1463,-3.0637,-2.9788,-2.9353,-2.9312,-2.9166,-2.9012,-2.8887,-2.8881,-2.8761,-2.8587,-2.8458,-2.7853,-2.6827,-2.595,-2.5137,-2.4321,-2.3523,-2.3119,-2.3119,-2.3119,-2.3003,-2.2816,-2.2605,-2.2371,-2.2096,-2.1832,-2.1609,-2.1439,-2.0668,-2.0084,-1.9855,-1.9162,-1.874,-1.874,-1.874,-1.8635,-1.8485,-1.8392,-1.8406,-1.8534,-1.9034,-1.9119,-1.8774,-1.8688,-1.8567,-1.8268,-1.8202,-1.8083,-1.7963,-1.7868,-1.7706,-1.7447,-1.7365,-1.7199,-1.6863,-1.6539,-1.6269,-1.6194,-1.6001,-1.5792,-1.5792,-1.5748,-1.5748,-1.5748,-1.5558,-1.5367,-1.5119,-1.4926,-1.4708,-1.4523,-1.4373,-1.3988,-1.3314,-1.29,-1.2578,-1.2224,-1.2076,-1.2076,-1.2076,-1.2076,-1.2076,-1.2026,-1.1868,-1.1628,-1.1326,-1.1074,-1.0769,-1.0573,-1.0522,-1.0522,-1.0522,-1.0462,-1.0352,-0.9925,-0.9465,-0.8896,-3.7025,-3.6532,-3.6444,-3.6049,-3.5489,-3.5422,-3.5383,-3.5324,-3.5261,-3.519,-3.5193,-3.5107,-3.5054,-3.5001,-3.4889,-3.4357,-3.3468,-3.2599,-3.175,-3.0846,-2.9982,-2.9511,-2.9373,-2.9332,-2.9188,-2.9012,-2.8934,-2.8858,-2.8761,-2.8528,-2.8165,-2.7629,-2.6392,-2.5472,-2.5014,-2.3766,-2.3119,-2.3119,-2.3119,-2.307,-2.297,-2.279,-2.2561,-2.2343,-2.2113,-2.1882,-2.1691,-2.1308,-2.098,-2.0763,-2.0351,-2.0067,-1.9941,-1.9941,-1.9909,-1.9814,-1.9685,-1.9531,-1.9426,-1.9468,-1.942,-1.9236,-1.8959,-1.8721,-1.8567,-1.8347,-1.8163,-1.8069,-1.7963,-1.7842,-1.7706,-1.7706,-1.757,-1.724,-1.685,-1.6539,-1.6312,-1.5988,-1.5792,-1.5792,-1.5792,-1.5792,-1.5792,-1.5748,-1.5513,-1.5198,-1.4971,-1.4834,-1.4605,-1.4419,-1.4046,-1.3409,-1.3074,-1.2745,-1.2215,-1.2076,-1.2076,-1.2076,-1.2076,-1.2076,-1.2076,-1.1868,-1.1619,-1.1368,-1.1116,-1.082,-1.0522,-1.0522,-1.0522,-1.0522,-1.047,-1.036,-0.9873,-0.9666,-0.9197,-3.7877,-3.7111,-3.6755,-3.62,-3.557,-3.5496,-3.5449,-3.5379,-3.5289,-3.5223,-3.519,-3.519,-3.5176,-3.5108,-3.502,-3.4548,-3.3809,-3.3015,-3.2109,-3.1222,-3.0396,-2.9832,-2.951,-2.9491,-2.9373,-2.9209,-2.9097,-2.898,-2.8887,-2.8669,-2.8484,-2.8182,-2.6861,-2.6055,-2.5755,-2.4292,-2.3443,-2.3418,-2.3242,-2.3119,-2.3077,-2.297,-2.2773,-2.2579,-2.2254,-2.201,-2.1899,-2.1694,-2.1528,-2.1371,-2.1199,-2.1038,-2.0893,-2.0827,-2.081,-2.081,-2.0628,-2.0376,-2.0131,-1.9889,-1.966,-1.9493,-1.9147,-1.8936,-1.8784,-1.8542,-1.8347,-1.8268,-1.8149,-1.8043,-1.7922,-1.7922,-1.7788,-1.7529,-1.7157,-1.6778,-1.6497,-1.6088,-1.5792,-1.5792,-1.5792,-1.5792,-1.5792,-1.5792,-1.5659,-1.5289,-1.5153,-1.4971,-1.4605,-1.4419,-1.414,-1.3467,-1.3266,-1.288,-1.2264,-1.2076,-1.2076,-1.2076,-1.2076,-1.2076,-1.2076,-1.1868,-1.1619,-1.1418,-1.1124,-1.0871,-1.0573,-1.0522,-1.0522,-1.0522,-1.047,-1.0411,-1.0138,-0.9925,-0.951,-3.7877,-3.7061,-3.6198,-3.5863,-3.5716,-3.5667,-3.5577,-3.5412,-3.5379,-3.5339,-3.5209,-3.519,-3.519,-3.5193,-3.5108,-3.5001,-3.4699,-3.3809,-3.29,-3.2029,-3.1222,-3.0434,-2.972,-2.9683,-2.9588,-2.9412,-2.9351,-2.9203,-2.891,-2.8863,-2.8694,-2.8352,-2.7507,-2.6967,-2.6517,-2.5126,-2.4367,-2.4136,-2.3453,-2.3119,-2.3119,-2.3095,-2.2995,-2.2764,-2.2364,-2.2124,-2.2039,-2.1768,-2.1589,-2.1589,-2.1294,-2.1087,-2.1055,-2.0893,-2.081,-2.081,-2.081,-2.0662,-2.0444,-2.0308,-2.0085,-1.9588,-1.9457,-1.9258,-1.886,-1.8745,-1.8644,-1.8503,-1.8425,-1.8282,-1.8003,-1.7963,-1.7922,-1.7788,-1.7295,-1.696,-1.6876,-1.6219,-1.5881,-1.5792,-1.5792,-1.5792,-1.5792,-1.5792,-1.5691,-1.5468,-1.5244,-1.5017,-1.4743,-1.4558,-1.4233,-1.3858,-1.342,-1.2929,-1.2264,-1.2076,-1.2076,-1.2076,-1.2076,-1.2076,-1.2076,-1.2026,-1.1728,-1.1469,-1.1267,-1.0964,-1.0667,-1.0522,-1.0522,-1.0522,-1.0522,-1.0411,-1.0308,-1.0035,-0.9614,-3.9528,-3.8635,-3.7217,-3.6617,-3.6532,-3.596,-3.5604,-3.547,-3.5441,-3.532,-3.5226,-3.519,-3.519,-3.519,-3.5176,-3.5073,-3.4832,-3.3999,-3.3355,-3.2876,-3.2067,-3.1241,-3.0527,-3.0471,-3.0152,-2.9625,-2.9453,-2.927,-2.9056,-2.9016,-2.8938,-2.8615,-2.7828,-2.7283,-2.6788,-2.5369,-2.4488,-2.4343,-2.3538,-2.3119,-2.3119,-2.3119,-2.3052,-2.2995,-2.2703,-2.2392,-2.2124,-2.1998,-2.1811,-2.162,-2.1481,-2.1325,-2.1103,-2.0893,-2.081,-2.081,-2.081,-2.0761,-2.0628,-2.0323,-2.0061,-1.9833,-1.942,-1.9199,-1.9011,-1.886,-1.876,-1.8697,-1.8556,-1.8439,-1.8321,-1.8163,-1.8043,-1.7882,-1.7488,-1.7115,-1.6863,-1.6423,-1.6032,-1.5869,-1.5792,-1.5792,-1.5792,-1.5792,-1.5703,-1.5558,-1.5424,-1.5244,-1.4971,-1.4743,-1.4466,-1.4129,-1.38,-1.3324,-1.2569,-1.2224,-1.2135,-1.2076,-1.2076,-1.2076,-1.2076,-1.1927,-1.1678,-1.1477,-1.1267,-1.0964,-1.0624,-1.0522,-1.0522,-1.0522,-1.0522,-1.0522,-1.0522,-1.0035,-0.9673,-4.0189,-3.947,-3.7819,-3.712,-3.6995,-3.6134,-3.5678,-3.5562,-3.5509,-3.5422,-3.5289,-3.5273,-3.5242,-3.519,-3.519,-3.5126,-3.4907,-3.4339,-3.3847,-3.3362,-3.278,-3.1936,-3.1034,-3.0902,-3.049,-2.9777,-2.9588,-2.9394,-2.9209,-2.9148,-2.9034,-2.8832,-2.8184,-2.7761,-2.7309,-2.5843,-2.4935,-2.4701,-2.3721,-2.3119,-2.3119,-2.3119,-2.3119,-2.3095,-2.297,-2.2694,-2.2254,-2.2068,-2.1911,-2.1694,-2.1634,-2.145,-2.1119,-2.0958,-2.086,-2.0827,-2.081,-2.081,-2.0761,-2.046,-2.02,-2.0005,-1.9617,-1.9325,-1.9139,-1.8988,-1.8912,-1.8874,-1.8812,-1.8673,-1.8581,-1.845,-1.8307,-1.7989,-1.7666,-1.7323,-1.7073,-1.6582,-1.6194,-1.5869,-1.5792,-1.5792,-1.5792,-1.5792,-1.5691,-1.5513,-1.5513,-1.5379,-1.5153,-1.4971,-1.4743,-1.4408,-1.4129,-1.361,-1.2997,-1.2569,-1.2224,-1.2175,-1.2076,-1.2076,-1.2026,-1.1877,-1.1728,-1.1477,-1.1175,-1.0871,-1.0667,-1.0522,-1.0522,-1.0522,-1.0522,-1.0522,-1.0308,-0.9932,-0.9569,-3.9742,-3.947,-3.7838,-3.7159,-3.6984,-3.616,-3.5756,-3.5688,-3.5697,-3.5565,-3.5388,-3.5379,-3.532,-3.5223,-3.519,-3.516,-3.5056,-3.4869,-3.4338,-3.3571,-3.3438,-3.2574,-3.1203,-3.1052,-3.0546,-2.9739,-2.9701,-2.9607,-2.9412,-2.9251,-2.906,-2.891,-2.8707,-2.8449,-2.837,-2.6742,-2.5811,-2.5346,-2.4045,-2.319,-2.3119,-2.3119,-2.3119,-2.3119,-2.3052,-2.2893,-2.2497,-2.2089,-2.184,-2.1797,-2.1694,-2.145,-2.1167,-2.1103,-2.1006,-2.0827,-2.081,-2.081,-2.0794,-2.0728,-2.046,-2.0131,-1.999,-1.9705,-1.925,-1.9139,-1.9101,-1.9049,-1.9064,-1.8988,-1.8836,-1.8745,-1.8567,-1.8228,-1.7774,-1.7475,-1.7269,-1.6752,-1.6151,-1.5869,-1.5792,-1.5792,-1.5792,-1.5792,-1.5748,-1.5603,-1.5513,-1.5468,-1.5244,-1.5108,-1.4971,-1.4743,-1.4373,-1.3905,-1.3372,-1.29,-1.2569,-1.2224,-1.2126,-1.2076,-1.2076,-1.1977,-1.1828,-1.1569,-1.1267,-1.0972,-1.0718,-1.0573,-1.0522,-1.0522,-1.0522,-1.047,-1.0308,-0.9991,-0.9569,-4.0208,-3.9606,-3.8499,-3.7644,-3.7042,-3.6168,-3.5756,-3.5707,-3.5707,-3.5623,-3.5464,-3.5422,-3.5364,-3.532,-3.5223,-3.516,-3.5092,-3.5038,-3.4794,-3.441,-3.4269,-3.3644,-3.2668,-3.2011,-3.1016,-2.9889,-2.9701,-2.9664,-2.9589,-2.9531,-2.9353,-2.9079,-2.8989,-2.8797,-2.8482,-2.7305,-2.6425,-2.5732,-2.4582,-2.3681,-2.319,-2.3119,-2.3119,-2.3095,-2.297,-2.2799,-2.2729,-2.2443,-2.2118,-2.1827,-2.1768,-2.1587,-2.1277,-2.1167,-2.099,-2.0843,-2.081,-2.081,-2.0761,-2.0613,-2.0478,-2.0273,-2.0096,-1.9797,-1.9457,-1.9384,-1.9273,-1.9139,-1.9116,-1.9064,-1.8974,-1.886,-1.8644,-1.8242,-1.8029,-1.7788,-1.7393,-1.674,-1.6194,-1.5869,-1.5792,-1.5792,-1.5792,-1.5792,-1.5792,-1.5691,-1.5703,-1.5659,-1.557,-1.5289,-1.5108,-1.4971,-1.4558,-1.414,-1.3658,-1.3238,-1.291,-1.2471,-1.2224,-1.2076,-1.2076,-1.2036,-1.1877,-1.1669,-1.1318,-1.1015,-1.082,-1.0616,-1.0522,-1.0522,-1.0522,-1.047,-1.0411,-1.0095,-0.9621,-4.0597,-4.0033,-3.8868,-3.8305,-3.7877,-3.6498,-3.5968,-3.6144,-3.5863,-3.5669,-3.5581,-3.554,-3.5463,-3.5379,-3.5304,-3.5226,-3.5126,-3.511,-3.5039,-3.4907,-3.4747,-3.4212,-3.3362,-3.2499,-3.1447,-3.0377,-3.0152,-2.9983,-2.9701,-2.9626,-2.9471,-2.9251,-2.9148,-2.8989,-2.8646,-2.7723,-2.6788,-2.5953,-2.4921,-2.3992,-2.3327,-2.3126,-2.3119,-2.3095,-2.297,-2.2868,-2.2816,-2.2668,-2.2398,-2.1986,-2.1857,-2.1678,-2.1419,-2.1325,-2.1151,-2.0958,-2.0893,-2.0893,-2.0794,-2.0646,-2.0494,-2.0376,-2.0166,-1.9919,-1.969,-1.953,-1.9273,-1.9273,-1.9161,-1.9116,-1.9064,-1.8974,-1.8707,-1.8347,-1.8242,-1.7949,-1.7434,-1.6879,-1.6423,-1.6088,-1.5869,-1.5836,-1.5792,-1.5792,-1.5792,-1.5792,-1.5792,-1.5792,-1.5748,-1.548,-1.5289,-1.5062,-1.4743,-1.4326,-1.3858,-1.3525,-1.3248,-1.2764,-1.2332,-1.2175,-1.2076,-1.2026,-1.1927,-1.1678,-1.1418,-1.1116,-1.0871,-1.0616,-1.0522,-1.0522,-1.0522,-1.047,-1.0411,-1.0087,-0.9718,-4.0869,-4.0635,-3.914,-3.8829,-3.8965,-3.6887,-3.6276,-3.6723,-3.614,-3.5756,-3.5698,-3.5678,-3.5608,-3.5449,-3.5407,-3.5315,-3.5226,-3.5179,-3.511,-3.5039,-3.4851,-3.4315,-3.3402,-3.2668,-3.1842,-3.1091,-3.0884,-3.0471,-2.9927,-2.9625,-2.9394,-2.9353,-2.9209,-2.9038,-2.8782,-2.7989,-2.7193,-2.6297,-2.5194,-2.4264,-2.3483,-2.3186,-2.3119,-2.3119,-2.3077,-2.302,-2.285,-2.279,-2.2571,-2.2153,-2.1899,-2.1738,-2.162,-2.1589,-2.1419,-2.1119,-2.1087,-2.099,-2.086,-2.0827,-2.0695,-2.0478,-2.027,-2.0005,-1.9919,-1.9581,-1.931,-1.9384,-1.9199,-1.9116,-1.9116,-1.9064,-1.8889,-1.8556,-1.8282,-1.7949,-1.7475,-1.7073,-1.6693,-1.6293,-1.6032,-1.5792,-1.5792,-1.5792,-1.5792,-1.5792,-1.5792,-1.5792,-1.5748,-1.557,-1.5379,-1.5108,-1.4789,-1.4466,-1.3999,-1.3563,-1.3286,-1.2997,-1.2471,-1.2175,-1.2076,-1.2026,-1.2026,-1.1778,-1.1477,-1.1226,-1.0972,-1.0718,-1.0573,-1.0522,-1.0522,-1.0522,-1.036,-1.0138,-0.9925,-4.0585,-3.9975,-3.9528,-3.8751,-3.78,-3.6964,-3.6479,-3.6148,-3.5954,-3.5801,-3.5756,-3.5708,-3.5687,-3.5612,-3.5521,-3.543,-3.5364,-3.532,-3.5229,-3.5129,-3.5057,-3.4396,-3.3573,-3.3193,-3.2611,-3.1823,-3.1221,-3.0771,-3.0546,-2.9889,-2.9531,-2.9394,-2.9353,-2.923,-2.8986,-2.8686,-2.8054,-2.712,-2.6093,-2.5069,-2.4193,-2.3481,-2.3119,-2.3119,-2.3119,-2.307,-2.3003,-2.2868,-2.2571,-2.2124,-2.1911,-2.1738,-2.1634,-2.162,-2.1528,-2.1294,-2.1246,-2.1183,-2.1071,-2.1006,-2.0893,-2.0712,-2.0561,-2.0426,-2.0041,-1.9848,-1.9581,-1.9362,-1.9139,-1.9101,-1.9101,-1.9101,-1.895,-1.8721,-1.8307,-1.7882,-1.7502,-1.7128,-1.6735,-1.6367,-1.6044,-1.5881,-1.5836,-1.5792,-1.5792,-1.5792,-1.5792,-1.5792,-1.5748,-1.5513,-1.5289,-1.5062,-1.4789,-1.4512,-1.414,-1.3658,-1.3266,-1.3074,-1.2647,-1.2126,-1.2076,-1.2076,-1.2076,-1.1977,-1.1528,-1.1226,-1.1023,-1.0871,-1.0718,-1.0522,-1.0522,-1.0522,-1.0522,-1.036,-1.0138,-4.068,-4.0169,-3.9839,-3.912,-3.813,-3.743,-3.6809,-3.6323,-3.5935,-3.5791,-3.5782,-3.5775,-3.5718,-3.5688,-3.5615,-3.5526,-3.5457,-3.5443,-3.536,-3.5245,-3.5127,-3.4661,-3.4126,-3.3949,-3.3456,-3.263,-3.1804,-3.1241,-3.0809,-3.0096,-2.9664,-2.955,-2.9531,-2.9414,-2.923,-2.9129,-2.8651,-2.7761,-2.6977,-2.6062,-2.473,-2.4141,-2.3541,-2.3256,-2.3119,-2.3119,-2.3052,-2.2919,-2.2571,-2.2181,-2.1998,-2.1869,-2.1708,-2.1694,-2.1603,-2.145,-2.134,-2.1214,-2.1119,-2.1023,-2.0941,-2.0794,-2.0728,-2.0561,-2.0339,-2.0166,-1.9777,-1.9581,-1.9347,-1.9199,-1.9087,-1.9011,-1.895,-1.8745,-1.8425,-1.8029,-1.7733,-1.7365,-1.7018,-1.6723,-1.6337,-1.5988,-1.5988,-1.5913,-1.5836,-1.5792,-1.5792,-1.5792,-1.5748,-1.5468,-1.5244,-1.5108,-1.488,-1.4605,-1.4326,-1.3847,-1.3266,-1.3025,-1.2598,-1.2126,-1.2076,-1.2076,-1.2076,-1.1977,-1.1578,-1.1226,-1.1074,-1.0871,-1.0616,-1.0522,-1.0522,-1.0522,-1.0522,-1.0522,-1.03,-4.0894,-4.0713,-4.0014,-3.9587,-3.9062,-3.7761,-3.6964,-3.677,-3.611,-3.5791,-3.5791,-3.5791,-3.5756,-3.5718,-3.5689,-3.5637,-3.5538,-3.5526,-3.5464,-3.536,-3.5226,-3.4925,-3.4775,-3.4557,-3.4156,-3.3419,-3.2593,-3.1767,-3.1053,-3.0227,-2.9739,-2.9664,-2.9664,-2.9589,-2.9453,-2.9433,-2.8961,-2.8313,-2.7794,-2.6753,-2.538,-2.4769,-2.413,-2.3329,-2.3168,-2.3144,-2.307,-2.2902,-2.2651,-2.2209,-2.2153,-2.2056,-2.1869,-2.184,-2.1768,-2.1634,-2.1464,-2.1356,-2.1167,-2.1038,-2.086,-2.0827,-2.0628,-2.0527,-2.0561,-2.0304,-2.0025,-1.9884,-1.9726,-1.9457,-1.9213,-1.8974,-1.8898,-1.8822,-1.8659,-1.8425,-1.8189,-1.7774,-1.7434,-1.7352,-1.6752,-1.6355,-1.6238,-1.6032,-1.5792,-1.5792,-1.5792,-1.5792,-1.5748,-1.5558,-1.5424,-1.5379,-1.5108,-1.4697,-1.4419,-1.4093,-1.3467,-1.2977,-1.251,-1.2126,-1.2076,-1.2076,-1.2076,-1.1877,-1.1528,-1.1276,-1.1124,-1.0871,-1.0573,-1.0522,-1.0522,-1.0522,-1.0522,-1.0522,-1.036,-4.0607,-3.9936,-3.9761,-3.8907,-3.7722,-3.7236,-3.6712,-3.609,-3.5888,-3.5791,-3.5791,-3.5791,-3.5782,-3.5773,-3.5765,-3.5737,-3.5667,-3.5637,-3.5593,-3.5445,-3.5262,-3.5168,-3.5051,-3.4889,-3.4614,-3.4005,-3.278,-3.2029,-3.1523,-3.0452,-2.9701,-2.9701,-2.9701,-2.9664,-2.9626,-2.9589,-2.9474,-2.8998,-2.831,-2.7288,-2.6085,-2.5185,-2.4384,-2.349,-2.3307,-2.3217,-2.3119,-2.3052,-2.2902,-2.2694,-2.2525,-2.2326,-2.2096,-2.201,-2.194,-2.1797,-2.1708,-2.1634,-2.1481,-2.1294,-2.1151,-2.1038,-2.0827,-2.0662,-2.0478,-2.0426,-2.0235,-2.0061,-1.9919,-1.9747,-1.942,-1.9176,-1.9049,-1.8988,-1.8836,-1.8659,-1.8425,-1.7962,-1.7639,-1.731,-1.6837,-1.6312,-1.6312,-1.6032,-1.5869,-1.5836,-1.5792,-1.5792,-1.5748,-1.5614,-1.5614,-1.5558,-1.5153,-1.48,-1.4558,-1.4093,-1.3372,-1.2842,-1.2421,-1.2135,-1.2076,-1.2076,-1.2026,-1.1828,-1.1528,-1.1276,-1.1124,-1.082,-1.0522,-1.0522,-1.0522,-1.0522,-1.0522,-1.0522,-1.0411,-4.0727,-4.0282,-3.9868,-3.8946,-3.7761,-3.7275,-3.6595,-3.5907,-3.5791,-3.5791,-3.5791,-3.5791,-3.5791,-3.5791,-3.5791,-3.5773,-3.5737,-3.5718,-3.5667,-3.5562,-3.5418,-3.5316,-3.5262,-3.5086,-3.487,-3.4488,-3.2994,-3.2259,-3.177,-3.0659,-2.9701,-2.9701,-2.9701,-2.9701,-2.9701,-2.9701,-2.9645,-2.9475,-2.9003,-2.8024,-2.6636,-2.5947,-2.4779,-2.3772,-2.3378,-2.3265,-2.3217,-2.3144,-2.3028,-2.2927,-2.2842,-2.2615,-2.2326,-2.2169,-2.2039,-2.1969,-2.1768,-2.1678,-2.1573,-2.1419,-2.1246,-2.1199,-2.1023,-2.0893,-2.0712,-2.0646,-2.046,-2.0254,-2.015,-2.003,-1.9566,-1.942,-1.9273,-1.9101,-1.9026,-1.8874,-1.862,-1.8214,-1.7855,-1.7611,-1.7186,-1.685,-1.6595,-1.6207,-1.5913,-1.5881,-1.5792,-1.5792,-1.5792,-1.5703,-1.5703,-1.557,-1.521,-1.4891,-1.4651,-1.4082,-1.318,-1.2706,-1.2372,-1.2175,-1.2076,-1.2026,-1.2017,-1.1719,-1.1427,-1.1226,-1.0964,-1.0718,-1.0522,-1.0522,-1.0522,-1.0522,-1.0411,-1.0308,-1.0198,-4.093,-4.0738,-3.9863,-3.9002,-3.8147,-3.7272,-3.6468,-3.5868,-3.5791,-3.5791,-3.5791,-3.5791,-3.5791,-3.5791,-3.5791,-3.5791,-3.5801,-3.5747,-3.5708,-3.5669,-3.5593,-3.5495,-3.5418,-3.5307,-3.5146,-3.4791,-3.3166,-3.2392,-3.1827,-3.0659,-2.9757,-2.9701,-2.9701,-2.9701,-2.9701,-2.9701,-2.9683,-2.9608,-2.9251,-2.8427,-2.6989,-2.6405,-2.5272,-2.3965,-2.3448,-2.3336,-2.3265,-2.3193,-2.3077,-2.3119,-2.3119,-2.2919,-2.2642,-2.2354,-2.2198,-2.2169,-2.1915,-2.1768,-2.1708,-2.1495,-2.1356,-2.1356,-2.1167,-2.1087,-2.1023,-2.086,-2.0695,-2.0512,-2.0376,-2.017,-1.9675,-1.9493,-1.9347,-1.9176,-1.9116,-1.9026,-1.8798,-1.8503,-1.8228,-1.7909,-1.7488,-1.7102,-1.6808,-1.6466,-1.6175,-1.5869,-1.5836,-1.5792,-1.5792,-1.5792,-1.5748,-1.5614,-1.53,-1.4651,-1.4419,-1.4025,-1.3132,-1.2764,-1.2382,-1.2224,-1.2126,-1.2076,-1.1968,-1.1669,-1.1368,-1.1167,-1.0913,-1.0667,-1.0514,-1.0522,-1.0522,-1.0522,-1.036,-1.0146,-1.0035,-4.0616,-3.9848,-3.9032,-3.8176,-3.7272,-3.6455,-3.6005,-3.5818,-3.5799,-3.5799,-3.5799,-3.5799,-3.5799,-3.5799,-3.5799,-3.5791,-3.5791,-3.5773,-3.5773,-3.5765,-3.5689,-3.5637,-3.5615,-3.5514,-3.5399,-3.4856,-3.3459,-3.2425,-3.1957,-3.0695,-2.9812,-2.9701,-2.9701,-2.9701,-2.9701,-2.9701,-2.9701,-2.9551,-2.9027,-2.8017,-2.7121,-2.6041,-2.5162,-2.3904,-2.3611,-2.343,-2.3271,-2.3193,-2.3119,-2.3119,-2.3119,-2.307,-2.2944,-2.2773,-2.2588,-2.2398,-2.2158,-2.194,-2.1911,-2.1708,-2.1573,-2.1497,-2.1294,-2.1119,-2.1055,-2.0925,-2.0794,-2.0695,-2.0512,-2.0273,-1.9955,-1.9726,-1.942,-1.9213,-1.9101,-1.9011,-1.886,-1.8683,-1.8528,-1.8214,-1.776,-1.731,-1.6976,-1.6637,-1.6262,-1.5957,-1.5836,-1.5792,-1.5792,-1.5792,-1.578,-1.5603,-1.5379,-1.4697,-1.4046,-1.3658,-1.3132,-1.2861,-1.2578,-1.2283,-1.2175,-1.2126,-1.1927,-1.1678,-1.1377,-1.1124,-1.0871,-1.0616,-1.0514,-1.0522,-1.0522,-1.0522,-1.036,-1.0249,-1.0249,-4.0543,-3.9683,-3.8818,-3.7951,-3.7079,-3.6261,-3.5879,-3.5859,-3.5859,-3.5859,-3.5859,-3.5859,-3.5852,-3.5857,-3.585,-3.5823,-3.5799,-3.5791,-3.5791,-3.5782,-3.5765,-3.5747,-3.5757,-3.5648,-3.5615,-3.5075,-3.3717,-3.2584,-3.2286,-3.0653,-2.9867,-2.9701,-2.9701,-2.9701,-2.9701,-2.9701,-2.9701,-2.9495,-2.8765,-2.7885,-2.6989,-2.569,-2.4578,-2.4124,-2.3747,-2.3544,-2.3407,-2.3289,-2.3168,-2.3119,-2.3119,-2.3119,-2.307,-2.302,-2.2868,-2.2659,-2.2337,-2.2096,-2.2068,-2.184,-2.1724,-2.1694,-2.1481,-2.1325,-2.1183,-2.1055,-2.0925,-2.0794,-2.0728,-2.0478,-2.022,-1.9904,-1.9639,-1.9332,-1.9161,-1.9064,-1.8974,-1.886,-1.8669,-1.8489,-1.8135,-1.7652,-1.7115,-1.6778,-1.6349,-1.6088,-1.5881,-1.5792,-1.5792,-1.5792,-1.578,-1.5558,-1.5334,-1.4834,-1.414,-1.3705,-1.3314,-1.3045,-1.2725,-1.2421,-1.2274,-1.2175,-1.1977,-1.1678,-1.1427,-1.1175,-1.0871,-1.0667,-1.0565,-1.0522,-1.0522,-1.047,-1.0411,-1.036,-1.0308,-4.0387,-3.9704,-3.8637,-3.7812,-3.7123,-3.627,-3.5894,-3.5889,-3.5889,-3.5883,-3.5889,-3.5889,-3.5891,-3.5892,-3.5898,-3.5877,-3.5799,-3.5791,-3.5791,-3.5791,-3.5791,-3.5791,-3.5773,-3.5747,-3.5708,-3.5427,-3.3873,-3.2904,-3.231,-3.0769,-2.9938,-2.9738,-2.9701,-2.9701,-2.9701,-2.9701,-2.9701,-2.9401,-2.865,-2.7731,-2.6499,-2.5224,-2.4284,-2.4171,-2.3935,-2.3725,-2.3611,-2.3435,-2.3295,-2.3175,-2.3119,-2.3119,-2.3119,-2.3119,-2.3028,-2.2807,-2.2473,-2.2281,-2.2141,-2.1982,-2.184,-2.1768,-2.1664,-2.1511,-2.134,-2.1183,-2.1006,-2.0876,-2.0794,-2.0628,-2.0289,-2.0096,-1.9797,-1.9457,-1.9213,-1.9101,-1.9064,-1.8974,-1.886,-1.863,-1.8425,-1.8016,-1.7434,-1.6905,-1.6522,-1.6175,-1.5913,-1.5792,-1.5792,-1.5792,-1.5748,-1.5468,-1.5198,-1.488,-1.4373,-1.3999,-1.361,-1.3276,-1.291,-1.252,-1.2372,-1.2224,-1.1977,-1.1778,-1.1578,-1.1377,-1.1023,-1.0718,-1.0667,-1.0573,-1.0522,-1.047,-1.0462,-1.0352,-1.0249,-3.9891,-3.9647,-3.8086,-3.7315,-3.7067,-3.6247,-3.589,-3.5914,-3.5894,-3.5889,-3.5894,-3.5894,-3.5894,-3.5897,-3.5892,-3.5857,-3.5807,-3.5791,-3.5791,-3.5791,-3.5791,-3.5791,-3.5791,-3.5791,-3.5696,-3.5377,-3.3906,-3.3045,-3.2267,-3.0829,-2.9994,-2.9825,-2.9738,-2.9701,-2.9701,-2.9701,-2.9701,-2.942,-2.8181,-2.666,-2.5314,-2.4713,-2.4498,-2.4374,-2.4173,-2.3939,-2.381,-2.3602,-2.3422,-2.3289,-2.3168,-2.3119,-2.3119,-2.3119,-2.3095,-2.3003,-2.285,-2.2642,-2.2426,-2.2169,-2.1953,-2.1857,-2.1694,-2.162,-2.1481,-2.1262,-2.1038,-2.0843,-2.081,-2.0644,-2.0304,-2.0076,-1.9705,-1.9472,-1.9236,-1.9176,-1.9101,-1.9049,-1.8936,-1.8745,-1.8528,-1.8175,-1.772,-1.7186,-1.6735,-1.6337,-1.6032,-1.5869,-1.5792,-1.5792,-1.5748,-1.5468,-1.5153,-1.48,-1.4616,-1.4186,-1.3858,-1.3515,-1.3084,-1.2666,-1.2471,-1.2323,-1.2175,-1.1927,-1.1728,-1.1477,-1.1124,-1.0871,-1.0718,-1.0616,-1.0522,-1.0522,-1.047,-1.036,-1.0198,-3.9067,-3.8951,-3.7758,-3.6952,-3.65,-3.6083,-3.5952,-3.5955,-3.5951,-3.5951,-3.5951,-3.597,-3.5942,-3.5904,-3.5885,-3.5891,-3.585,-3.5807,-3.5799,-3.5791,-3.5791,-3.5791,-3.5791,-3.5752,-3.5663,-3.4858,-3.3863,-3.2784,-3.1965,-3.0962,-3.006,-2.9874,-2.979,-2.9755,-2.9756,-2.972,-2.9701,-2.9232,-2.8068,-2.6397,-2.5126,-2.4578,-2.4512,-2.4495,-2.4321,-2.4135,-2.3937,-2.3816,-2.3558,-2.3365,-2.3241,-2.3168,-2.3119,-2.3119,-2.3095,-2.3095,-2.302,-2.2868,-2.2642,-2.2309,-2.2113,-2.1969,-2.1827,-2.1694,-2.1589,-2.1294,-2.1071,-2.1006,-2.086,-2.0662,-2.0475,-2.0323,-2.0115,-1.9854,-1.9457,-1.9347,-1.9236,-1.9087,-1.9011,-1.8798,-1.8606,-1.8293,-1.7895,-1.7282,-1.6778,-1.6423,-1.612,-1.5913,-1.5736,-1.5647,-1.5603,-1.5513,-1.5153,-1.48,-1.4662,-1.4373,-1.4046,-1.3705,-1.3314,-1.29,-1.2569,-1.2372,-1.2175,-1.2026,-1.1828,-1.1528,-1.1175,-1.0972,-1.0769,-1.0616,-1.0522,-1.0522,-1.0522,-1.047,-1.0249,-3.8185,-3.8096,-3.7223,-3.6506,-3.5996,-3.5976,-3.6013,-3.6007,-3.6001,-3.6001,-3.6018,-3.5994,-3.5962,-3.5903,-3.5889,-3.5885,-3.5878,-3.585,-3.5807,-3.5799,-3.5791,-3.5791,-3.5791,-3.5732,-3.5352,-3.4478,-3.374,-3.2792,-3.1795,-3.0821,-3.0155,-2.9937,-2.9857,-2.9825,-2.979,-2.9717,-2.9569,-2.8725,-2.7768,-2.6491,-2.5311,-2.4722,-2.4765,-2.4733,-2.4574,-2.4284,-2.4078,-2.3959,-2.3753,-2.3549,-2.3383,-2.3289,-2.3175,-2.3168,-2.3144,-2.3119,-2.307,-2.302,-2.2825,-2.2571,-2.2281,-2.2068,-2.1911,-2.1738,-2.1573,-2.1325,-2.1103,-2.1071,-2.0893,-2.0794,-2.0662,-2.0478,-2.0308,-2.003,-1.9732,-1.9624,-1.9442,-1.9236,-1.9011,-1.8836,-1.8606,-1.8439,-1.7949,-1.7337,-1.6863,-1.6509,-1.6207,-1.5913,-1.578,-1.5647,-1.5647,-1.5614,-1.5244,-1.4891,-1.4789,-1.4605,-1.428,-1.3847,-1.3467,-1.3084,-1.2715,-1.2372,-1.2126,-1.1977,-1.1877,-1.1628,-1.1276,-1.1023,-1.0812,-1.0616,-1.0522,-1.0522,-1.047,-1.047,-1.0257,-3.7292,-3.7219,-3.6356,-3.5981,-3.5913,-3.5987,-3.5993,-3.6015,-3.6015,-3.6013,-3.6012,-3.6003,-3.5952,-3.5912,-3.5884,-3.5894,-3.5885,-3.5898,-3.585,-3.5826,-3.5791,-3.5791,-3.5752,-3.5605,-3.5236,-3.4381,-3.3487,-3.2652,-3.1845,-3.0828,-3.0337,-3.0098,-2.9972,-2.9874,-2.9842,-2.9789,-2.9058,-2.8272,-2.7467,-2.6942,-2.5965,-2.5386,-2.5201,-2.5517,-2.5126,-2.4613,-2.4461,-2.4229,-2.3999,-2.3792,-2.3616,-2.343,-2.3336,-2.3265,-2.3217,-2.3168,-2.3119,-2.307,-2.2952,-2.2799,-2.2517,-2.2198,-2.1911,-2.1768,-2.1634,-2.1419,-2.1262,-2.1135,-2.0974,-2.0728,-2.0595,-2.041,-2.0376,-2.0204,-1.998,-1.9732,-1.9515,-1.9236,-1.9026,-1.8822,-1.8606,-1.8439,-1.8163,-1.7584,-1.7086,-1.6735,-1.625,-1.5913,-1.5836,-1.5748,-1.5748,-1.5659,-1.5334,-1.5062,-1.5017,-1.4743,-1.428,-1.3858,-1.3467,-1.3094,-1.2774,-1.2431,-1.2076,-1.1968,-1.1819,-1.1619,-1.1326,-1.1023,-1.0718,-1.0565,-1.0522,-1.0522,-1.0411,-1.036,-1.0095,-3.6902,-3.6376,-3.6041,-3.5884,-3.5884,-3.5932,-3.5964,-3.601,-3.6013,-3.6015,-3.6015,-3.6016,-3.5994,-3.5966,-3.5916,-3.5892,-3.5897,-3.5885,-3.5857,-3.5807,-3.5791,-3.5791,-3.5663,-3.5197,-3.4536,-3.3759,-3.2924,-3.2019,-3.1079,-3.0675,-3.0509,-3.0285,-3.0118,-3.0038,-2.9978,-2.9803,-2.9055,-2.838,-2.7879,-2.7524,-2.6848,-2.6472,-2.6172,-2.5888,-2.5812,-2.5094,-2.4623,-2.4426,-2.4173,-2.3978,-2.3792,-2.3638,-2.3453,-2.336,-2.3265,-2.3193,-2.3144,-2.3119,-2.307,-2.2902,-2.2615,-2.2198,-2.1911,-2.1768,-2.1678,-2.1481,-2.1371,-2.1246,-2.1038,-2.0794,-2.086,-2.0728,-2.0613,-2.041,-2.0189,-1.9945,-1.9675,-1.9347,-1.9064,-1.8874,-1.8659,-1.8439,-1.8163,-1.7828,-1.7365,-1.6905,-1.638,-1.5957,-1.5881,-1.5792,-1.5792,-1.5659,-1.5334,-1.5108,-1.5017,-1.4697,-1.428,-1.3905,-1.3515,-1.3142,-1.2813,-1.2382,-1.2076,-1.1977,-1.1769,-1.1477,-1.1175,-1.0871,-1.0667,-1.0522,-1.0522,-1.0522,-1.0411,-1.03,-1.0095,-3.6454,-3.5908,-3.5889,-3.5885,-3.5888,-3.5888,-3.5919,-3.5977,-3.5964,-3.5987,-3.601,-3.5992,-3.5994,-3.5976,-3.5972,-3.5916,-3.5895,-3.5878,-3.5852,-3.5815,-3.5791,-3.5791,-3.5507,-3.4964,-3.4187,-3.3254,-3.2411,-3.1573,-3.0773,-3.0632,-3.054,-3.043,-3.0304,-3.0207,-3.0064,-2.9851,-2.9393,-2.8719,-2.8404,-2.8182,-2.758,-2.7223,-2.6979,-2.6376,-2.6113,-2.5442,-2.4802,-2.4495,-2.4355,-2.4154,-2.3998,-2.3831,-2.3616,-2.3453,-2.3336,-2.3241,-2.3168,-2.3119,-2.307,-2.2902,-2.2642,-2.2298,-2.2027,-2.1899,-2.1751,-2.1556,-2.1481,-2.1511,-2.1151,-2.0925,-2.1087,-2.0893,-2.0761,-2.0595,-2.0376,-2.012,-1.9869,-1.9545,-1.925,-1.895,-1.8697,-1.8439,-1.8109,-1.7788,-1.7323,-1.6863,-1.6306,-1.5957,-1.5836,-1.5792,-1.5748,-1.5603,-1.5334,-1.5153,-1.4971,-1.4605,-1.428,-1.4093,-1.3705,-1.3228,-1.2842,-1.2412,-1.2026,-1.1877,-1.1628,-1.1377,-1.1074,-1.0769,-1.0616,-1.0522,-1.0522,-1.0522,-1.047,-1.0411,-1.0308,-3.5928,-3.5889,-3.5889,-3.5889,-3.5894,-3.5894,-3.5894,-3.5909,-3.5912,-3.5955,-3.5986,-3.5929,-3.593,-3.5973,-3.5976,-3.595,-3.5903,-3.5895,-3.5866,-3.5823,-3.5803,-3.5807,-3.5391,-3.475,-3.3798,-3.3196,-3.2264,-3.1343,-3.0703,-3.0637,-3.0604,-3.0567,-3.0451,-3.0321,-3.0169,-2.9937,-2.932,-2.8574,-2.8536,-2.8462,-2.8294,-2.7843,-2.7524,-2.6904,-2.6507,-2.5799,-2.4867,-2.4596,-2.4478,-2.4373,-2.4173,-2.3978,-2.3753,-2.3571,-2.3407,-2.3193,-2.3144,-2.3119,-2.3095,-2.2902,-2.2721,-2.248,-2.2243,-2.2073,-2.184,-2.1678,-2.1603,-2.1634,-2.1294,-2.1103,-2.1023,-2.0925,-2.086,-2.0728,-2.0512,-2.0273,-2.001,-1.9726,-1.9398,-1.9064,-1.8721,-1.8425,-1.8095,-1.7733,-1.724,-1.6735,-1.6175,-1.5925,-1.5836,-1.5792,-1.5748,-1.5614,-1.5379,-1.5153,-1.4926,-1.4605,-1.4326,-1.414,-1.3905,-1.342,-1.2929,-1.2501,-1.2166,-1.1819,-1.1477,-1.1175,-1.0922,-1.0667,-1.0573,-1.0522,-1.0522,-1.0522,-1.0522,-1.047,-1.036,-3.5889,-3.5889,-3.5889,-3.5889,-3.5889,-3.5889,-3.5889,-3.5889,-3.5885,-3.5899,-3.5908,-3.5888,-3.5903,-3.5935,-3.5847,-3.582,-3.5827,-3.589,-3.5868,-3.5801,-3.5736,-3.5359,-3.487,-3.4089,-3.3274,-3.2419,-3.1603,-3.1118,-3.071,-3.0661,-3.0661,-3.0626,-3.0576,-3.0441,-3.0285,-3.0099,-2.9772,-2.9479,-2.9375,-2.9286,-2.9232,-2.8857,-2.8237,-2.7261,-2.681,-2.6022,-2.482,-2.4645,-2.4594,-2.4512,-2.4302,-2.4135,-2.3937,-2.3786,-2.3544,-2.336,-2.3289,-2.3193,-2.3144,-2.302,-2.2919,-2.2694,-2.248,-2.2243,-2.201,-2.1869,-2.1797,-2.1648,-2.1371,-2.1246,-2.1199,-2.0925,-2.0827,-2.0794,-2.0613,-2.0392,-2.0131,-1.9833,-1.9493,-1.9161,-1.8836,-1.8542,-1.8189,-1.7855,-1.7365,-1.6905,-1.6392,-1.6001,-1.5881,-1.5836,-1.5792,-1.5614,-1.5435,-1.5198,-1.4926,-1.4605,-1.443,-1.428,-1.3999,-1.361,-1.3132,-1.2598,-1.2157,-1.1769,-1.1377,-1.1032,-1.0871,-1.0718,-1.0573,-1.0522,-1.0522,-1.0522,-1.0522,-1.0411,-1.0308,-3.5889,-3.5889,-3.5889,-3.5889,-3.5889,-3.5889,-3.5889,-3.585,-3.5616,-3.5616,-3.5733,-3.5349,-3.5203,-3.5264,-3.5162,-3.5003,-3.5038,-3.5331,-3.5074,-3.5125,-3.5295,-3.4767,-3.405,-3.3289,-3.2652,-3.1836,-3.1195,-3.069,-3.069,-3.069,-3.069,-3.0676,-3.0634,-3.0558,-3.0419,-3.0285,-3.0122,-2.9886,-2.9775,-2.9523,-2.9303,-2.8911,-2.8312,-2.7223,-2.651,-2.6059,-2.5102,-2.4673,-2.4657,-2.4545,-2.4426,-2.4284,-2.4114,-2.3915,-2.366,-2.3458,-2.3313,-2.3193,-2.3119,-2.3095,-2.3003,-2.2902,-2.2712,-2.248,-2.2281,-2.2175,-2.2044,-2.1823,-2.1462,-2.134,-2.1262,-2.099,-2.0827,-2.0827,-2.0728,-2.0494,-2.0254,-1.996,-1.9711,-1.9347,-1.9011,-1.8683,-1.8307,-1.7935,-1.7557,-1.706,-1.6595,-1.6293,-1.5957,-1.5913,-1.5792,-1.5614,-1.5435,-1.5153,-1.488,-1.4605,-1.4466,-1.443,-1.4046,-1.361,-1.317,-1.2589,-1.2206,-1.1769,-1.1519,-1.1226,-1.0922,-1.0718,-1.0573,-1.0522,-1.0522,-1.0522,-1.0522,-1.0411,-1.036,-3.5889,-3.5889,-3.5889,-3.5889,-3.5889,-3.5791,-3.5791,-3.5772,-3.4993,-3.5071,-3.5636,-3.4096,-3.4004,-3.436,-3.3824,-3.3593,-3.3701,-3.4295,-3.41,-3.3895,-3.429,-3.3836,-3.3278,-3.2512,-3.2065,-3.1676,-3.1183,-3.0704,-3.0697,-3.069,-3.069,-3.069,-3.0683,-3.0637,-3.0549,-3.0432,-3.017,-2.9912,-2.9688,-2.9238,-2.8726,-2.8401,-2.7578,-2.6658,-2.6113,-2.5646,-2.4989,-2.4673,-2.4673,-2.4626,-2.4545,-2.4355,-2.4173,-2.3998,-2.3685,-2.3389,-2.3217,-2.3144,-2.3119,-2.3119,-2.3095,-2.3028,-2.2919,-2.2712,-2.2552,-2.2415,-2.2243,-2.2027,-2.1705,-2.1509,-2.134,-2.1087,-2.086,-2.0827,-2.0827,-2.0628,-2.041,-2.017,-1.996,-1.9624,-1.9295,-1.8936,-1.845,-1.8055,-1.7814,-1.7516,-1.7102,-1.6723,-1.638,-1.6032,-1.5913,-1.5603,-1.5379,-1.5062,-1.4789,-1.4605,-1.4466,-1.443,-1.3894,-1.342,-1.3025,-1.2638,-1.2157,-1.1819,-1.1669,-1.1368,-1.0922,-1.0667,-1.0522,-1.0522,-1.0522,-1.0522,-1.0522,-1.0522,-1.0411,-3.5889,-3.5889,-3.5889,-3.5889,-3.5811,-3.5246,-3.4973,-3.4915,-3.4661,-3.4525,-3.4057,-3.3629,-3.3434,-3.3712,-3.3507,-3.3356,-3.3422,-3.3551,-3.3548,-3.3496,-3.3456,-3.3035,-3.2547,-3.2026,-3.1626,-3.1209,-3.084,-3.0691,-3.0697,-3.0697,-3.069,-3.069,-3.069,-3.0676,-3.0661,-3.0599,-3.0037,-2.9548,-2.9302,-2.867,-2.8006,-2.7673,-2.6836,-2.6204,-2.5888,-2.5402,-2.4914,-2.4692,-2.4673,-2.4657,-2.4561,-2.4425,-2.4391,-2.4173,-2.3852,-2.3499,-2.3313,-2.3199,-2.3126,-2.3119,-2.3119,-2.3119,-2.3045,-2.2919,-2.2764,-2.2605,-2.2426,-2.2141,-2.1866,-2.1661,-2.1433,-2.123,-2.1038,-2.0958,-2.0893,-2.0695,-2.0512,-2.0323,-2.0065,-1.9747,-1.9406,-1.9087,-1.8606,-1.8347,-1.8135,-1.7935,-1.7611,-1.7144,-1.6765,-1.6423,-1.5988,-1.5691,-1.5424,-1.5108,-1.488,-1.4697,-1.4512,-1.4326,-1.3847,-1.342,-1.3122,-1.2686,-1.2157,-1.1819,-1.1569,-1.1167,-1.0667,-1.0522,-1.0522,-1.0522,-1.0522,-1.0522,-1.0522,-1.0522,-1.047,-3.5872,-3.5833,-3.5883,-3.5713,-3.5265,-3.4486,-3.396,-3.3668,-3.3614,-3.3439,-3.3322,-3.2616,-3.2557,-3.2771,-3.2504,-3.2298,-3.2296,-3.2658,-3.2638,-3.2243,-3.2686,-3.2206,-3.1794,-3.1521,-3.1223,-3.0847,-3.0714,-3.071,-3.0711,-3.0697,-3.069,-3.069,-3.069,-3.069,-3.0683,-3.0579,-2.9862,-2.9236,-2.8681,-2.8109,-2.747,-2.6873,-2.6295,-2.5716,-2.5549,-2.5174,-2.4801,-2.4692,-2.4673,-2.4673,-2.4594,-2.4545,-2.4459,-2.4229,-2.4016,-2.3682,-2.3486,-2.3324,-2.3241,-2.3144,-2.3119,-2.3119,-2.3119,-2.3045,-2.297,-2.2825,-2.2588,-2.2326,-2.2027,-2.1781,-2.1556,-2.1325,-2.1199,-2.1087,-2.0925,-2.0728,-2.0595,-2.0426,-2.015,-1.9747,-1.9457,-1.9161,-1.8874,-1.8659,-1.8386,-1.8109,-1.7733,-1.7282,-1.6947,-1.665,-1.6219,-1.578,-1.5513,-1.5244,-1.5017,-1.4789,-1.4558,-1.4326,-1.3999,-1.3563,-1.3218,-1.2793,-1.2264,-1.1819,-1.1418,-1.1023,-1.0667,-1.0573,-1.0522,-1.0522,-1.0522,-1.0522,-1.0522,-1.0522,-1.047,-3.5762,-3.5574,-3.5684,-3.5148,-3.4447,-3.3653,-3.2893,-3.2133,-3.2129,-3.2421,-3.2694,-3.1544,-3.1369,-3.1817,-3.1486,-3.1174,-3.1358,-3.1744,-3.1724,-3.0886,-3.1666,-3.1569,-3.115,-3.0818,-3.0905,-3.0827,-3.0739,-3.0711,-3.0697,-3.0691,-3.069,-3.069,-3.0496,-3.0496,-3.0671,-3.0205,-2.9426,-2.8601,-2.8268,-2.7874,-2.6661,-2.6066,-2.5717,-2.4975,-2.4813,-2.4723,-2.4707,-2.4673,-2.4673,-2.4673,-2.4657,-2.461,-2.4442,-2.4302,-2.4097,-2.3917,-2.3671,-2.3513,-2.3365,-2.3247,-2.3168,-2.3144,-2.3119,-2.3095,-2.3045,-2.2944,-2.2694,-2.2535,-2.2271,-2.1998,-2.1781,-2.1479,-2.1293,-2.1151,-2.0958,-2.0827,-2.0695,-2.046,-2.0115,-1.9747,-1.942,-1.9161,-1.895,-1.8736,-1.8478,-1.8189,-1.7868,-1.7461,-1.7073,-1.682,-1.6392,-1.5913,-1.5603,-1.5334,-1.5062,-1.4834,-1.4605,-1.4326,-1.4046,-1.3658,-1.3266,-1.2842,-1.2421,-1.1877,-1.1326,-1.1124,-1.082,-1.0667,-1.0522,-1.0522,-1.0522,-1.0522,-1.0522,-1.0522,-1.0522,-3.5309,-3.475,-3.4211,-3.3843,-3.359,-3.2776,-3.2289,-3.2036,-3.1369,-3.1271,-3.133,-3.1052,-3.0896,-3.1076,-3.0979,-3.0799,-3.0916,-3.1076,-3.0979,-3.0862,-3.1157,-3.1194,-3.0833,-3.0793,-3.0801,-3.0792,-3.0774,-3.0743,-3.0709,-3.0691,-3.0671,-3.0613,-3.0263,-3.0049,-3.0457,-2.9738,-2.8605,-2.7964,-2.7646,-2.7125,-2.5938,-2.5499,-2.5187,-2.491,-2.4847,-2.4775,-2.4764,-2.4707,-2.4707,-2.4673,-2.4673,-2.461,-2.4512,-2.4425,-2.4284,-2.4078,-2.3899,-2.3732,-2.3535,-2.3365,-2.3241,-2.3193,-2.3151,-2.3102,-2.307,-2.2944,-2.2842,-2.2694,-2.2535,-2.2271,-2.1969,-2.1675,-2.1401,-2.1198,-2.099,-2.0893,-2.0843,-2.046,-2.0115,-1.9747,-1.942,-1.9213,-1.904,-1.8774,-1.8556,-1.8282,-1.8043,-1.7679,-1.717,-1.682,-1.6479,-1.6044,-1.5691,-1.5379,-1.5153,-1.4926,-1.4697,-1.4419,-1.4093,-1.3705,-1.3314,-1.2793,-1.2323,-1.1778,-1.1276,-1.1074,-1.082,-1.0624,-1.0522,-1.0522,-1.0522,-1.0522,-1.0522,-1.0522,-1.0522,-3.4438,-3.4177,-3.3149,-3.2726,-3.2594,-3.186,-3.1495,-3.1427,-3.0998,-3.0799,-3.0799,-3.0799,-3.0799,-3.0799,-3.0799,-3.0799,-3.0799,-3.0799,-3.0838,-3.0818,-3.0804,-3.0837,-3.079,-3.0788,-3.0786,-3.08,-3.079,-3.0778,-3.072,-3.0691,-3.0671,-3.0522,-2.9894,-2.9564,-2.9933,-2.8806,-2.7854,-2.7563,-2.7077,-2.6366,-2.5492,-2.532,-2.5194,-2.5061,-2.4956,-2.491,-2.4832,-2.4779,-2.4768,-2.4704,-2.4673,-2.4657,-2.461,-2.4578,-2.4495,-2.4302,-2.4097,-2.3899,-2.371,-2.3508,-2.3319,-2.3247,-2.3151,-2.3119,-2.3119,-2.302,-2.2919,-2.2773,-2.2738,-2.2508,-2.2141,-2.1807,-2.1524,-2.1309,-2.1119,-2.0974,-2.0876,-2.0662,-2.0254,-1.9919,-1.9617,-1.9398,-1.9101,-1.8697,-1.8478,-1.8282,-1.8043,-1.7801,-1.7337,-1.6947,-1.6565,-1.6175,-1.5856,-1.5468,-1.5153,-1.4971,-1.4777,-1.4512,-1.415,-1.3905,-1.3563,-1.2852,-1.2224,-1.1769,-1.1318,-1.1023,-1.082,-1.0573,-1.0522,-1.0522,-1.0522,-1.0522,-1.0522,-1.0522,-1.0522,-3.3342,-3.3558,-3.2232,-3.1709,-3.1722,-3.1053,-3.0773,-3.0813,-3.0799,-3.0799,-3.0799,-3.0799,-3.0799,-3.0799,-3.0799,-3.0799,-3.0799,-3.0799,-3.0799,-3.0799,-3.0799,-3.0789,-3.0798,-3.0794,-3.0791,-3.0793,-3.08,-3.076,-3.0735,-3.07,-3.0607,-3.0419,-2.9842,-2.9233,-2.8961,-2.8262,-2.7349,-2.7058,-2.6669,-2.6255,-2.5829,-2.5476,-2.533,-2.5196,-2.5133,-2.5034,-2.4975,-2.4888,-2.4832,-2.4764,-2.4723,-2.4673,-2.4673,-2.4657,-2.461,-2.4478,-2.4302,-2.4098,-2.3881,-2.3624,-2.344,-2.3295,-2.3193,-2.3144,-2.3144,-2.3095,-2.2995,-2.2919,-2.2868,-2.2668,-2.2309,-2.201,-2.1735,-2.1371,-2.1183,-2.099,-2.0893,-2.0761,-2.0392,-1.999,-1.9777,-1.9545,-1.9139,-1.8697,-1.8425,-1.8228,-1.7989,-1.7747,-1.7447,-1.7144,-1.6808,-1.6423,-1.6076,-1.568,-1.5198,-1.5017,-1.4869,-1.4558,-1.4291,-1.4093,-1.381,-1.3084,-1.2452,-1.1909,-1.151,-1.1167,-1.082,-1.0522,-1.0522,-1.0522,-1.0522,-1.0522,-1.0522,-1.0522,-1.0522,-3.2445,-3.2011,-3.111,-3.0831,-3.093,-3.0749,-3.0703,-3.0734,-3.0769,-3.0799,-3.0799,-3.0799,-3.0799,-3.0799,-3.0799,-3.0799,-3.0799,-3.0799,-3.0799,-3.0799,-3.0799,-3.0799,-3.0784,-3.0798,-3.079,-3.0784,-3.078,-3.076,-3.0526,-3.0533,-3.0278,-2.9635,-2.8767,-2.8288,-2.8087,-2.731,-2.6456,-2.6378,-2.6242,-2.5815,-2.577,-2.5538,-2.5449,-2.5346,-2.5274,-2.5177,-2.5069,-2.4949,-2.491,-2.4847,-2.4768,-2.4723,-2.4673,-2.4673,-2.4657,-2.461,-2.4442,-2.4338,-2.4098,-2.3858,-2.3664,-2.3576,-2.3481,-2.3307,-2.3289,-2.3217,-2.3144,-2.307,-2.297,-2.2816,-2.2517,-2.2292,-2.201,-2.1462,-2.1135,-2.099,-2.086,-2.0662,-2.0357,-2.0045,-1.9762,-1.9472,-1.9087,-1.876,-1.8503,-1.8307,-1.8083,-1.7828,-1.757,-1.731,-1.7047,-1.6667,-1.6281,-1.5756,-1.5232,-1.5108,-1.4926,-1.4651,-1.4384,-1.4186,-1.3894,-1.3314,-1.2725,-1.2089,-1.166,-1.1318,-1.0972,-1.0522,-1.0522,-1.0522,-1.0522,-1.0522,-1.0522,-1.047,-1.047]},{"header":{"parameterUnit":"m.s-1","parameterCategory":1,"la1":31.0,"la2":29.5877,"lo1":-88.7671,"lo2":-86.6584,"dy":0.0162,"dx":0.0185,"nx":115,"ny":88,"refTime":"2024-04-23T12:00:00:Z","depth":0,"parameterNumber":3,"parameterNumberName":"V-component_of_WINDS"},"data":[0.0,0.0,0.0,0.0,0.0,0.0,0.0,0.0,0.0,0.0,0.0,0.0,0.0,0.0,0.0,0.0,0.0,0.0,0.0,0.0,0.0,0.0,0.0,0.0,0.0,0.0,0.0,0.0,0.0,0.0,0.0,0.0,0.0,0.0,0.0,0.0,0.0,0.0,0.0,0.0,0.0,0.0,0.0,0.0,0.0,0.0,0.0,0.0,0.0,0.0,0.0,0.0,0.0,0.0,0.0,0.0,0.0,0.0,0.0,0.0,0.0,0.0,0.0,0.0,0.0,0.0,0.0,0.0,0.0,0.0,0.0,0.0,0.0,0.0,0.0,0.0,0.0,0.0,0.0,0.0,0.0,0.0,0.0,0.0,0.0,0.0,0.0,0.0,0.0,0.0,0.0,0.0,0.0,0.0,0.0,0.0,0.0,0.0,0.0,0.0,0.0,0.0,0.0,0.0,0.0,0.0,0.0,0.0,0.0,0.0,0.0,0.0,0.0,0.0,0.0,0.0,0.0,0.0,0.0,0.0,0.0,0.0,0.0,0.0,0.0,0.0,0.0,0.0,0.0,0.0,0.0,0.0,0.0,0.0,0.0,0.0,0.0,0.0,0.0,0.0,0.0,0.0,0.0,0.0,0.0,0.0,0.0,0.0,0.0,0.0,0.0,0.0,0.0,0.0,0.0,0.0,0.0,0.0,0.0,0.0,0.0,0.0,0.0,0.0,0.0,0.0,0.0,0.0,0.0,0.0,0.0,0.0,0.0,0.0,0.0,0.0,0.0,0.0,0.0,0.0,0.0,0.0,0.0,0.0,0.0,0.0,0.0,0.0,0.0,0.0,0.0,0.0,0.0,0.0,0.0,0.0,0.0,0.0,0.0,0.0,0.0,0.0,0.0,0.0,0.0,0.0,0.0,0.0,0.0,0.0,0.0,0.0,0.0,0.0,0.0,0.0,0.0,0.0,0.0,0.0,0.0,0.0,0.0,0.0,0.0,0.0,0.0,0.0,0.0,0.0,0.0,0.0,0.0,0.0,0.0,0.0,0.0,0.0,0.0,0.0,0.0,0.0,0.0,0.0,0.0,0.0,0.0,0.0,0.0,0.0,0.0,0.0,0.0,0.0,0.0,0.0,0.0,0.0,0.0,0.0,0.0,0.0,0.0,0.0,0.0,0.0,0.0,0.0,0.0,0.0,0.0,0.0,0.0,0.0,0.0,0.0,0.0,0.0,0.0,0.0,0.0,0.0,0.0,0.0,0.0,0.0,0.0,0.0,0.0,0.0,0.0,0.0,0.0,0.0,0.0,0.0,0.0,0.0,0.0,0.0,0.0,0.0,0.0,0.0,0.0,0.0,0.0,0.0,0.0,0.0,0.0,0.0,0.0,0.0,0.0,0.0,0.0,0.0,0.0,0.0,0.0,0.0,0.0,0.0,0.0,0.0,0.0,0.0,0.0,0.0,0.0,0.0,0.0,0.0,0.0,0.0,0.0,0.0,0.0,0.0,0.0,0.0,0.0,0.0,0.0,0.0,0.0,0.0,0.0,0.0,0.0,0.0,0.0,0.0,0.0,0.0,0.0,0.0,0.0,0.0,0.0,0.0,0.0,0.0,0.0,0.0,0.0,0.0,0.0,0.0,0.0,0.0,0.0,0.0,0.0,0.0,0.0,0.0,0.0,0.0,0.0,0.0,0.0,0.0,0.0,0.0,0.0,0.0,0.0,0.0,0.0,0.0,0.0,0.0,0.0,0.0,0.0,0.0,0.0,0.0,0.0,0.0,0.0,0.0,0.0,0.0,0.0,0.0,0.0,0.0,0.0,0.0,0.0,0.0,0.0,0.0,0.0,0.0,0.0,0.0,0.0,0.0,0.0,0.0,0.0,0.0,0.0,0.0,0.0,0.0,0.0,0.0,0.0,0.0,0.0,0.0,0.0,0.0,0.0,0.0,0.0,0.0,0.0,0.0,0.0,0.0,0.0,0.0,0.0,0.0,0.0,0.0,0.0,0.0,0.0,0.0,0.0,0.0,0.0,0.0,0.0,0.0,0.0,0.0,0.0,0.0,0.0,0.0,0.0,0.0,0.0,0.0,0.0,0.0,0.0,0.0,0.0,0.0,0.0,0.0,0.0,0.0,0.0,0.0,0.0,0.0,0.0,0.0,0.0,0.0,0.0,0.0,0.0,0.0,0.0,0.0,0.0,0.0,0.0,0.0,0.0,0.0,0.0,0.0,0.0,0.0,0.0,0.0,0.0,0.0,0.0,0.0,0.0,0.0,0.0,0.0,0.0,0.0,0.0,0.0,0.0,0.0,0.0,0.0,0.0,0.0,0.0,0.0,0.0,0.0,0.0,0.0,0.0,0.0,0.0,0.0,0.0,0.0,0.0,0.0,0.0,0.0,0.0,0.0,0.0,0.0,0.0,0.0,0.0,0.0,0.0,0.0,0.0,0.0,0.0,0.0,0.0,0.0,0.0,0.0,0.0,0.0,0.0,0.0,0.0,0.0,0.0,0.0,0.0,0.0,0.0,0.0,0.0,0.0,0.0,0.0,0.0,0.0,0.0,0.0,0.0,0.0,0.0,0.0,0.0,0.0,0.0,0.0,0.0,0.0,0.0,0.0,0.0,0.0,0.0,0.0,0.0,0.0,0.0,0.0,0.0,0.0,0.0,0.0,0.0,0.0,0.0,0.0,0.0,0.0,0.0,0.0,0.0,0.0,0.0,0.0,0.0,0.0,0.0,0.0,0.0,0.0,0.0,0.0,0.0,0.0,0.0,0.0,0.0,0.0,0.0,0.0,0.0,0.0,0.0,0.0,0.0,0.0,0.0,0.0,0.0,0.0,0.0,0.0,0.0,0.0,0.0,0.0,0.0,0.0,0.0,0.0,0.0,0.0,0.0,0.0,0.0,0.0,0.0,0.0,0.0,0.0,0.0,0.0,0.0,0.0,0.0,0.0,0.0,0.0,0.0,0.0,0.0,0.0,0.0,0.0,0.0,0.0,0.0,0.0,0.0,0.0,0.0,0.0,0.0,0.0,0.0,0.0,0.0,0.0,0.0,0.0,0.0,0.0,0.0,0.0,0.0,0.0,0.0,0.0,0.0,0.0,0.0,0.0,0.0,0.0,0.0,0.0,0.0,0.0,0.0,0.0,0.0,0.0,0.0,0.0,0.0,0.0,0.0,0.0,0.0,0.0,0.0,0.0,0.0,0.0,0.0,0.0,0.0,0.0,0.0,0.0,0.0,0.0,0.0,0.0,0.0,0.0,0.0,0.0,0.0,0.0,0.0,0.0,0.0,0.0,0.0,0.0,0.0,0.0,0.0,0.0,0.0,0.0,0.0,0.0,0.0,0.0,0.0,0.0,0.0,0.0,0.0,0.0,0.0,0.0,0.0,0.0,0.0,0.0,0.0,0.0,0.0,0.0,0.0,0.0,0.0,0.0,0.0,0.0,0.0,0.0,0.0,0.0,0.0,0.0,0.0,0.0,0.0,0.0,0.0,0.0,0.0,0.0,0.0,0.0,0.0,0.0,0.0,0.0,0.0,0.0,0.0,0.0,0.0,0.0,0.0,0.0,0.0,0.0,0.0,0.0,0.0,0.0,0.0,0.0,0.0,0.0,0.0,0.0,0.0,0.0,0.0,0.0,0.0,0.0,0.0,0.0,0.0,0.0,0.0,0.0,0.0,0.0,0.0,0.0,0.0,0.0,0.0,0.0,0.0,0.0,0.0,0.0,0.0,0.0,0.0,0.0,0.0,0.0,0.0,0.0,0.0,0.0,0.0,0.0,0.0,0.0,0.0,0.0,0.0,0.0,0.0,0.0,0.0,0.0,0.0,0.0,0.0,0.0,0.0,0.0,0.0,0.0,0.0,0.0,0.0,0.0,0.0,0.0,0.0,0.0,0.0,0.0,0.0,0.0,0.0,0.0,0.0,0.0,0.0,0.0,0.0,0.0,0.0,0.0,0.0,0.0,0.0,0.0,0.0,0.0,0.0,0.0,0.0,0.0,0.0,0.0,0.0,0.0,0.0,0.0,0.0,0.0,0.0,0.0,0.0,0.0,0.0,0.0,0.0,0.0,0.0,0.0,0.0,0.0,0.0,0.0,0.0,0.0,0.0,0.0,0.0,0.0,0.0,0.0,0.0,0.0,0.0,0.0,0.0,0.0,0.0,0.0,0.0,0.0,0.0,0.0,0.0,0.0,0.0,0.0,0.0,0.0,0.0,0.0,0.0,0.0,0.0,0.0,0.0,0.0,0.0,0.0,0.0,0.0,-0.6009,0.0,0.0,0.0,0.0,0.0,0.0,0.0,0.0,0.0,0.0,0.0,0.0,0.0,0.0,0.0,0.0,0.0,0.0,0.0,0.0,0.0,0.0,0.0,0.0,0.0,0.0,0.0,0.0,0.0,0.0,0.0,0.0,0.0,0.0,0.0,0.0,0.0,0.0,0.0,0.0,0.0,0.0,0.0,0.0,0.0,0.0,0.0,0.0,0.0,0.0,0.0,0.0,0.0,0.0,0.0,0.0,0.0,0.0,0.0,0.0,0.0,0.0,0.0,0.0,0.0,0.0,0.0,0.0,0.0,0.0,0.0,0.0,0.0,0.0,0.0,0.0,0.0,0.0,0.0,0.0,0.0,0.0,0.0,0.0,0.0,0.0,0.0,0.0,0.0,0.0,0.0,0.0,0.0,0.0,0.0,0.0,0.0,0.0,0.0,0.0,0.0,0.0,0.0,0.0,0.0,0.0,0.0,0.0,0.0,0.0,-0.6009,-0.6009,-0.6009,-0.6009,-0.6009,0.0,0.0,0.0,0.0,0.0,0.0,0.0,0.0,0.0,0.0,0.0,0.0,0.0,0.0,0.0,0.0,0.0,0.0,0.0,0.0,0.0,0.0,0.0,0.0,0.0,0.0,0.0,0.0,0.0,0.0,0.0,0.0,0.0,0.0,0.0,0.0,0.0,0.0,0.0,0.0,0.0,0.0,0.0,0.0,0.0,0.0,0.0,0.0,0.0,0.0,0.0,0.0,0.0,0.0,0.0,0.0,0.0,0.0,0.0,0.0,0.0,0.0,0.0,0.0,0.0,0.0,0.0,0.0,0.0,0.0,0.0,0.0,0.0,0.0,0.0,0.0,0.0,0.0,0.0,0.0,0.0,0.0,0.0,0.0,0.0,0.0,0.0,0.0,0.0,0.0,0.0,0.0,0.0,0.0,0.0,0.0,0.0,0.0,0.0,0.0,0.0,0.0,0.0,0.0,0.0,0.0,0.0,0.0,0.0,0.0,0.0,0.0,-0.6371,-0.6371,-0.6352,0.0,0.0,0.0,0.0,0.0,0.0,0.0,0.0,0.0,0.0,0.0,0.0,0.0,0.0,0.0,0.0,0.0,0.0,0.0,0.0,0.0,0.0,0.0,0.0,0.0,0.0,0.0,0.0,0.0,0.0,0.0,0.0,0.0,0.0,0.0,0.0,0.0,0.0,0.0,0.0,0.0,0.0,0.0,0.0,0.0,0.0,0.0,0.0,0.0,0.0,0.0,0.0,0.0,0.0,0.0,0.0,0.0,0.0,0.0,0.0,0.0,0.0,0.0,0.0,0.0,0.0,0.0,0.0,0.0,0.0,0.0,0.0,0.0,0.0,0.0,0.0,0.0,0.0,0.0,0.0,0.0,0.0,0.0,0.0,0.0,0.0,0.0,0.0,0.0,0.0,0.0,0.0,0.0,0.0,0.0,0.0,0.0,0.0,0.0,0.0,0.0,0.0,0.0,0.0,0.0,0.0,0.0,0.0,0.0,0.0,-0.6455,-0.7427,-0.7438,0.0,-0.745,0.0,0.0,0.0,0.0,0.0,0.0,0.0,0.0,0.0,0.0,0.0,0.0,0.0,0.0,0.0,0.0,0.0,0.0,0.0,0.0,0.0,0.0,0.0,0.0,0.0,0.0,0.0,0.0,0.0,0.0,0.0,0.0,0.0,0.0,0.0,0.0,0.0,0.0,0.0,0.0,0.0,0.0,0.0,0.0,0.0,0.0,0.0,0.0,0.0,0.0,0.0,0.0,0.0,0.0,0.0,0.0,0.0,0.0,0.0,0.0,0.0,0.0,0.0,0.0,0.0,0.0,0.0,0.0,0.0,0.0,0.0,0.0,0.0,0.0,0.0,0.0,0.0,0.0,0.0,0.0,0.0,0.0,0.0,0.0,0.0,0.0,0.0,0.0,0.0,0.0,0.0,0.0,0.0,0.0,0.0,0.0,0.0,0.0,0.0,0.0,0.0,0.0,0.0,0.0,0.0,0.0,0.0,0.0,0.0,0.0,-0.7162,-0.7588,-0.76,-0.76,0.0,0.0,0.0,0.0,0.0,0.0,0.0,0.0,0.0,0.0,0.0,0.0,0.0,0.0,0.0,0.0,0.0,0.0,0.0,0.0,0.0,0.0,0.0,0.0,0.0,0.0,0.0,0.0,0.0,0.0,0.0,0.0,0.0,0.0,0.0,0.0,0.0,0.0,0.0,0.0,0.0,0.0,0.0,0.0,0.0,0.0,0.0,0.0,0.0,0.0,0.0,0.0,0.0,0.0,0.0,0.0,0.0,0.0,0.0,0.0,0.0,0.0,0.0,0.0,0.0,0.0,0.0,0.0,0.0,0.0,0.0,0.0,0.0,0.0,0.0,0.0,0.0,0.0,0.0,0.0,0.0,0.0,0.0,0.0,0.0,0.0,0.0,0.0,0.0,0.0,0.0,0.0,0.0,0.0,0.0,0.0,0.0,0.0,0.0,0.0,0.0,0.0,0.0,0.0,0.0,0.0,0.0,0.0,0.0,0.0,-0.7346,-0.7726,-0.7991,-0.8014,-0.7888,-0.7611,0.0,0.0,0.0,0.0,0.0,0.0,0.0,0.0,0.0,0.0,0.0,0.0,0.0,0.0,0.0,0.0,0.0,0.0,0.0,0.0,0.0,0.0,0.0,0.0,0.0,0.0,0.0,0.0,0.0,0.0,0.0,0.0,0.0,0.0,0.0,0.0,0.0,0.0,0.0,0.0,0.0,0.0,0.0,0.0,0.0,0.0,0.0,0.0,0.0,0.0,0.0,0.0,0.0,0.0,0.0,0.0,0.0,0.0,0.0,0.0,0.0,0.0,0.0,0.0,0.0,0.0,0.0,0.0,0.0,0.0,0.0,0.0,0.0,0.0,0.0,0.0,0.0,0.0,0.0,0.0,0.0,0.0,0.0,0.0,0.0,0.0,0.0,0.0,0.0,0.0,0.0,0.0,0.0,0.0,0.0,0.0,0.0,0.0,0.0,0.0,0.0,0.0,0.0,0.0,0.0,0.0,0.0,0.0,-0.8771,-0.8049,-0.8072,-0.8977,-0.905,-0.859,0.0,0.0,0.0,0.0,0.0,0.0,0.0,0.0,0.0,0.0,0.0,0.0,0.0,0.0,0.0,0.0,0.0,0.0,0.0,0.0,0.0,0.0,0.0,0.0,0.0,0.0,0.0,0.0,0.0,0.0,0.0,0.0,0.0,0.0,0.0,0.0,0.0,0.0,0.0,0.0,0.0,0.0,0.0,0.0,0.0,0.0,0.0,0.0,0.0,0.0,0.0,0.0,0.0,0.0,0.0,0.0,0.0,0.0,0.0,0.0,0.0,0.0,0.0,0.0,0.0,0.0,0.0,0.0,0.0,0.0,0.0,0.0,0.0,0.0,0.0,0.0,0.0,0.0,0.0,0.0,0.0,0.0,0.0,0.0,0.0,0.0,0.0,0.0,0.0,0.0,0.0,0.0,0.0,0.0,0.0,0.0,0.0,0.0,0.0,0.0,0.0,0.0,0.0,0.0,0.0,0.0,0.0,0.0,0.0,-0.7083,-0.7427,-0.8394,-0.993,-0.8832,-0.8106,0.0,0.0,0.0,0.0,0.0,0.0,0.0,0.0,0.0,0.0,0.0,0.0,0.0,0.0,0.0,0.0,0.0,0.0,0.0,0.0,0.0,0.0,0.0,0.0,0.0,0.0,0.0,0.0,0.0,0.0,0.0,0.0,0.0,0.0,0.0,0.0,0.0,0.0,0.0,0.0,0.0,0.0,0.0,0.0,0.0,0.0,0.0,0.0,0.0,0.0,0.0,0.0,0.0,0.0,0.0,0.0,0.0,0.0,0.0,0.0,0.0,0.0,0.0,0.0,0.0,0.0,0.0,0.0,0.0,0.0,0.0,0.0,0.0,0.0,0.0,0.0,0.0,0.0,0.0,0.0,0.0,0.0,0.0,0.0,0.0,0.0,0.0,0.0,0.0,0.0,0.0,0.0,0.0,0.0,0.0,0.0,0.0,0.0,0.0,0.0,0.0,0.0,0.0,0.0,0.0,0.0,0.0,0.0,0.0,-0.7014,0.0,-0.9058,-0.9999,-0.8809,-0.7922,0.0,0.0,0.0,0.0,0.0,0.0,0.0,0.0,0.0,0.0,0.0,0.0,0.0,0.0,0.0,0.0,0.0,0.0,0.0,0.0,0.0,0.0,0.0,0.0,0.0,0.0,0.0,0.0,0.0,0.0,0.0,0.0,0.0,0.0,0.0,0.0,0.0,0.0,0.0,0.0,0.0,0.0,0.0,0.0,0.0,0.0,0.0,0.0,0.0,0.0,0.0,0.0,0.0,0.0,0.0,0.0,0.0,0.0,0.0,0.0,0.0,0.0,0.0,0.0,0.0,0.0,0.0,0.0,0.0,0.0,0.0,0.0,0.0,0.0,0.0,0.0,0.0,0.0,0.0,0.0,0.0,0.0,0.0,0.0,0.0,0.0,0.0,0.0,0.0,0.0,0.0,0.0,0.0,0.0,0.0,0.0,0.0,0.0,0.0,0.0,0.0,0.0,0.0,0.0,0.0,0.0,0.0,0.0,-0.7005,-0.8955,-0.9976,-1.0022,-0.9189,-0.9046,-0.8105,0.0,0.0,0.0,0.0,0.0,0.0,0.0,0.0,0.0,0.0,0.0,0.0,0.0,0.0,0.0,0.0,0.0,0.0,0.0,0.0,0.0,0.0,0.0,0.0,0.0,0.0,0.0,0.0,0.0,0.0,0.0,0.0,0.0,0.0,0.0,0.0,0.0,0.0,0.0,0.0,0.0,0.0,0.0,0.0,0.0,0.0,0.0,0.0,0.0,0.0,0.0,0.0,0.0,0.0,0.0,0.0,0.0,0.0,0.0,0.0,0.0,0.0,0.0,0.0,0.0,0.0,0.0,0.0,0.0,0.0,0.0,0.0,0.0,0.0,0.0,0.0,0.0,0.0,0.0,0.0,0.0,0.0,0.0,0.0,0.0,0.0,0.0,0.0,0.0,0.0,0.0,0.0,0.0,0.0,0.0,0.0,0.0,0.0,0.0,0.0,0.0,0.0,0.0,0.0,0.0,0.0,0.0,0.0,0.0,-0.8083,-0.9023,-0.9747,-1.0068,-0.8797,-0.7922,0.0,0.0,0.0,0.0,0.0,0.0,0.0,0.0,0.0,0.0,0.0,0.0,0.0,0.0,0.0,0.0,0.0,0.0,0.0,0.0,0.0,0.0,0.0,0.0,0.0,0.0,0.0,0.0,0.0,0.0,0.0,0.0,0.0,0.0,0.0,0.0,0.0,0.0,0.0,0.0,0.0,0.0,0.0,0.0,0.0,0.0,0.0,0.0,0.0,0.0,0.0,0.0,0.0,0.0,0.0,0.0,0.0,0.0,0.0,0.0,0.0,0.0,0.0,0.0,0.0,0.0,0.0,0.0,0.0,0.0,0.0,0.0,0.0,0.0,0.0,0.0,0.0,0.0,0.0,0.0,0.0,0.0,0.0,0.0,0.0,0.0,0.0,0.0,0.0,0.0,0.0,0.0,0.0,0.0,0.0,0.0,0.0,0.0,0.0,0.0,0.0,0.0,0.0,0.0,0.0,0.0,0.0,0.0,0.0,-0.8472,-0.9615,-1.0229,-1.0298,-0.8886,-0.8037,-0.7726,0.0,0.0,0.0,0.0,0.0,0.0,0.0,0.0,0.0,0.0,0.0,0.0,0.0,0.0,0.0,0.0,0.0,0.0,0.0,0.0,0.0,0.0,0.0,0.0,0.0,0.0,0.0,0.0,0.0,0.0,0.0,0.0,0.0,0.0,0.0,0.0,0.0,0.0,0.0,0.0,0.0,0.0,0.0,0.0,0.0,0.0,0.0,0.0,0.0,0.0,0.0,0.0,0.0,0.0,0.0,0.0,0.0,0.0,0.0,0.0,0.0,0.0,0.0,0.0,0.0,0.0,0.0,0.0,0.0,0.0,0.0,0.0,0.0,0.0,0.0,0.0,0.0,0.0,0.0,0.0,0.0,0.0,0.0,0.0,0.0,0.0,0.0,0.0,0.0,0.0,0.0,0.0,0.0,0.0,0.0,0.0,0.0,0.0,0.0,0.0,0.0,0.0,0.0,0.0,0.0,0.0,0.0,0.0,-0.9838,-1.133,-1.1377,-1.0011,-0.9414,-0.8438,0.0,0.0,0.0,0.0,0.0,0.0,0.0,0.0,0.0,0.0,0.0,0.0,0.0,0.0,0.0,0.0,0.0,0.0,0.0,0.0,0.0,0.0,0.0,0.0,0.0,0.0,0.0,0.0,0.0,0.0,0.0,0.0,0.0,0.0,0.0,0.0,0.0,0.0,0.0,0.0,0.0,0.0,0.0,0.0,0.0,0.0,0.0,0.0,0.0,0.0,0.0,0.0,0.0,0.0,0.0,0.0,0.0,0.0,0.0,0.0,0.0,0.0,0.0,0.0,0.0,0.0,0.0,0.0,0.0,0.0,0.0,0.0,0.0,0.0,0.0,0.0,0.0,0.0,0.0,0.0,0.0,0.0,0.0,0.0,0.0,0.0,0.0,0.0,0.0,0.0,0.0,0.0,0.0,0.0,0.0,0.0,0.0,0.0,0.0,0.0,0.0,0.0,0.0,0.0,0.0,0.0,0.0,0.0,0.0,-1.039,-1.1538,-1.1929,-1.1503,-1.0275,-0.9264,0.0,0.0,0.0,0.0,0.0,0.0,0.0,0.0,0.0,0.0,0.0,0.0,0.0,0.0,0.0,0.0,0.0,0.0,0.0,0.0,0.0,0.0,0.0,0.0,0.0,0.0,0.0,0.0,0.0,0.0,0.0,0.0,0.0,0.0,0.0,0.0,0.0,0.0,0.0,0.0,0.0,0.0,0.0,0.0,0.0,0.0,0.0,0.0,0.0,0.0,0.0,0.0,0.0,0.0,0.0,0.0,0.0,0.0,0.0,0.0,0.0,0.0,0.0,0.0,0.0,0.0,0.0,0.0,0.0,0.0,0.0,0.0,0.0,0.0,0.0,0.0,0.0,0.0,0.0,0.0,0.0,0.0,0.0,0.0,0.0,0.0,0.0,0.0,0.0,0.0,0.0,0.0,0.0,0.0,0.0,0.0,0.0,0.0,0.0,0.0,0.0,0.0,0.0,0.0,0.0,0.0,0.0,0.0,-0.9884,-1.0883,-1.1699,-1.2066,-1.2066,-1.0814,-0.977,0.0,0.0,0.0,0.0,0.0,0.0,0.0,0.0,0.0,0.0,0.0,0.0,0.0,0.0,0.0,0.0,0.0,0.0,0.0,0.0,0.0,0.0,0.0,0.0,0.0,0.0,0.0,0.0,0.0,0.0,0.0,0.0,0.0,0.0,0.0,0.0,0.0,0.0,0.0,0.0,0.0,0.0,0.0,0.0,0.0,0.0,0.0,0.0,0.0,0.0,0.0,0.0,0.0,0.0,0.0,0.0,0.0,0.0,0.0,0.0,0.0,0.0,0.0,0.0,0.0,0.0,0.0,0.0,0.0,0.0,0.0,0.0,0.0,0.0,0.0,0.0,0.0,0.0,0.0,0.0,0.0,0.0,0.0,0.0,0.0,0.0,0.0,0.0,0.0,0.0,0.0,0.0,0.0,0.0,0.0,0.0,0.0,0.0,0.0,0.0,0.0,0.0,0.0,0.0,0.0,0.0,0.0,0.0,-1.0286,-1.1274,-1.1813,-1.2066,-1.2079,-1.117,-1.0107,0.0,0.0,0.0,0.0,0.0,0.0,0.0,0.0,0.0,0.0,0.0,0.0,0.0,0.0,0.0,0.0,0.0,0.0,0.0,0.0,0.0,0.0,0.0,0.0,0.0,0.0,0.0,0.0,0.0,0.0,0.0,0.0,0.0,0.0,0.0,0.0,0.0,0.0,0.0,0.0,0.0,0.0,0.0,0.0,0.0,0.0,0.0,0.0,0.0,0.0,0.0,0.0,0.0,0.0,0.0,0.0,0.0,0.0,0.0,0.0,0.0,0.0,0.0,0.0,0.0,0.0,0.0,0.0,0.0,0.0,0.0,0.0,0.0,0.0,0.0,0.0,0.0,0.0,0.0,0.0,0.0,0.0,0.0,0.0,0.0,0.0,0.0,0.0,0.0,0.0,0.0,0.0,0.0,0.0,0.0,0.0,0.0,0.0,0.0,0.0,0.0,0.0,0.0,0.0,0.0,0.0,0.0,0.0,-1.0267,-1.1274,-1.1813,-1.2066,-1.2066,-1.1492,-1.0738,0.0,0.0,0.0,0.0,0.0,0.0,0.0,0.0,0.0,0.0,0.0,0.0,0.0,0.0,0.0,0.0,0.0,0.0,0.0,0.0,0.0,0.0,0.0,0.0,0.0,0.0,0.0,0.0,0.0,0.0,0.0,0.0,0.0,0.0,0.0,0.0,0.0,0.0,0.0,0.0,0.0,0.0,0.0,0.0,0.0,0.0,0.0,0.0,-0.8603,0.0,0.0,0.0,0.0,0.0,0.0,0.0,0.0,0.0,0.0,0.0,0.0,0.0,0.0,0.0,0.0,0.0,0.0,0.0,0.0,0.0,0.0,0.0,0.0,0.0,0.0,0.0,0.0,0.0,0.0,0.0,0.0,0.0,0.0,0.0,0.0,0.0,0.0,0.0,0.0,0.0,0.0,0.0,0.0,0.0,0.0,0.0,0.0,0.0,0.0,0.0,0.0,0.0,0.0,0.0,0.0,0.0,0.0,0.0,-1.0665,-1.1652,-1.1975,-1.2066,-1.2102,-1.1813,-1.1106,0.0,0.0,0.0,0.0,0.0,0.0,0.0,0.0,0.0,0.0,0.0,0.0,0.0,0.0,0.0,0.0,0.0,0.0,0.0,0.0,0.0,0.0,0.0,0.0,0.0,0.0,0.0,0.0,0.0,0.0,0.0,0.0,0.0,0.0,0.0,0.0,0.0,0.0,0.0,0.0,0.0,0.0,0.0,0.0,0.0,0.0,0.0,0.0,0.0,0.0,0.0,0.0,0.0,0.0,0.0,0.0,0.0,0.0,0.0,0.0,0.0,0.0,0.0,0.0,0.0,0.0,0.0,0.0,0.0,0.0,0.0,0.0,0.0,0.0,0.0,0.0,0.0,0.0,0.0,0.0,0.0,0.0,0.0,0.0,0.0,0.0,0.0,0.0,0.0,0.0,0.0,0.0,0.0,0.0,0.0,0.0,0.0,0.0,0.0,0.0,0.0,0.0,0.0,0.0,0.0,0.0,0.0,-1.0091,-1.0998,-1.2056,-1.2066,-1.2066,-1.2066,-1.2066,-1.1279,-0.9639,0.0,0.0,0.0,0.0,0.0,0.0,0.0,0.0,0.0,0.0,0.0,0.0,0.0,0.0,0.0,0.0,0.0,0.0,0.0,0.0,0.0,0.0,0.0,0.0,0.0,0.0,0.0,0.0,0.0,0.0,0.0,0.0,0.0,0.0,0.0,0.0,0.0,0.0,-0.7076,-0.8929,0.0,0.0,0.0,0.0,0.0,0.0,0.0,0.0,-1.0112,0.0,0.0,0.0,0.0,0.0,0.0,0.0,0.0,0.0,0.0,0.0,0.0,0.0,0.0,0.0,0.0,0.0,0.0,0.0,0.0,0.0,0.0,0.0,0.0,0.0,0.0,0.0,0.0,0.0,0.0,0.0,0.0,0.0,0.0,0.0,0.0,0.0,0.0,0.0,0.0,0.0,0.0,0.0,0.0,0.0,0.0,0.0,0.0,0.0,0.0,0.0,0.0,0.0,0.0,0.0,0.0,-1.0309,-1.008,-1.0631,-1.2067,-1.2066,-1.2066,-1.2066,-1.2066,-1.1224,-0.947,0.0,0.0,0.0,0.0,0.0,0.0,0.0,0.0,0.0,0.0,0.0,0.0,0.0,0.0,0.0,0.0,0.0,0.0,0.0,0.0,0.0,0.0,0.0,0.0,0.0,0.0,0.0,0.0,0.0,0.0,0.0,0.0,0.0,0.0,0.0,0.0,0.0,0.0,0.0,-1.2025,-1.3248,0.0,0.0,0.0,0.0,0.0,0.0,0.0,0.0,-1.054,0.0,0.0,0.0,0.0,0.0,0.0,0.0,0.0,0.0,0.0,0.0,0.0,0.0,0.0,0.0,0.0,0.0,0.0,0.0,0.0,0.0,0.0,0.0,0.0,0.0,0.0,0.0,0.0,0.0,0.0,0.0,0.0,0.0,0.0,0.0,0.0,0.0,0.0,0.0,0.0,0.0,0.0,0.0,0.0,0.0,0.0,0.0,0.0,0.0,0.0,0.0,0.0,0.0,0.0,0.0,-0.9747,-1.0321,-1.1078,-1.2031,-1.2066,-1.2066,-1.209,-1.1583,-1.0735,0.0,0.0,0.0,0.0,0.0,0.0,0.0,0.0,0.0,0.0,0.0,0.0,0.0,0.0,0.0,0.0,0.0,0.0,0.0,0.0,0.0,0.0,0.0,0.0,0.0,0.0,0.0,0.0,0.0,0.0,0.0,0.0,0.0,0.0,0.0,0.0,0.0,0.0,0.0,0.0,-1.294,-1.4021,-1.4693,0.0,0.0,0.0,0.0,0.0,0.0,-1.2203,-1.1463,0.0,0.0,0.0,0.0,0.0,0.0,0.0,0.0,0.0,0.0,0.0,0.0,0.0,0.0,0.0,0.0,0.0,0.0,0.0,0.0,0.0,0.0,0.0,0.0,0.0,0.0,0.0,0.0,0.0,0.0,0.0,0.0,0.0,0.0,0.0,0.0,0.0,0.0,0.0,0.0,0.0,0.0,0.0,0.0,0.0,0.0,0.0,0.0,0.0,0.0,0.0,0.0,0.0,0.0,0.0,-0.9115,-1.047,-1.1469,-1.2067,-1.2066,-1.2066,-1.2054,-1.1205,-1.034,0.0,0.0,0.0,0.0,0.0,0.0,0.0,0.0,0.0,0.0,0.0,0.0,0.0,0.0,0.0,0.0,0.0,0.0,0.0,0.0,0.0,0.0,0.0,0.0,0.0,0.0,0.0,0.0,0.0,0.0,0.0,0.0,0.0,0.0,0.0,0.0,0.0,0.0,0.0,0.0,0.0,-1.4813,-1.5836,-1.4882,0.0,0.0,0.0,0.0,-1.4025,-1.3377,0.0,0.0,0.0,0.0,0.0,0.0,0.0,0.0,0.0,0.0,0.0,0.0,0.0,0.0,0.0,0.0,0.0,0.0,0.0,0.0,0.0,0.0,0.0,0.0,0.0,0.0,0.0,0.0,0.0,0.0,0.0,0.0,0.0,0.0,0.0,0.0,0.0,0.0,0.0,0.0,0.0,0.0,0.0,0.0,0.0,0.0,0.0,0.0,0.0,0.0,0.0,0.0,0.0,0.0,0.0,0.0,-0.9081,-1.0137,-1.1147,-1.202,-1.2066,-1.2066,-1.2066,-1.1538,-1.0562,0.0,0.0,0.0,0.0,0.0,0.0,0.0,0.0,0.0,0.0,0.0,0.0,0.0,0.0,0.0,0.0,0.0,0.0,0.0,0.0,0.0,0.0,0.0,0.0,0.0,0.0,0.0,0.0,0.0,0.0,0.0,0.0,0.0,0.0,0.0,0.0,0.0,0.0,0.0,0.0,0.0,-1.7017,-1.6427,-1.5889,-1.5661,0.0,0.0,-1.5449,-1.6818,-1.5694,0.0,0.0,0.0,0.0,0.0,0.0,0.0,0.0,0.0,0.0,0.0,0.0,0.0,0.0,0.0,0.0,0.0,0.0,0.0,0.0,0.0,0.0,0.0,0.0,0.0,0.0,0.0,0.0,0.0,0.0,0.0,0.0,0.0,0.0,0.0,0.0,0.0,0.0,0.0,0.0,0.0,0.0,0.0,0.0,0.0,0.0,0.0,0.0,0.0,0.0,0.0,0.0,0.0,0.0,0.0,-0.8645,-0.9154,-1.0631,-1.1652,-1.209,-1.2066,-1.2066,-1.2066,-1.1319,-1.0501,0.0,0.0,0.0,0.0,0.0,0.0,0.0,0.0,0.0,0.0,0.0,0.0,0.0,0.0,0.0,0.0,0.0,0.0,0.0,0.0,0.0,0.0,0.0,0.0,0.0,0.0,0.0,0.0,0.0,0.0,0.0,0.0,0.0,0.0,0.0,0.0,0.0,0.0,0.0,0.0,0.0,0.0,-1.7507,-1.7152,0.0,0.0,0.0,-1.7188,-1.7364,0.0,0.0,0.0,0.0,0.0,0.0,0.0,0.0,0.0,0.0,0.0,0.0,0.0,0.0,0.0,0.0,0.0,0.0,0.0,0.0,0.0,0.0,0.0,0.0,0.0,0.0,0.0,0.0,0.0,0.0,0.0,0.0,0.0,0.0,0.0,0.0,0.0,0.0,0.0,0.0,0.0,0.0,0.0,0.0,0.0,0.0,0.0,0.0,0.0,0.0,0.0,0.0,0.0,0.0,0.0,0.0,0.0,-0.9127,-1.1215,-1.2252,-1.2125,-1.2215,-1.2252,-1.2102,-1.1228,0.0,0.0,0.0,0.0,0.0,0.0,0.0,0.0,0.0,0.0,0.0,0.0,0.0,0.0,0.0,0.0,0.0,0.0,0.0,0.0,0.0,0.0,0.0,0.0,0.0,0.0,0.0,-0.5254,0.0,0.0,0.0,0.0,0.0,0.0,0.0,0.0,0.0,0.0,0.0,0.0,0.0,0.0,-1.6237,-1.7961,-1.7927,-1.7787,0.0,0.0,-1.8439,-1.7996,-1.8106,-1.7507,0.0,0.0,0.0,0.0,0.0,0.0,0.0,0.0,0.0,0.0,0.0,0.0,0.0,0.0,0.0,0.0,0.0,0.0,0.0,0.0,0.0,0.0,0.0,0.0,0.0,0.0,0.0,0.0,0.0,0.0,0.0,0.0,0.0,0.0,0.0,0.0,0.0,0.0,0.0,0.0,0.0,0.0,0.0,0.0,0.0,0.0,0.0,0.0,0.0,0.0,0.0,0.0,0.0,0.0,0.0,-0.9173,-1.1549,-1.262,-1.2148,-1.2608,-1.262,-1.2125,-1.1561,-1.0814,0.0,0.0,0.0,0.0,0.0,0.0,0.0,0.0,0.0,0.0,0.0,0.0,0.0,0.0,0.0,0.0,0.0,0.0,0.0,0.0,0.0,0.0,0.0,0.0,0.0,0.0,0.0,0.0,0.0,0.0,0.0,0.0,0.0,0.0,0.0,0.0,0.0,0.0,0.0,0.0,0.0,-1.6999,-1.708,-1.7746,-1.8566,0.0,0.0,-1.8982,-1.9544,-1.8984,-1.7714,-1.5459,0.0,0.0,0.0,0.0,0.0,0.0,0.0,0.0,0.0,0.0,0.0,0.0,0.0,0.0,0.0,0.0,0.0,0.0,0.0,0.0,0.0,0.0,0.0,0.0,0.0,0.0,0.0,0.0,0.0,0.0,0.0,0.0,0.0,0.0,0.0,0.0,0.0,0.0,0.0,0.0,0.0,0.0,0.0,0.0,0.0,0.0,0.0,0.0,0.0,0.0,0.0,0.0,0.0,-0.9092,-0.9127,-1.1583,-1.2777,-1.262,-1.2804,-1.2804,-1.2608,-1.1756,-1.0849,0.0,0.0,0.0,0.0,0.0,0.0,0.0,0.0,0.0,0.0,0.0,0.0,0.0,0.0,0.0,0.0,0.0,0.0,0.0,0.0,0.0,0.0,0.0,0.0,0.0,0.0,0.0,0.0,-0.734,-0.7665,-0.8064,0.0,0.0,0.0,0.0,0.0,0.0,0.0,0.0,0.0,0.0,-1.6967,-1.894,-1.9104,0.0,0.0,-2.0213,-2.0333,-1.9241,-1.9626,-1.9257,-1.7008,-1.6386,0.0,0.0,0.0,0.0,0.0,0.0,0.0,0.0,0.0,0.0,0.0,0.0,0.0,0.0,0.0,0.0,0.0,0.0,0.0,0.0,0.0,0.0,0.0,0.0,0.0,0.0,0.0,0.0,0.0,0.0,0.0,0.0,0.0,0.0,0.0,0.0,0.0,0.0,0.0,0.0,0.0,0.0,0.0,0.0,0.0,0.0,0.0,0.0,0.0,0.0,0.0,0.0,-0.915,-0.9322,-1.1802,-1.3087,-1.3127,-1.3288,-1.3179,-1.2869,-1.2169,-1.1239,0.0,0.0,0.0,0.0,0.0,0.0,0.0,0.0,0.0,0.0,0.0,0.0,0.0,0.0,0.0,0.0,0.0,0.0,0.0,0.0,0.0,0.0,0.0,0.0,0.0,0.0,0.0,0.0,-0.7816,-0.7983,-0.846,0.0,0.0,0.0,0.0,0.0,0.0,0.0,0.0,0.0,0.0,-1.6952,-1.9428,-1.943,-1.9303,-1.9734,-2.0442,-2.0622,-1.977,-2.0215,-2.0025,-1.8253,0.0,0.0,0.0,0.0,0.0,0.0,0.0,0.0,0.0,0.0,0.0,0.0,0.0,0.0,0.0,0.0,0.0,0.0,0.0,0.0,0.0,0.0,0.0,0.0,0.0,0.0,0.0,0.0,0.0,0.0,-0.3933,0.0,0.0,0.0,0.0,0.0,0.0,0.0,0.0,0.0,0.0,0.0,0.0,0.0,0.0,0.0,0.0,0.0,0.0,0.0,0.0,0.0,0.0,0.0,-0.9816,-1.2261,-1.3558,-1.3593,-1.4086,-1.3898,-1.2965,-1.2885,-1.2148,-1.0596,0.0,0.0,0.0,0.0,0.0,0.0,0.0,0.0,0.0,0.0,0.0,0.0,0.0,0.0,0.0,0.0,0.0,0.0,0.0,0.0,0.0,0.0,0.0,0.0,0.0,0.0,-0.846,-0.8492,-0.8476,0.0,0.0,0.0,0.0,0.0,0.0,0.0,0.0,0.0,0.0,-1.6248,-1.7151,-1.7927,-1.8194,-1.8916,-2.0343,-1.9556,-1.9487,-2.1556,-2.0764,-1.96,0.0,0.0,0.0,0.0,0.0,0.0,0.0,0.0,0.0,0.0,0.0,0.0,0.0,0.0,0.0,0.0,0.0,0.0,0.0,0.0,0.0,0.0,0.0,0.0,0.0,0.0,0.0,-0.4648,-0.4736,0.0,0.0,0.0,0.0,0.0,0.0,0.0,0.0,0.0,0.0,0.0,-0.8225,-0.8512,0.0,0.0,0.0,0.0,0.0,0.0,0.0,0.0,0.0,0.0,0.0,0.0,-0.9816,-1.039,-1.2169,-1.3443,-1.4098,-1.3948,-1.3696,-1.3351,-1.2747,-1.1515,-0.9655,0.0,0.0,0.0,0.0,0.0,0.0,0.0,0.0,0.0,0.0,0.0,0.0,0.0,0.0,0.0,0.0,0.0,0.0,0.0,0.0,0.0,0.0,0.0,0.0,0.0,-0.8508,0.0,0.0,0.0,0.0,0.0,0.0,0.0,0.0,0.0,0.0,0.0,-1.4809,-1.6157,-1.7054,-1.8034,-1.9373,-1.9636,-1.9878,0.0,0.0,0.0,0.0,0.0,0.0,0.0,0.0,0.0,0.0,0.0,0.0,0.0,0.0,-1.704,-1.5238,-1.4667,-1.4635,-1.5148,0.0,0.0,0.0,0.0,0.0,0.0,0.0,0.0,0.0,0.0,0.0,0.0,0.0,0.0,0.0,0.0,-0.5307,0.0,0.0,0.0,0.0,0.0,0.0,0.0,0.0,-0.8608,-0.9064,-0.9156,-0.9375,-0.9609,0.0,-0.9815,-0.9169,0.0,0.0,0.0,0.0,0.0,0.0,0.0,0.0,-1.0424,-1.1136,-1.2628,-1.3799,-1.458,-1.4304,-1.404,-1.3857,-1.2735,-1.1342,-0.9655,-0.8659,-0.783,0.0,0.0,0.0,0.0,0.0,0.0,0.0,0.0,0.0,0.0,0.0,0.0,0.0,0.0,0.0,0.0,0.0,0.0,0.0,0.0,0.0,0.0,0.0,-0.8508,0.0,0.0,0.0,0.0,0.0,0.0,0.0,0.0,0.0,-1.2633,-1.4159,-1.5749,-1.7177,-1.7597,-1.8404,-2.0052,0.0,0.0,0.0,0.0,0.0,0.0,0.0,-2.1597,-2.0682,-2.1462,-2.2153,-2.1929,-2.1447,-2.1036,-2.0822,0.0,0.0,-1.6951,-1.629,-1.6268,-1.6799,-1.6138,-1.5831,-1.6871,-1.7082,-1.6929,0.0,0.0,0.0,0.0,0.0,0.0,0.0,0.0,-0.5683,-0.5856,0.0,-0.576,0.0,0.0,0.0,0.0,0.0,0.0,0.0,0.0,-0.9627,-1.0181,-1.0389,-1.0026,-1.0153,-1.0728,-1.1152,-1.084,-0.9962,-0.9392,0.0,0.0,0.0,0.0,0.0,0.0,-1.1147,-1.2123,-1.361,-1.4591,-1.5073,-1.5073,-1.4844,-1.4339,-1.2892,-1.1641,-1.0654,-0.9655,-0.8745,-0.7874,-0.733,0.0,0.0,0.0,0.0,0.0,0.0,0.0,0.0,0.0,0.0,0.0,0.0,0.0,0.0,0.0,0.0,0.0,0.0,0.0,0.0,-0.8508,0.0,0.0,0.0,0.0,0.0,0.0,0.0,0.0,0.0,0.0,-1.4193,-1.4643,-1.584,-1.8053,0.0,0.0,0.0,0.0,-2.0997,-2.247,-2.2158,-2.225,-2.3624,-2.2768,-2.192,-2.1867,0.0,0.0,-2.139,-2.1251,-2.1483,-2.2214,-2.2214,-2.1536,-1.9269,-1.8307,-1.7858,-1.7956,-1.7968,-1.7962,-1.8121,-1.8812,-1.9413,-0.5483,0.0,0.0,0.0,0.0,-0.5504,-0.5867,-0.6428,-0.6412,-0.6471,-0.6613,-0.6808,0.0,0.0,0.0,0.0,0.0,0.0,-0.9139,-0.946,-1.0159,-1.0711,-1.1005,-1.0904,-1.1109,-1.1559,-1.1951,-1.2007,-1.1692,-1.1764,-1.084,-0.902,0.0,0.0,0.0,0.0,-1.2363,-1.3145,-1.3593,-1.4235,-1.5085,-1.4775,-1.435,-1.3822,-1.3064,-1.2157,-1.1159,-1.0504,-0.973,-0.8769,-0.8213,0.0,0.0,0.0,0.0,0.0,0.0,0.0,0.0,0.0,0.0,0.0,0.0,0.0,0.0,0.0,0.0,0.0,0.0,0.0,-0.8508,-0.8508,-0.8912,0.0,0.0,0.0,0.0,0.0,0.0,0.0,0.0,0.0,-1.6119,-1.6897,-1.7519,0.0,0.0,-1.9651,-2.0247,-2.13,-2.2186,-2.266,0.0,0.0,0.0,-2.2468,-2.2429,-2.1906,-2.2922,-2.3945,-2.4385,-2.357,-2.3088,-2.3838,-2.2589,-2.1304,-2.1123,-2.1001,-2.0735,-2.0311,-2.0336,-2.0298,-1.9893,-2.0562,-2.0982,-0.5863,-0.5263,-0.5435,-0.5819,-0.6252,-0.6417,-0.6733,-0.7155,-0.7106,-0.7235,-0.746,-0.7608,-0.7721,-0.7854,-0.8113,0.0,0.0,0.0,-0.9915,-1.044,-1.0913,-1.1396,-1.1704,-1.1721,-1.1878,-1.213,-1.2328,-1.2376,-1.2164,-1.2529,-1.1861,-1.0234,0.0,0.0,-1.1358,-1.2224,-1.2981,-1.3586,-1.3842,-1.427,-1.4915,-1.4788,-1.4339,-1.3627,-1.3345,-1.2663,-1.1664,-1.1147,-1.0424,-0.9414,-0.8679,-0.7911,0.0,0.0,0.0,0.0,0.0,0.0,0.0,0.0,0.0,0.0,0.0,-0.5227,0.0,0.0,0.0,0.0,-0.8071,-0.9069,-0.9719,-0.9753,0.0,0.0,0.0,0.0,0.0,0.0,0.0,-1.5933,-1.6435,-1.6937,-1.7821,-1.8388,-1.8706,-1.8673,-1.9982,-2.1136,-2.181,0.0,-2.3264,-2.3574,-2.335,-2.2988,-2.2574,-2.266,-2.2798,-2.2803,-2.3671,-2.4587,-2.5205,-2.4569,-2.4195,-2.4373,-2.3249,-2.2246,-2.287,-2.2892,-2.2525,-2.1749,-2.1586,-2.1443,-2.109,-2.1599,-2.1738,-0.615,-0.5985,-0.6884,-0.728,-0.731,-0.7612,-0.7736,-0.7801,-0.7795,-0.8038,-0.831,-0.8189,-0.8447,-0.8983,-0.908,0.0,-0.9687,-1.0223,-1.0822,-1.1495,-1.1712,-1.2047,-1.2334,-1.2334,-1.2334,-1.2389,-1.2449,-1.2281,-1.1911,-1.2324,-1.2329,-1.1884,-1.1873,-1.2224,-1.288,-1.2987,-1.3227,-1.3673,-1.4144,-1.4512,-1.4708,-1.4926,-1.4626,-1.3627,-1.3604,-1.311,-1.2159,-1.1583,-1.0849,-0.985,-0.8909,-0.8004,-0.7085,0.0,0.0,0.0,0.0,0.0,0.0,0.0,0.0,0.0,0.0,0.0,0.0,0.0,0.0,0.0,-0.8971,0.0,-1.1576,-1.1684,0.0,0.0,0.0,-1.352,-1.5069,-1.5716,-1.6629,-1.8022,0.0,0.0,-1.92,0.0,-1.9621,-2.0305,-2.1374,-2.2601,-2.4041,-2.4079,-2.4253,-2.4954,-2.4419,-2.3936,-2.3805,-2.3384,-2.3336,-2.413,-2.4366,-2.4504,-2.4675,-2.4712,-2.4676,-2.4694,-2.4034,-2.3731,-2.4569,-2.3998,-2.328,-2.2562,-2.2116,-2.188,-2.1881,-2.2129,-2.2253,-0.6457,-0.6294,-0.6806,-0.6943,-0.6892,-0.7012,-0.7315,-0.7801,-0.7801,-0.7855,-0.7968,-0.8206,-0.8774,-0.9615,-1.0034,-1.0269,-1.0353,-1.071,-1.0961,-1.1115,-1.139,-1.1559,-1.1672,-1.1904,-1.2016,-1.2072,-1.2578,-1.2806,-1.2734,-1.2822,-1.2818,-1.2745,-1.2732,-1.2863,-1.3203,-1.3544,-1.3917,-1.4209,-1.4318,-1.4523,-1.4708,-1.4743,-1.4405,-1.3627,-1.3604,-1.311,-1.2148,-1.1595,-1.086,-0.9861,-0.9574,-0.8843,-0.7518,-0.7249,0.0,0.0,0.0,0.0,0.0,0.0,0.0,0.0,0.0,-0.7465,-0.6378,0.0,-0.8892,0.0,-1.0782,-1.1661,-1.1617,-1.2063,0.0,0.0,-1.4286,-1.4821,-1.7821,-1.7374,-1.7383,-1.8778,-1.9102,-1.92,-1.92,-2.0127,-2.0872,-2.1066,-2.2145,-2.3291,-2.4357,-2.5124,-2.5626,-2.5712,-2.5178,-2.4729,-2.4643,-2.4591,-2.4527,-2.492,-2.5057,-2.4998,-2.4544,-2.4604,-2.4694,-2.4641,-2.4034,-2.3939,-2.4801,-2.4189,-2.3571,-2.3446,-2.3426,-2.3087,-2.211,-2.2912,-2.3535,-0.6749,-0.6647,-0.6781,-0.6946,-0.718,-0.7341,-0.7551,-0.7928,-0.8057,-0.8118,-0.8108,-0.8425,-0.902,-0.9782,-1.0128,-1.0437,-1.0799,-1.0989,-1.1188,-1.1508,-1.1619,-1.1795,-1.1913,-1.2089,-1.2272,-1.2389,-1.2675,-1.2872,-1.2958,-1.2627,-1.255,-1.2739,-1.2601,-1.2676,-1.2943,-1.3355,-1.3716,-1.4046,-1.414,-1.4326,-1.4569,-1.4569,-1.4283,-1.3638,-1.347,-1.3003,-1.2112,-1.1595,-1.0964,-1.0194,-0.9724,-0.9,-0.798,-0.7715,-0.7501,0.0,0.0,0.0,0.0,0.0,0.0,0.0,0.0,0.0,0.0,0.0,-1.021,0.0,-1.2451,0.0,-1.379,-1.4379,-1.5423,-1.7133,-1.6611,-1.7071,-1.9447,-1.8977,-1.8929,-1.9997,-1.9868,-1.9787,-2.0094,-2.0548,-2.1115,-2.1714,-2.2485,-2.3505,-2.47,-2.5289,-2.5575,-2.5993,-2.5471,-2.485,-2.454,-2.4471,-2.4648,-2.5084,-2.5003,-2.4813,-2.4882,-2.4743,-2.4497,-2.4207,-2.3779,-2.3654,-2.4248,-2.3939,-2.3567,-2.3689,-2.3834,-2.3611,-2.3033,-2.3746,-2.4165,-0.7048,-0.7011,-0.679,-0.7069,-0.7596,-0.7888,-0.8043,-0.8052,-0.8382,-0.8517,-0.8501,-0.8731,-0.9175,-0.9721,-0.989,-1.0335,-1.1068,-1.1143,-1.1472,-1.1996,-1.2058,-1.2182,-1.2359,-1.2421,-1.2605,-1.285,-1.266,-1.2689,-1.2964,-1.2274,-1.2104,-1.2395,-1.2139,-1.2122,-1.2421,-1.2696,-1.3074,-1.3467,-1.3726,-1.401,-1.4326,-1.4326,-1.4094,-1.3609,-1.3346,-1.2844,-1.2112,-1.1583,-1.1068,-1.0619,-0.9758,-0.9012,-0.844,-0.8027,-0.7675,0.0,-0.6982,0.0,0.0,0.0,0.0,0.0,0.0,0.0,0.0,-1.0592,-1.2167,-1.3014,-1.4038,-1.5211,-1.658,-1.7202,-1.7932,-1.8887,-1.9042,-1.9372,-2.0261,-2.0404,-2.0629,-2.11,-2.0742,-2.0645,-2.1001,-2.0726,-2.0936,-2.1973,-2.236,-2.3107,-2.4628,-2.4782,-2.4961,-2.5855,-2.5436,-2.4798,-2.4236,-2.4057,-2.4292,-2.4934,-2.4756,-2.4506,-2.5191,-2.488,-2.4282,-2.3684,-2.3529,-2.3512,-2.3494,-2.3512,-2.3526,-2.3646,-2.3692,-2.3801,-2.4025,-2.4229,-2.4465,-0.709,-0.7023,-0.6991,-0.7045,-0.7182,-0.7771,-0.8185,-0.8387,-0.8447,-0.8517,-0.8517,-0.9017,-0.9285,-0.9436,-1.0256,-1.0726,-1.0906,-1.1348,-1.1564,-1.1685,-1.1685,-1.1755,-1.1809,-1.2058,-1.2182,-1.2305,-1.2663,-1.2943,-1.3003,-1.2864,-1.2659,-1.2379,-1.2316,-1.2226,-1.2045,0.0,0.0,0.0,-1.3035,-1.3409,-1.3873,-1.4046,-1.3914,-1.3597,-1.3346,0.0,-1.2123,-1.1595,-1.1068,-1.0631,-1.0412,0.0,0.0,0.0,0.0,0.0,0.0,0.0,0.0,0.0,0.0,0.0,-1.1286,-1.1099,-1.07,-1.2942,-1.4223,-1.3704,-1.5722,-1.7136,-1.7241,-1.7877,-1.8654,-1.9451,-1.97,-2.0093,-2.083,-2.1021,-2.0985,-2.0532,-2.0855,-2.0922,-2.0613,-2.0839,-2.1212,-2.1455,-2.1551,-2.2034,-2.3141,-2.4048,-2.4722,-2.5119,-2.5092,-2.4954,-2.4816,-2.4712,-2.4678,-2.5011,-2.5073,-2.4818,-2.455,-2.4529,-2.4264,-2.3613,-2.3494,-2.3494,-2.3494,-2.3494,-2.3499,-2.3544,-2.362,-2.3798,-2.4116,-2.4229,-2.4303,-0.7076,0.0,-0.7123,-0.7155,0.0,-0.77,-0.8106,-0.8524,-0.8789,-0.8856,-0.8861,-0.9147,-0.9342,-0.9521,-1.0244,-1.0688,-1.0807,-1.1365,-1.1622,-1.1622,-1.1622,-1.1622,-1.1622,-1.1755,-1.1941,-1.2127,-1.2436,-1.2674,-1.2964,-1.2856,-1.2651,-1.2389,-1.2173,-1.1947,-1.1637,-1.1628,-1.1778,-1.2184,-1.2559,-1.3025,-1.3542,-1.3552,-1.3556,-1.3571,0.0,0.0,0.0,0.0,0.0,0.0,0.0,0.0,0.0,0.0,0.0,-0.9656,-0.9828,-1.011,-1.046,-1.0877,-1.1558,-1.2595,-1.3402,-1.3572,-1.2982,-1.4327,-1.5238,-1.5373,-1.7139,-1.8238,-1.8127,-1.8886,-1.9589,-2.0031,-2.0208,-2.0447,-2.0862,-2.1023,-2.0927,-2.0655,-2.0942,-2.1038,-2.0732,-2.1051,-2.1277,-2.1294,-2.1325,-2.1533,-2.2188,-2.3204,-2.4109,-2.4861,-2.5005,-2.485,-2.4505,-2.4419,-2.4419,-2.4384,-2.4147,-2.4031,-2.4103,-2.3944,-2.3707,-2.3431,-2.3448,-2.3494,-2.3494,-2.3494,-2.3494,-2.3517,-2.3567,-2.3707,-2.4018,-2.4154,-2.4248,-0.6791,-0.7318,-0.7179,-0.7343,-0.769,-0.762,-0.7983,-0.8623,0.0,0.0,0.0,-0.9162,-0.9328,-0.9585,-1.0129,-1.0443,-1.0635,-1.1136,-1.136,-1.1303,-1.1435,-1.1428,-1.1498,-1.156,-1.1747,-1.1996,-1.2065,-1.2375,-1.285,-1.2677,-1.2522,-1.238,-1.2069,-1.1713,-1.1302,-1.1276,-1.1477,-1.1778,-1.2175,-1.2706,-1.3266,-1.3112,-1.3195,-1.3585,-1.3184,-1.2833,-1.262,-1.1906,-1.1514,-1.1549,-1.1124,-1.0826,-1.0734,-1.0766,-1.0896,-1.1125,-1.0969,-1.1253,-1.2154,-1.2076,-1.2555,-1.3819,-1.5188,-1.5758,-1.5174,-1.5435,-1.6049,-1.7102,-1.8185,-1.8847,-1.8951,-1.9695,-2.0289,-2.046,-2.0494,-2.0545,-2.0728,-2.0794,-2.0827,-2.0827,-2.0942,-2.1055,-2.1007,-2.1135,-2.1246,-2.1262,-2.1294,-2.1402,-2.173,-2.2525,-2.3418,-2.423,-2.4384,-2.4298,-2.3805,-2.3626,-2.3598,-2.3591,-2.3116,-2.2997,-2.3493,-2.3422,-2.3197,-2.3289,-2.3424,-2.3494,-2.3494,-2.3494,-2.3494,-2.3494,-2.3517,-2.3589,-2.3915,-2.4077,-2.421,-0.6167,-0.6714,-0.6696,-0.6988,-0.7596,-0.788,-0.8245,-0.867,-0.9015,-0.9193,-0.9211,-0.9204,-0.9248,-0.9291,-0.9788,-0.9985,-0.979,-1.0331,-1.0464,0.0,-1.0674,-1.0926,-1.0926,-1.1373,-1.163,-1.1685,-1.2003,-1.2127,-1.2243,-1.2687,-1.2786,-1.253,-1.2388,-1.1961,-1.1327,-1.1276,-1.1326,-1.1368,-1.1778,-1.2255,-1.2871,-1.2967,-1.3195,-1.3552,-1.3311,-1.3141,-1.3092,-1.2614,-1.2438,-1.264,-1.2194,-1.1675,-1.1262,-1.143,-1.128,-1.0738,-1.1627,-1.2455,-1.3006,-1.3893,-1.4843,-1.5805,-1.6642,-1.6889,-1.6508,-1.6951,-1.7412,-1.7863,-1.8505,-1.9104,-1.9596,-1.9778,-1.9995,-2.0254,-2.0426,-2.0527,-2.0561,-2.0695,-2.081,-2.0761,-2.0827,-2.086,-2.086,-2.099,-2.1135,-2.1135,-2.123,-2.1371,-2.1711,-2.2161,-2.262,-2.2924,-2.3039,-2.297,-2.2944,-2.2884,-2.2892,-2.285,-2.2815,-2.2773,-2.3076,-2.3117,-2.3144,-2.3265,-2.3424,-2.3494,-2.3494,-2.3494,-2.3494,-2.3494,-2.3494,-2.3611,-2.3915,-2.4016,-2.4135,-0.547,-0.6093,-0.6483,-0.6795,-0.7099,-0.7795,-0.8178,-0.8389,-0.8796,-0.8921,-0.894,-0.9158,-0.9228,-0.919,-0.9822,-0.9962,-0.965,-1.0122,-1.023,-1.0028,-1.0281,-1.0541,-1.0807,-1.1059,-1.131,-1.1622,-1.1755,-1.1941,-1.2127,-1.2367,-1.2498,-1.248,-1.2214,-1.1918,-1.1593,-1.137,-1.1276,-1.1276,-1.1477,-1.1819,-1.2304,-1.2598,-1.2936,-1.3243,-1.3244,-1.3235,-1.3195,-1.2979,-1.2928,-1.3071,-1.2991,-1.2827,-1.2571,-1.2646,-1.2623,-1.2447,-1.3129,-1.377,-1.4171,-1.5227,-1.6083,-1.6501,-1.7315,-1.7716,-1.7553,-1.7852,-1.8134,-1.8271,-1.8641,-1.9011,-1.931,-1.9493,-1.9711,-1.9995,-2.0085,-2.0204,-2.0357,-2.0475,-2.0527,-2.0543,-2.0595,-2.0613,-2.0628,-2.0827,-2.0941,-2.0974,-2.1087,-2.1309,-2.1617,-2.1873,-2.2163,-2.2443,-2.2542,-2.2596,-2.2685,-2.2712,-2.2712,-2.2712,-2.2712,-2.2721,-2.2799,-2.297,-2.3119,-2.3193,-2.336,-2.3494,-2.3494,-2.3494,-2.3494,-2.3494,-2.3494,-2.3611,-2.3792,-2.3978,-2.421,-0.4851,-0.5467,-0.5938,-0.6331,-0.6641,-0.7407,-0.7795,-0.8025,-0.8322,-0.8399,-0.8475,-0.8937,-0.9065,-0.899,-0.971,-0.9834,-0.9582,-0.9902,-1.0,-0.9744,-0.9798,-1.0091,-1.0415,-1.0548,-1.0926,-1.1373,-1.1442,-1.1615,-1.1934,-1.2065,-1.2255,-1.2406,-1.2019,-1.182,-1.178,-1.1464,-1.1276,-1.1276,-1.1276,-1.1469,-1.1877,-1.2283,-1.2647,-1.2996,-1.3202,-1.3299,-1.3379,-1.3303,-1.3306,-1.339,-1.3527,-1.3604,-1.3604,-1.3604,-1.3715,-1.3997,-1.4225,-1.4641,-1.5182,-1.6127,-1.6758,-1.6889,-1.7583,-1.8069,-1.8202,-1.8361,-1.8439,-1.8517,-1.8683,-1.8836,-1.8936,-1.9139,-1.9398,-1.966,-1.9767,-1.9909,-2.015,-2.0254,-2.0304,-2.0304,-2.0407,-2.0444,-2.0494,-2.0628,-2.0761,-2.0827,-2.0958,-2.1214,-2.1511,-2.1587,-2.1797,-2.2147,-2.2332,-2.2487,-2.2659,-2.2712,-2.2712,-2.2712,-2.2712,-2.2712,-2.2721,-2.2902,-2.307,-2.3119,-2.3289,-2.343,-2.3494,-2.3494,-2.3494,-2.3494,-2.3494,-2.3526,-2.3689,-2.3958,-2.421,-0.4233,-0.4776,-0.4859,-0.555,-0.656,-0.6718,-0.7099,-0.7561,-0.7633,-0.7633,-0.771,-0.8394,-0.877,-0.8751,-0.9205,-0.9278,-0.9098,-0.9265,-0.9245,-0.9075,-0.925,-0.9396,-0.9524,-0.9901,-1.0345,-1.08,-1.087,-1.1185,-1.1622,-1.1934,-1.2255,-1.2438,-1.2101,-1.1856,-1.1797,-1.1473,-1.1276,-1.1276,-1.1276,-1.1469,-1.1877,-1.2274,-1.2657,-1.3016,-1.3379,-1.37,-1.3856,-1.368,-1.3674,-1.3902,-1.3731,-1.3615,-1.3615,-1.3615,-1.3726,-1.3993,-1.4049,-1.451,-1.5621,-1.6328,-1.6915,-1.7354,-1.7504,-1.7774,-1.8109,-1.8202,-1.8321,-1.8439,-1.8503,-1.8659,-1.8874,-1.895,-1.9101,-1.9398,-1.9624,-1.9823,-1.9909,-2.0115,-2.0304,-2.0304,-2.0339,-2.0339,-2.0339,-2.046,-2.0579,-2.081,-2.0925,-2.1103,-2.123,-2.1309,-2.154,-2.194,-2.2231,-2.246,-2.2632,-2.2712,-2.2712,-2.2712,-2.2712,-2.2712,-2.2738,-2.2799,-2.2944,-2.3095,-2.3217,-2.336,-2.3471,-2.3494,-2.3494,-2.3494,-2.3499,-2.3526,-2.3667,-2.3876,-2.4114,-0.4055,-0.4243,-0.4636,-0.5227,-0.6018,-0.6405,-0.6718,-0.7026,-0.7334,-0.748,-0.7561,-0.7863,-0.8093,-0.8403,-0.878,-0.8965,-0.8968,-0.8888,-0.888,-0.8918,-0.8881,-0.9022,-0.9332,-0.946,-0.9837,-1.0345,-1.0674,-1.0933,-1.1185,-1.1817,-1.2174,-1.2229,-1.2028,-1.1878,-1.1797,-1.1464,-1.1276,-1.1276,-1.1276,-1.1377,-1.1578,-1.1927,-1.2314,-1.2706,-1.3025,-1.3409,-1.3752,-1.3772,-1.3952,-1.4203,-1.425,-1.4313,-1.4488,-1.4488,-1.4531,-1.4661,-1.4834,-1.5259,-1.6014,-1.6481,-1.6808,-1.7018,-1.7297,-1.7611,-1.7774,-1.8029,-1.8242,-1.8307,-1.8439,-1.8556,-1.8659,-1.8659,-1.876,-1.9064,-1.9384,-1.9624,-1.9788,-2.01,-2.0304,-2.0304,-2.0304,-2.0304,-2.0304,-2.0339,-2.0494,-2.0728,-2.0893,-2.099,-2.1151,-2.1277,-2.1526,-2.1882,-2.2084,-2.2298,-2.2615,-2.2712,-2.2712,-2.2712,-2.2712,-2.2712,-2.2712,-2.2799,-2.2927,-2.3052,-2.3175,-2.3336,-2.3494,-2.3494,-2.3494,-2.3494,-2.3517,-2.3544,-2.3689,-2.3774,-2.3959,-0.3981,-0.3982,-0.435,-0.4846,-0.5395,-0.586,-0.6251,-0.6637,-0.7099,-0.7326,-0.748,-0.748,-0.7638,-0.7944,-0.8327,-0.8694,-0.8901,-0.8769,-0.8829,-0.8953,-0.8716,-0.8766,-0.9092,-0.9087,-0.9332,-0.9773,-1.0161,-1.0548,-1.08,-1.1365,-1.1872,-1.2035,-1.1889,-1.1874,-1.201,-1.1587,-1.137,-1.1422,-1.1336,-1.1276,-1.1318,-1.1578,-1.1918,-1.2323,-1.2783,-1.316,-1.342,-1.3821,-1.4114,-1.428,-1.4569,-1.48,-1.4971,-1.5062,-1.5119,-1.5119,-1.5334,-1.5635,-1.6013,-1.625,-1.6497,-1.6723,-1.7089,-1.7352,-1.7516,-1.7828,-1.8029,-1.8109,-1.8228,-1.8361,-1.8478,-1.8478,-1.8581,-1.8798,-1.9139,-1.9472,-1.966,-2.0045,-2.0304,-2.0304,-2.0304,-2.0304,-2.0304,-2.0304,-2.0407,-2.0662,-2.0761,-2.0893,-2.1151,-2.1277,-2.1464,-2.1869,-2.1969,-2.2198,-2.2588,-2.2712,-2.2712,-2.2712,-2.2712,-2.2712,-2.2712,-2.2799,-2.2927,-2.3028,-2.3193,-2.3313,-2.3471,-2.3494,-2.3494,-2.3494,-2.3517,-2.3522,-2.3598,-2.3667,-2.3837,-0.3981,-0.3895,-0.3884,-0.4245,-0.4781,-0.4854,-0.5476,-0.6563,-0.6637,-0.6949,-0.7484,-0.748,-0.748,-0.7561,-0.7944,-0.8322,-0.8732,-0.8901,-0.9047,-0.9184,-0.8953,-0.8727,-0.8522,-0.8582,-0.8835,-0.9274,-0.9466,-0.9913,-1.0737,-1.0863,-1.1303,-1.2035,-1.1676,-1.1795,-1.2225,-1.165,-1.1428,-1.1642,-1.1439,-1.1276,-1.1276,-1.1326,-1.1528,-1.1977,-1.2589,-1.2967,-1.3112,-1.3668,-1.402,-1.402,-1.443,-1.4697,-1.4743,-1.4971,-1.5119,-1.5119,-1.5119,-1.5289,-1.5546,-1.5724,-1.5976,-1.6582,-1.6765,-1.6964,-1.7434,-1.7557,-1.7693,-1.7868,-1.7949,-1.8123,-1.84,-1.8439,-1.8478,-1.8581,-1.904,-1.9339,-1.9413,-1.994,-2.0235,-2.0304,-2.0304,-2.0304,-2.0304,-2.0304,-2.0357,-2.0527,-2.0695,-2.086,-2.1055,-2.1183,-2.1402,-2.1648,-2.1899,-2.2169,-2.2588,-2.2712,-2.2712,-2.2712,-2.2712,-2.2712,-2.2712,-2.2738,-2.2893,-2.3003,-2.3102,-2.3247,-2.3407,-2.3494,-2.3494,-2.3494,-2.3494,-2.3522,-2.3567,-2.3642,-2.3795,-0.4155,-0.4061,-0.3912,-0.401,-0.4243,-0.4575,-0.5162,-0.6015,-0.6409,-0.6945,-0.7407,-0.748,-0.748,-0.748,-0.7638,-0.8097,-0.8685,-0.8635,-0.8937,-0.9349,-0.9195,-0.8958,-0.8754,-0.8737,-0.8717,-0.8846,-0.9145,-0.9652,-1.0218,-1.0275,-1.0604,-1.1128,-1.1102,-1.1301,-1.1717,-1.1495,-1.1354,-1.1481,-1.1353,-1.1276,-1.1276,-1.1276,-1.1368,-1.1528,-1.2008,-1.254,-1.2967,-1.3218,-1.3563,-1.3973,-1.415,-1.4384,-1.4708,-1.4971,-1.5119,-1.5119,-1.5119,-1.5153,-1.5334,-1.5736,-1.61,-1.6349,-1.6808,-1.706,-1.7269,-1.7434,-1.757,-1.7666,-1.7842,-1.7963,-1.8083,-1.8242,-1.8361,-1.8517,-1.8836,-1.9176,-1.9398,-1.9747,-2.0065,-2.022,-2.0304,-2.0304,-2.0304,-2.0304,-2.0373,-2.046,-2.0561,-2.0695,-2.0893,-2.1055,-2.1246,-2.1448,-2.1661,-2.1957,-2.2443,-2.2632,-2.2703,-2.2712,-2.2712,-2.2712,-2.2712,-2.279,-2.2919,-2.302,-2.3102,-2.3247,-2.3448,-2.3494,-2.3494,-2.3494,-2.3494,-2.3494,-2.3494,-2.3642,-2.3792,-0.4224,-0.4148,-0.3975,-0.3901,-0.397,-0.4277,-0.4776,-0.5315,-0.5783,-0.6405,-0.7099,-0.7176,-0.733,-0.748,-0.748,-0.7868,-0.8461,-0.8482,-0.8911,-0.9567,-0.94,-0.9157,-0.8972,-0.8934,-0.8743,-0.8609,-0.8835,-0.9268,-0.9773,-0.9894,-1.0281,-1.078,-1.089,-1.1216,-1.1592,-1.1439,-1.1364,-1.1453,-1.1378,-1.1276,-1.1276,-1.1276,-1.1276,-1.1326,-1.1578,-1.2067,-1.2783,-1.3064,-1.3362,-1.3821,-1.3915,-1.4197,-1.4651,-1.488,-1.5017,-1.5062,-1.5119,-1.5119,-1.5153,-1.5558,-1.5925,-1.62,-1.6607,-1.6947,-1.7157,-1.7323,-1.7406,-1.7447,-1.7543,-1.772,-1.7788,-1.7895,-1.8069,-1.8386,-1.8697,-1.8988,-1.9213,-1.9588,-1.9909,-2.022,-2.0304,-2.0304,-2.0304,-2.0304,-2.0357,-2.0494,-2.0494,-2.0595,-2.0761,-2.0893,-2.1055,-2.1261,-2.1448,-2.1781,-2.2175,-2.2443,-2.2632,-2.2659,-2.2712,-2.2712,-2.2738,-2.2816,-2.2893,-2.302,-2.3168,-2.3313,-2.3407,-2.3494,-2.3494,-2.3494,-2.3494,-2.3494,-2.3567,-2.3685,-2.3834,-0.4177,-0.4148,-0.3977,-0.3906,-0.3887,-0.388,-0.4153,-0.4698,-0.4779,-0.5553,-0.6479,-0.6637,-0.6945,-0.7326,-0.748,-0.7714,-0.8174,-0.8452,-0.896,-0.9547,-0.9588,-0.934,-0.8947,-0.8978,-0.8759,-0.8528,-0.8517,-0.877,-0.9274,-0.9646,-1.0148,-1.0737,-1.1163,-1.1494,-1.2042,-1.1628,-1.1559,-1.1685,-1.1469,-1.131,-1.1276,-1.1276,-1.1276,-1.1276,-1.1368,-1.1728,-1.2471,-1.3142,-1.3515,-1.3621,-1.3821,-1.4197,-1.4616,-1.4708,-1.4846,-1.5062,-1.5119,-1.5119,-1.5108,-1.5198,-1.5558,-1.6013,-1.6188,-1.6534,-1.7031,-1.7157,-1.7199,-1.7227,-1.724,-1.7323,-1.7488,-1.7557,-1.7774,-1.8149,-1.8567,-1.8822,-1.9011,-1.9442,-1.9945,-2.022,-2.0304,-2.0304,-2.0304,-2.0304,-2.0339,-2.0426,-2.0494,-2.0527,-2.0695,-2.0794,-2.0893,-2.1055,-2.1309,-2.1617,-2.1928,-2.2231,-2.2443,-2.2632,-2.2685,-2.2712,-2.2712,-2.2764,-2.2842,-2.2952,-2.3102,-2.3265,-2.3383,-2.3471,-2.3494,-2.3494,-2.3494,-2.3517,-2.3567,-2.3682,-2.3834,-0.4226,-0.4163,-0.4046,-0.3957,-0.3893,-0.3801,-0.4153,-0.4701,-0.4701,-0.5165,-0.5935,-0.6405,-0.6714,-0.6945,-0.7326,-0.7714,-0.8102,-0.825,-0.8675,-0.9301,-0.9665,-0.9647,-0.9367,-0.9179,-0.8894,-0.8571,-0.8517,-0.8576,-0.8765,-0.8958,-0.9396,-1.0155,-1.0408,-1.0982,-1.1725,-1.1802,-1.1765,-1.1592,-1.1659,-1.155,-1.131,-1.1276,-1.1276,-1.1326,-1.1578,-1.1868,-1.2085,-1.2569,-1.3094,-1.3573,-1.3668,-1.3952,-1.4419,-1.4616,-1.4834,-1.5074,-1.5119,-1.5119,-1.5153,-1.5322,-1.5501,-1.5768,-1.6057,-1.6392,-1.6765,-1.685,-1.6976,-1.7157,-1.7212,-1.724,-1.731,-1.7434,-1.7693,-1.8163,-1.8347,-1.8581,-1.8898,-1.9427,-1.9909,-2.022,-2.0304,-2.0304,-2.0304,-2.0304,-2.0304,-2.0357,-2.0373,-2.0407,-2.0475,-2.0662,-2.0794,-2.0893,-2.1183,-2.1464,-2.1751,-2.2032,-2.2248,-2.2497,-2.2632,-2.2712,-2.2712,-2.2755,-2.2816,-2.2902,-2.3077,-2.3223,-2.3336,-2.343,-2.3494,-2.3494,-2.3494,-2.3517,-2.3522,-2.3638,-2.3813,-0.4267,-0.4208,-0.4085,-0.4026,-0.3981,-0.3836,-0.4019,-0.4358,-0.4403,-0.4696,-0.5318,-0.5709,-0.6173,-0.6637,-0.7022,-0.7407,-0.7868,-0.8025,-0.8331,-0.8865,-0.9473,-0.9649,-0.9567,-0.9319,-0.9017,-0.8711,-0.8646,-0.8597,-0.8517,-0.8705,-0.9151,-0.9646,-0.9894,-1.0408,-1.1212,-1.1413,-1.1371,-1.1285,-1.1489,-1.1444,-1.1251,-1.1217,-1.1276,-1.1326,-1.1578,-1.1778,-1.1877,-1.2116,-1.2608,-1.3276,-1.3525,-1.381,-1.4244,-1.4384,-1.4605,-1.488,-1.4971,-1.4971,-1.5108,-1.5277,-1.5513,-1.5635,-1.5969,-1.6275,-1.6522,-1.668,-1.6976,-1.6976,-1.7102,-1.7212,-1.724,-1.731,-1.7598,-1.8029,-1.8163,-1.8425,-1.886,-1.9332,-1.9747,-2.0045,-2.022,-2.027,-2.0304,-2.0304,-2.0304,-2.0304,-2.0304,-2.0304,-2.0339,-2.0543,-2.0662,-2.0827,-2.1055,-2.134,-2.1648,-2.1857,-2.2049,-2.2332,-2.2596,-2.2659,-2.2712,-2.2738,-2.279,-2.2919,-2.3028,-2.3175,-2.3313,-2.343,-2.3494,-2.3494,-2.3494,-2.3517,-2.3522,-2.362,-2.3753,-0.4295,-0.4271,-0.4114,-0.4081,-0.4095,-0.3877,-0.3893,-0.3941,-0.3878,-0.4153,-0.4621,-0.4776,-0.5401,-0.6251,-0.6483,-0.6865,-0.7407,-0.7718,-0.8025,-0.8331,-0.8851,-0.9275,-0.9499,-0.9367,-0.913,-0.8915,-0.8856,-0.8737,-0.8581,-0.8916,-0.9268,-0.9396,-0.9773,-1.0212,-1.069,-1.0744,-1.0849,-1.1027,-1.1217,-1.1186,-1.1013,-1.1184,-1.1276,-1.1276,-1.1318,-1.1477,-1.1769,-1.1927,-1.2255,-1.2919,-1.342,-1.3716,-1.3973,-1.402,-1.4244,-1.4651,-1.4697,-1.4834,-1.5017,-1.5062,-1.5244,-1.5501,-1.5836,-1.62,-1.6275,-1.665,-1.6934,-1.685,-1.706,-1.7212,-1.7212,-1.724,-1.7461,-1.7842,-1.8123,-1.8425,-1.8822,-1.9213,-1.9545,-1.9854,-2.0065,-2.0304,-2.0304,-2.0304,-2.0304,-2.0304,-2.0304,-2.0304,-2.0339,-2.0475,-2.0595,-2.0794,-2.1023,-2.1246,-2.1556,-2.1811,-2.2003,-2.2175,-2.2497,-2.2659,-2.2712,-2.2738,-2.2738,-2.2868,-2.302,-2.3144,-2.3265,-2.3383,-2.3471,-2.3494,-2.3494,-2.3494,-2.3544,-2.3598,-2.3667,-0.3997,-0.4202,-0.4155,-0.4073,-0.3973,-0.3885,-0.3834,-0.3799,-0.3779,-0.3921,-0.4153,-0.4543,-0.4857,-0.5243,-0.5705,-0.6247,-0.6714,-0.6945,-0.7488,-0.803,-0.8255,-0.8895,-0.9469,-0.9518,-0.9351,-0.9125,-0.9026,-0.8896,-0.8759,-0.8783,-0.8958,-0.9268,-0.9396,-0.9709,-1.0123,-1.0441,-1.0629,-1.082,-1.1009,-1.1161,-1.1153,-1.12,-1.1276,-1.1276,-1.1276,-1.1377,-1.1469,-1.1778,-1.2255,-1.2967,-1.3362,-1.3716,-1.3915,-1.3973,-1.4114,-1.443,-1.4466,-1.4558,-1.4754,-1.4846,-1.4971,-1.5187,-1.5424,-1.5603,-1.6156,-1.6362,-1.665,-1.6905,-1.7157,-1.7199,-1.7199,-1.7199,-1.7365,-1.7611,-1.8069,-1.8517,-1.8851,-1.9191,-1.9508,-1.9767,-2.008,-2.0235,-2.027,-2.0304,-2.0304,-2.0304,-2.0304,-2.0304,-2.0339,-2.0494,-2.0662,-2.0827,-2.1023,-2.1214,-2.1464,-2.1751,-2.1969,-2.2084,-2.2354,-2.2685,-2.2712,-2.2712,-2.2712,-2.2764,-2.2995,-2.3144,-2.3241,-2.3313,-2.3383,-2.3494,-2.3494,-2.3494,-2.3494,-2.3544,-2.3598,-0.3827,-0.4222,-0.4187,-0.4112,-0.4008,-0.3934,-0.3869,-0.3818,-0.3777,-0.3841,-0.3919,-0.4155,-0.4465,-0.4698,-0.5085,-0.5547,-0.6093,-0.617,-0.6633,-0.7411,-0.7949,-0.8642,-0.9304,-0.9575,-0.9593,-0.9357,-0.912,-0.8958,-0.8834,-0.863,-0.8716,-0.8894,-0.8958,-0.9204,-0.9709,-0.9888,-1.0076,-1.0242,-1.0491,-1.0729,-1.0817,-1.0938,-1.1165,-1.1217,-1.1276,-1.1276,-1.1368,-1.1678,-1.2255,-1.2871,-1.3218,-1.3467,-1.3763,-1.3821,-1.3962,-1.4197,-1.4326,-1.4512,-1.4651,-1.4789,-1.4937,-1.5108,-1.5198,-1.5424,-1.5748,-1.5969,-1.6448,-1.665,-1.6892,-1.706,-1.7186,-1.7269,-1.7365,-1.7557,-1.7949,-1.8347,-1.8606,-1.895,-1.9236,-1.9493,-1.9818,-2.01,-2.01,-2.0185,-2.027,-2.0304,-2.0304,-2.0304,-2.0339,-2.0527,-2.0695,-2.0794,-2.0958,-2.1151,-2.134,-2.1631,-2.1969,-2.2113,-2.2381,-2.2685,-2.2712,-2.2712,-2.2712,-2.2764,-2.297,-2.3144,-2.3217,-2.3313,-2.343,-2.3494,-2.3494,-2.3494,-2.3494,-2.3494,-2.3549,-0.3848,-0.4279,-0.4206,-0.4161,-0.4106,-0.3969,-0.3885,-0.3865,-0.3795,-0.3841,-0.3841,-0.3841,-0.4153,-0.4623,-0.454,-0.4929,-0.547,-0.5547,-0.5935,-0.6633,-0.7407,-0.8304,-0.8832,-0.9502,-0.9633,-0.9583,-0.9346,-0.9109,-0.8904,-0.8667,-0.8528,-0.8576,-0.8576,-0.8765,-0.9145,-0.921,-0.934,-0.968,-0.9979,-1.0203,-1.0383,-1.0578,-1.087,-1.1065,-1.1175,-1.1226,-1.1377,-1.1669,-1.2107,-1.2822,-1.2919,-1.3122,-1.3467,-1.3515,-1.3668,-1.3915,-1.414,-1.4337,-1.4616,-1.48,-1.5017,-1.5062,-1.5334,-1.5468,-1.5424,-1.5792,-1.6144,-1.6318,-1.6479,-1.6765,-1.7073,-1.731,-1.7393,-1.7475,-1.7706,-1.7949,-1.8189,-1.8567,-1.886,-1.8936,-1.9442,-1.9752,-1.9874,-2.0065,-2.0304,-2.0304,-2.0304,-2.0304,-2.0339,-2.046,-2.0561,-2.0595,-2.0794,-2.1087,-2.1277,-2.1495,-2.1869,-2.2141,-2.2453,-2.2685,-2.2712,-2.2712,-2.2712,-2.2816,-2.2995,-2.3119,-2.3193,-2.3313,-2.3471,-2.3494,-2.3494,-2.3494,-2.3494,-2.3494,-2.3544,-0.3553,-0.4197,-0.4179,-0.4089,-0.3965,-0.3914,-0.3859,-0.3793,-0.3851,-0.3841,-0.3841,-0.3841,-0.3919,-0.3997,-0.4075,-0.4309,-0.4854,-0.4929,-0.524,-0.5931,-0.6934,-0.7395,-0.7931,-0.878,-0.9518,-0.9591,-0.94,-0.9184,-0.9039,-0.8732,-0.8517,-0.8517,-0.8517,-0.8576,-0.8705,-0.8765,-0.8941,-0.9352,-0.9748,-0.9999,-1.0144,-1.0497,-1.0729,-1.0767,-1.093,-1.1074,-1.1276,-1.1368,-1.1669,-1.2067,-1.2421,-1.2696,-1.3016,-1.316,-1.3314,-1.3621,-1.3763,-1.3915,-1.415,-1.443,-1.4605,-1.48,-1.5062,-1.5289,-1.5501,-1.5603,-1.5881,-1.61,-1.6275,-1.6423,-1.6808,-1.7115,-1.7227,-1.7323,-1.7488,-1.7706,-1.7949,-1.8358,-1.8669,-1.8974,-1.9369,-1.9788,-1.9788,-2.0065,-2.022,-2.027,-2.0304,-2.0304,-2.0339,-2.0441,-2.0441,-2.046,-2.0761,-2.1038,-2.1183,-2.1495,-2.1928,-2.2243,-2.2525,-2.2703,-2.2712,-2.2712,-2.2738,-2.2842,-2.2995,-2.3119,-2.3193,-2.3336,-2.3494,-2.3494,-2.3494,-2.3494,-2.3494,-2.3494,-2.3522,-0.3027,-0.3879,-0.4102,-0.4093,-0.3969,-0.3918,-0.3846,-0.3853,-0.3841,-0.3841,-0.3841,-0.3841,-0.3841,-0.3841,-0.3841,-0.3997,-0.4309,-0.4623,-0.4854,-0.5315,-0.6086,-0.6546,-0.6934,-0.7778,-0.8613,-0.916,-0.9073,-0.8946,-0.881,-0.8647,-0.8517,-0.8517,-0.8517,-0.8517,-0.8517,-0.8517,-0.8641,-0.8871,-0.9144,-0.9377,-0.9563,-0.996,-1.0454,-1.0522,-1.0777,-1.0972,-1.1074,-1.1226,-1.1418,-1.1619,-1.1828,-1.2215,-1.2696,-1.2929,-1.3112,-1.3266,-1.3668,-1.381,-1.401,-1.4244,-1.4466,-1.4569,-1.4789,-1.4971,-1.5187,-1.5277,-1.5558,-1.5824,-1.5957,-1.6076,-1.6637,-1.6808,-1.6976,-1.7199,-1.7282,-1.7447,-1.7747,-1.8135,-1.8489,-1.8721,-1.9087,-1.9384,-1.9603,-1.9925,-2.0185,-2.0235,-2.0304,-2.0304,-2.0304,-2.0373,-2.0373,-2.0475,-2.0744,-2.0974,-2.1119,-2.1479,-2.2044,-2.2343,-2.2552,-2.2659,-2.2712,-2.2738,-2.2721,-2.2876,-2.3045,-2.3144,-2.3247,-2.3383,-2.3494,-2.3494,-2.3494,-2.3494,-2.3522,-2.3567,-2.3594,-0.2324,-0.3385,-0.3751,-0.3927,-0.3841,-0.3753,-0.3752,-0.3849,-0.3841,-0.3841,-0.3841,-0.3841,-0.3841,-0.3841,-0.3841,-0.3841,-0.3921,-0.4231,-0.4543,-0.4696,-0.524,-0.5622,-0.6086,-0.6703,-0.731,-0.8192,-0.8423,-0.8528,-0.8602,-0.8503,-0.8392,-0.8517,-0.8517,-0.8517,-0.8517,-0.8517,-0.8511,-0.863,-0.8734,-0.8759,-0.8834,-0.9221,-0.9701,-1.0173,-1.0624,-1.082,-1.0972,-1.1124,-1.1318,-1.1276,-1.1276,-1.1678,-1.2166,-1.2647,-1.288,-1.2929,-1.343,-1.3668,-1.3763,-1.4093,-1.4337,-1.4337,-1.4616,-1.4697,-1.4789,-1.5017,-1.5244,-1.5457,-1.5635,-1.5901,-1.6509,-1.6723,-1.6892,-1.7115,-1.7212,-1.7282,-1.7529,-1.7868,-1.8149,-1.8464,-1.8836,-1.9161,-1.942,-1.9711,-1.9975,-2.022,-2.027,-2.0304,-2.0304,-2.0304,-2.0339,-2.0441,-2.0677,-2.1119,-2.1277,-2.1493,-2.2073,-2.2332,-2.2569,-2.2632,-2.2685,-2.2712,-2.2747,-2.2902,-2.3052,-2.3151,-2.3271,-2.3407,-2.3476,-2.3494,-2.3494,-2.3494,-2.3544,-2.3616,-2.3642,-0.1507,-0.2088,-0.2644,-0.3088,-0.3343,-0.327,-0.3467,-0.3765,-0.3763,-0.3763,-0.3763,-0.3763,-0.3763,-0.3763,-0.3763,-0.3841,-0.3841,-0.3997,-0.3997,-0.4075,-0.454,-0.4929,-0.5085,-0.5625,-0.6083,-0.646,-0.7265,-0.8085,-0.8339,-0.8297,-0.8268,-0.8447,-0.8517,-0.8517,-0.8517,-0.8517,-0.8517,-0.8544,-0.8598,-0.8632,-0.8551,-0.8776,-0.9158,-0.9658,-1.0205,-1.0616,-1.0913,-1.1124,-1.1276,-1.1276,-1.1276,-1.1377,-1.1628,-1.1918,-1.2264,-1.2608,-1.2987,-1.3314,-1.3362,-1.3763,-1.401,-1.4161,-1.443,-1.4651,-1.4743,-1.4926,-1.5108,-1.5244,-1.5457,-1.5768,-1.6231,-1.6479,-1.6808,-1.7073,-1.7199,-1.7269,-1.7434,-1.7652,-1.7814,-1.8135,-1.8553,-1.8974,-1.9273,-1.9566,-1.9904,-2.015,-2.027,-2.0304,-2.0304,-2.0304,-2.0289,-2.0426,-2.0595,-2.1087,-2.1526,-2.1751,-2.2073,-2.2276,-2.246,-2.2623,-2.2659,-2.2685,-2.279,-2.2919,-2.307,-2.3193,-2.3313,-2.343,-2.3476,-2.3494,-2.3494,-2.3494,-2.3544,-2.3571,-2.3571,-0.0531,-0.1386,-0.1949,-0.2404,-0.2837,-0.2774,-0.2902,-0.3137,-0.3137,-0.3137,-0.3137,-0.3137,-0.3215,-0.3374,-0.3452,-0.3528,-0.3763,-0.3841,-0.3841,-0.3919,-0.4075,-0.4231,-0.4311,-0.4851,-0.5085,-0.5399,-0.6173,-0.7149,-0.7751,-0.7999,-0.8143,-0.8447,-0.8517,-0.8517,-0.8517,-0.8517,-0.8517,-0.8527,-0.852,-0.8393,-0.8187,-0.8409,-0.8764,-0.926,-0.9836,-1.036,-1.0667,-1.0922,-1.1175,-1.1276,-1.1276,-1.1276,-1.1377,-1.1477,-1.1778,-1.2175,-1.2638,-1.3016,-1.3064,-1.3515,-1.3773,-1.3821,-1.415,-1.4384,-1.4558,-1.4743,-1.4926,-1.5108,-1.5198,-1.5501,-1.5869,-1.6262,-1.6552,-1.6879,-1.7102,-1.724,-1.731,-1.7434,-1.7639,-1.7855,-1.8214,-1.8683,-1.9176,-1.9472,-1.9833,-2.0045,-2.0235,-2.0304,-2.0304,-2.0304,-2.0289,-2.046,-2.0628,-2.099,-2.1464,-2.1721,-2.194,-2.2147,-2.2377,-2.2525,-2.2605,-2.2659,-2.2764,-2.2919,-2.3045,-2.3168,-2.3313,-2.3407,-2.3453,-2.3494,-2.3494,-2.3517,-2.3522,-2.3544,-2.3567,0.0529,-0.052,-0.1096,-0.1734,-0.2189,-0.2377,-0.2431,-0.251,-0.251,-0.2588,-0.251,-0.251,-0.2746,-0.2982,-0.3141,-0.3376,-0.3763,-0.3841,-0.3841,-0.3841,-0.3841,-0.3841,-0.3997,-0.4231,-0.4543,-0.4585,-0.4987,-0.5728,-0.6941,-0.7458,-0.7952,-0.8317,-0.8447,-0.8517,-0.8517,-0.8517,-0.8517,-0.8431,-0.8215,-0.8017,-0.7849,-0.8074,-0.8421,-0.8798,-0.9368,-0.9888,-1.0205,-1.0557,-1.0863,-1.1116,-1.1276,-1.1276,-1.1276,-1.1276,-1.1418,-1.181,-1.2393,-1.2735,-1.2977,-1.3208,-1.3515,-1.3668,-1.3868,-1.4104,-1.4326,-1.4558,-1.4846,-1.5028,-1.5108,-1.5334,-1.578,-1.6057,-1.6392,-1.6765,-1.7073,-1.7199,-1.724,-1.731,-1.7434,-1.7679,-1.7949,-1.8333,-1.886,-1.9362,-1.969,-1.9975,-2.0185,-2.0304,-2.0304,-2.0304,-2.0339,-2.0527,-2.0728,-2.0958,-2.1309,-2.1556,-2.1781,-2.1986,-2.2248,-2.247,-2.2552,-2.2632,-2.2764,-2.2868,-2.297,-2.307,-2.3241,-2.3383,-2.3407,-2.3471,-2.3494,-2.3517,-2.3499,-2.3526,-2.3571,0.1567,0.1298,0.0,-0.0814,-0.1294,-0.1741,-0.2195,-0.2433,-0.2431,-0.251,-0.2431,-0.2431,-0.2431,-0.2668,-0.2982,-0.3374,-0.3684,-0.3841,-0.3841,-0.3841,-0.3841,-0.3841,-0.3841,-0.3841,-0.3988,-0.4031,-0.4313,-0.5234,-0.6272,-0.6764,-0.7339,-0.7922,-0.8317,-0.8517,-0.8447,-0.8517,-0.8517,-0.8436,-0.8081,-0.7645,-0.7378,-0.7614,-0.7842,-0.8096,-0.862,-0.9249,-0.9681,-1.0079,-1.049,-1.0922,-1.1175,-1.1276,-1.1276,-1.1276,-1.1326,-1.1469,-1.1769,-1.2166,-1.2559,-1.2929,-1.3256,-1.3525,-1.3821,-1.3973,-1.415,-1.4477,-1.48,-1.5074,-1.5119,-1.5345,-1.5792,-1.6113,-1.6534,-1.6778,-1.7018,-1.7115,-1.7199,-1.7227,-1.7352,-1.7557,-1.7814,-1.8175,-1.8592,-1.9087,-1.9508,-1.9818,-2.0065,-2.022,-2.0304,-2.0304,-2.0339,-2.0527,-2.0761,-2.1038,-2.1167,-2.1433,-2.1648,-2.184,-2.2101,-2.2388,-2.2497,-2.2579,-2.2659,-2.279,-2.2893,-2.302,-2.3193,-2.3313,-2.3383,-2.343,-2.3494,-2.3494,-2.3517,-2.3544,-2.3594,0.2047,0.1615,0.1071,0.0242,-0.0557,-0.0866,-0.1334,-0.1727,-0.1805,-0.1805,-0.1805,-0.1806,-0.1962,-0.2275,-0.2824,-0.3219,-0.3452,-0.3684,-0.3763,-0.3841,-0.3841,-0.3841,-0.3841,-0.3837,-0.3748,-0.3741,-0.3858,-0.4462,-0.5421,-0.6229,-0.6802,-0.7657,-0.8052,-0.8182,-0.8252,-0.8452,-0.8517,-0.8382,-0.8048,-0.7569,-0.7324,-0.7456,-0.767,-0.7723,-0.8256,-0.8784,-0.9309,-0.9562,-1.0182,-1.071,-1.1023,-1.1175,-1.1276,-1.1276,-1.1326,-1.1326,-1.1477,-1.1778,-1.2166,-1.2686,-1.3025,-1.3266,-1.3573,-1.3821,-1.402,-1.443,-1.4754,-1.4846,-1.5017,-1.5289,-1.557,-1.5736,-1.6001,-1.6293,-1.6765,-1.6892,-1.7018,-1.7186,-1.7269,-1.7529,-1.7733,-1.8055,-1.845,-1.9026,-1.9472,-1.9747,-1.9995,-2.0185,-2.0323,-2.0392,-2.0426,-2.0494,-2.0761,-2.1038,-2.1135,-2.1309,-2.1526,-2.1721,-2.194,-2.2231,-2.2443,-2.2552,-2.2659,-2.2738,-2.2842,-2.2995,-2.3168,-2.3265,-2.336,-2.343,-2.3494,-2.3494,-2.3494,-2.3517,-2.3571,0.2419,0.1913,0.1788,0.1115,0.0157,0.0,-0.0393,-0.0786,-0.1021,-0.1021,-0.11,-0.1257,-0.157,-0.196,-0.251,-0.2824,-0.3139,-0.3452,-0.3684,-0.3763,-0.3841,-0.3841,-0.3841,-0.3834,-0.3716,-0.3624,-0.3546,-0.4099,-0.4752,-0.5504,-0.6272,-0.7326,-0.7722,-0.7922,-0.8052,-0.8172,-0.8339,-0.8237,-0.7962,-0.7596,-0.7318,-0.7382,-0.7512,-0.768,-0.7925,-0.8362,-0.8883,-0.9197,-0.9718,-1.03,-1.0718,-1.0922,-1.1116,-1.1175,-1.1226,-1.1276,-1.1377,-1.1477,-1.1819,-1.2255,-1.2735,-1.3064,-1.3362,-1.3716,-1.401,-1.4384,-1.4708,-1.4754,-1.4971,-1.5108,-1.5289,-1.5501,-1.5724,-1.6076,-1.6411,-1.6539,-1.6752,-1.7018,-1.7269,-1.7488,-1.7733,-1.7963,-1.8425,-1.9003,-1.9398,-1.9675,-1.9925,-2.0185,-2.0289,-2.0392,-2.0392,-2.0441,-2.0695,-2.0974,-2.1023,-2.1151,-2.1371,-2.1631,-2.1869,-2.2101,-2.236,-2.2552,-2.2685,-2.2764,-2.2816,-2.2944,-2.3119,-2.3241,-2.3319,-2.343,-2.3494,-2.3494,-2.3517,-2.3517,-2.3589,0.2608,0.2521,0.1905,0.1571,0.1333,0.0785,0.0471,0.0236,-0.0157,-0.0393,-0.0471,-0.0943,-0.1334,-0.1803,-0.1959,-0.2431,-0.3061,-0.3141,-0.3452,-0.3686,-0.3841,-0.3841,-0.3837,-0.3742,-0.3703,-0.3614,-0.352,-0.3792,-0.4263,-0.4745,-0.576,-0.6811,-0.7265,-0.7657,-0.7857,-0.7982,-0.799,-0.7974,-0.7876,-0.7725,-0.7445,-0.7339,-0.7345,-0.7377,-0.7324,-0.7408,-0.783,-0.8461,-0.9093,-0.9673,-1.0146,-1.0616,-1.082,-1.0972,-1.1074,-1.1175,-1.1276,-1.1377,-1.1569,-1.1868,-1.2353,-1.288,-1.3362,-1.3668,-1.3915,-1.4244,-1.4477,-1.4662,-1.4891,-1.5198,-1.5379,-1.5591,-1.5635,-1.5856,-1.6107,-1.6411,-1.6667,-1.7018,-1.7282,-1.7475,-1.7733,-1.7963,-1.8242,-1.8774,-1.9228,-1.9508,-1.9889,-2.0185,-2.027,-2.0339,-2.0339,-2.0407,-2.0628,-2.0827,-2.086,-2.1055,-2.1371,-2.1648,-2.1869,-2.2118,-2.2349,-2.2542,-2.2712,-2.2747,-2.2825,-2.2927,-2.3095,-2.3241,-2.3383,-2.3453,-2.3494,-2.3494,-2.3522,-2.3544,-2.3638,0.258,0.2544,0.2283,0.1959,0.1567,0.1333,0.0942,0.0629,0.0393,0.0236,0.0236,0.0,-0.0393,-0.0863,-0.1254,-0.1803,-0.2668,-0.3061,-0.3374,-0.3684,-0.3841,-0.3841,-0.3748,-0.3699,-0.363,-0.3548,-0.346,-0.3648,-0.4092,-0.4311,-0.4764,-0.5613,-0.6539,-0.7073,-0.7405,-0.7777,-0.7853,-0.7804,-0.7928,-0.7892,-0.7698,-0.7591,-0.7505,-0.7362,-0.7341,-0.7433,-0.7705,-0.7937,-0.862,-0.9204,-0.9673,-1.0095,-1.0565,-1.0769,-1.0972,-1.1124,-1.1226,-1.1276,-1.1377,-1.1669,-1.2215,-1.288,-1.3362,-1.3668,-1.381,-1.415,-1.428,-1.4466,-1.48,-1.5108,-1.5017,-1.5198,-1.5322,-1.5591,-1.5844,-1.6151,-1.6509,-1.6892,-1.724,-1.7447,-1.7706,-1.7963,-1.8242,-1.8542,-1.895,-1.9362,-1.9782,-2.015,-2.0235,-2.0304,-2.0304,-2.0407,-2.0628,-2.0794,-2.086,-2.1087,-2.1371,-2.1617,-2.184,-2.2089,-2.2304,-2.2569,-2.2712,-2.2764,-2.285,-2.302,-2.3168,-2.3313,-2.3407,-2.3494,-2.3494,-2.3494,-2.3522,-2.3549,-2.3638,0.2549,0.2511,0.251,0.2273,0.1881,0.1881,0.1647,0.1178,0.0942,0.0785,0.0629,0.055,0.0393,-0.0078,-0.0549,-0.1254,-0.2117,-0.2666,-0.3215,-0.3606,-0.3841,-0.3841,-0.3732,-0.3675,-0.3593,-0.3495,-0.3478,-0.3597,-0.371,-0.3897,-0.4292,-0.4888,-0.5617,-0.6214,-0.6872,-0.7512,-0.7876,-0.7897,-0.8011,-0.8148,-0.7908,-0.7806,-0.7736,-0.7501,-0.7426,-0.7356,-0.7524,-0.7723,-0.809,-0.8672,-0.9152,-0.9629,-1.0146,-1.0565,-1.082,-1.1023,-1.1175,-1.1276,-1.1377,-1.1669,-1.2166,-1.2745,-1.317,-1.342,-1.3658,-1.3999,-1.415,-1.4104,-1.4605,-1.4926,-1.4697,-1.4971,-1.5153,-1.5379,-1.5635,-1.5932,-1.6306,-1.6693,-1.7031,-1.7365,-1.7666,-1.7963,-1.8268,-1.8581,-1.8988,-1.9398,-1.9869,-2.015,-2.027,-2.0304,-2.0339,-2.0426,-2.0628,-2.0761,-2.0893,-2.1151,-2.1371,-2.1495,-2.1721,-2.2015,-2.2243,-2.2508,-2.2738,-2.2816,-2.2944,-2.307,-2.3217,-2.336,-2.343,-2.3494,-2.3494,-2.3494,-2.3517,-2.3522,-2.3567,0.2512,0.251,0.251,0.251,0.2431,0.2431,0.2431,0.2196,0.1803,0.1256,0.0864,0.0784,0.0706,0.0471,0.0078,-0.0706,-0.1568,-0.2117,-0.2823,-0.3528,-0.3526,-0.3684,-0.372,-0.3652,-0.3552,-0.3489,-0.3391,-0.3363,-0.3295,-0.3694,-0.3961,-0.4092,-0.4755,-0.5415,-0.6207,-0.7326,-0.7994,-0.8126,-0.8115,-0.8161,-0.818,-0.7984,-0.7892,-0.7715,-0.7538,-0.7459,-0.7307,-0.7461,-0.7777,-0.8037,-0.8679,-0.9204,-0.9718,-1.0249,-1.0667,-1.1124,-1.1226,-1.1276,-1.1326,-1.1669,-1.2017,-1.2461,-1.2842,-1.3132,-1.3515,-1.381,-1.3962,-1.3915,-1.443,-1.4708,-1.4789,-1.4926,-1.5017,-1.5198,-1.5457,-1.5768,-1.6132,-1.6479,-1.6863,-1.724,-1.7611,-1.7949,-1.8254,-1.8606,-1.9064,-1.9508,-1.9975,-2.02,-2.027,-2.0304,-2.0339,-2.0441,-2.0595,-2.0761,-2.0925,-2.1151,-2.134,-2.1464,-2.1617,-2.1899,-2.2169,-2.2436,-2.2642,-2.2825,-2.302,-2.3168,-2.3289,-2.3407,-2.3471,-2.3494,-2.3494,-2.3494,-2.3494,-2.3517,-2.3544,0.251,0.251,0.251,0.251,0.251,0.251,0.251,0.251,0.2273,0.2038,0.1882,0.1881,0.1568,0.1255,0.0939,0.0156,-0.0938,-0.0783,-0.1488,-0.3132,-0.2969,-0.3249,-0.3434,-0.3583,-0.3497,-0.3407,-0.3322,-0.3271,-0.3228,-0.3493,-0.3493,-0.3625,-0.4025,-0.4821,-0.5613,-0.6535,-0.701,-0.7624,-0.794,-0.8191,-0.8382,-0.8274,-0.8097,-0.7817,-0.7688,-0.7462,-0.7117,-0.73,-0.7402,-0.767,-0.8309,-0.8784,-0.9309,-0.9792,-1.036,-1.0769,-1.0922,-1.1124,-1.1226,-1.1477,-1.1678,-1.2067,-1.2461,-1.2842,-1.316,-1.3467,-1.3621,-1.3858,-1.428,-1.4466,-1.4569,-1.4926,-1.5062,-1.5108,-1.5322,-1.5647,-1.6013,-1.6349,-1.6723,-1.7102,-1.7488,-1.7828,-1.8189,-1.8489,-1.895,-1.9362,-1.9797,-2.0115,-2.0235,-2.027,-2.0304,-2.0441,-2.0577,-2.0728,-2.0925,-2.1151,-2.1294,-2.1371,-2.1556,-2.1781,-2.2073,-2.2381,-2.2624,-2.285,-2.307,-2.3259,-2.3313,-2.3383,-2.3471,-2.3494,-2.3494,-2.3494,-2.3494,-2.3522,-2.3567,0.251,0.251,0.251,0.251,0.251,0.251,0.251,0.2507,0.2491,0.2491,0.2499,0.2394,0.223,0.1848,0.1535,0.1069,-0.0229,-0.0231,-0.0536,-0.2225,-0.2313,-0.2584,-0.2979,-0.3352,-0.3432,-0.3346,-0.3279,-0.3226,-0.3226,-0.3226,-0.3226,-0.336,-0.3558,-0.4159,-0.4954,-0.5613,-0.6334,-0.7037,-0.7493,-0.7842,-0.8058,-0.8154,-0.8118,-0.7806,-0.7602,-0.7472,-0.7198,-0.7133,-0.7187,-0.7563,-0.7937,-0.8421,-0.8896,-0.942,-1.0043,-1.0506,-1.0871,-1.1124,-1.1276,-1.1326,-1.1469,-1.1669,-1.2076,-1.2461,-1.2735,-1.2997,-1.318,-1.3505,-1.4071,-1.4326,-1.4477,-1.4834,-1.5062,-1.5062,-1.5198,-1.5513,-1.5824,-1.6163,-1.6466,-1.6892,-1.7269,-1.7652,-1.8069,-1.8411,-1.8745,-1.9199,-1.9603,-1.9854,-2.015,-2.0185,-2.0304,-2.0441,-2.0577,-2.0761,-2.0958,-2.1151,-2.1246,-2.1294,-2.1526,-2.1781,-2.2027,-2.2364,-2.2598,-2.285,-2.2977,-2.3144,-2.3289,-2.3383,-2.3471,-2.3494,-2.3494,-2.3494,-2.3494,-2.3522,-2.3544,0.251,0.251,0.251,0.251,0.251,0.2503,0.2503,0.2501,0.2447,0.2452,0.2492,0.2384,0.2303,0.2252,0.1699,0.1173,0.0809,0.0299,-0.0298,-0.0888,-0.1347,-0.1847,-0.2327,-0.2844,-0.3017,-0.319,-0.3209,-0.3092,-0.3159,-0.3226,-0.3226,-0.3226,-0.3293,-0.3694,-0.4225,-0.4752,-0.5592,-0.629,-0.6854,-0.7222,-0.7496,-0.7876,-0.7843,-0.7581,-0.7426,-0.7354,-0.7165,-0.7133,-0.7133,-0.7295,-0.7563,-0.809,-0.862,-0.9152,-0.9932,-1.0659,-1.1074,-1.1226,-1.1276,-1.1276,-1.1326,-1.1418,-1.1678,-1.2076,-1.2372,-1.2618,-1.2842,-1.317,-1.3695,-1.4035,-1.4326,-1.4697,-1.5017,-1.5062,-1.5062,-1.5334,-1.5591,-1.5901,-1.6163,-1.6539,-1.6921,-1.7352,-1.7895,-1.8293,-1.8528,-1.8784,-1.9161,-1.9493,-1.9782,-2.0065,-2.0185,-2.0426,-2.0595,-2.0827,-2.1023,-2.1151,-2.1246,-2.1294,-2.1601,-2.1899,-2.2113,-2.2337,-2.2624,-2.2825,-2.2902,-2.3052,-2.3289,-2.3407,-2.3494,-2.3494,-2.3494,-2.3494,-2.3494,-2.3494,-2.3522,0.251,0.251,0.251,0.251,0.2504,0.2465,0.2446,0.2441,0.2424,0.2414,0.2382,0.2352,0.2338,0.2283,0.2123,0.1675,0.1532,0.1245,0.0659,0.0073,-0.0292,-0.0865,-0.1421,-0.2029,-0.242,-0.273,-0.2902,-0.3023,-0.3159,-0.3159,-0.3226,-0.3226,-0.3226,-0.336,-0.3493,-0.3689,-0.4623,-0.541,-0.5962,-0.6487,-0.6918,-0.735,-0.7379,-0.739,-0.7362,-0.7284,-0.7144,-0.7139,-0.7133,-0.7187,-0.7509,-0.7877,-0.7984,-0.8679,-0.9577,-1.0462,-1.0871,-1.1065,-1.1217,-1.1276,-1.1276,-1.1276,-1.1427,-1.1678,-1.1977,-1.2274,-1.2559,-1.2977,-1.3399,-1.38,-1.4186,-1.4523,-1.48,-1.488,-1.4971,-1.5244,-1.5457,-1.5736,-1.6032,-1.6423,-1.6795,-1.7186,-1.7733,-1.8029,-1.8214,-1.8411,-1.8721,-1.9124,-1.9457,-1.9747,-2.01,-2.0357,-2.0561,-2.0794,-2.0958,-2.1087,-2.1214,-2.134,-2.1631,-2.1899,-2.2056,-2.2309,-2.2624,-2.2825,-2.2952,-2.3151,-2.3407,-2.3494,-2.3494,-2.3494,-2.3494,-2.3494,-2.3494,-2.3494,-2.3517,0.2744,0.2978,0.2588,0.2497,0.2466,0.2411,0.2375,0.2354,0.2277,0.2265,0.2257,0.2281,0.2277,0.2292,0.2202,0.2046,0.1763,0.1926,0.1568,0.1196,0.0785,0.0211,-0.0416,-0.117,-0.1705,-0.2089,-0.2552,-0.2822,-0.3025,-0.3159,-0.3226,-0.3226,-0.3226,-0.3226,-0.3293,-0.3349,-0.36,-0.4304,-0.4928,-0.5655,-0.6216,-0.67,-0.6984,-0.7253,-0.7266,-0.7159,-0.7112,-0.7139,-0.7133,-0.7133,-0.7402,-0.7563,-0.7771,-0.8521,-0.9159,-0.9991,-1.0395,-1.0753,-1.1023,-1.1226,-1.1276,-1.1276,-1.1276,-1.1427,-1.1578,-1.1819,-1.2264,-1.2696,-1.317,-1.361,-1.3999,-1.4384,-1.4569,-1.4697,-1.4926,-1.5198,-1.5379,-1.5603,-1.5957,-1.6423,-1.6765,-1.7102,-1.7447,-1.7706,-1.7989,-1.8268,-1.8606,-1.9026,-1.9325,-1.9581,-1.994,-2.0289,-2.0494,-2.0695,-2.086,-2.1023,-2.1183,-2.134,-2.1556,-2.1811,-2.1998,-2.2271,-2.2588,-2.2825,-2.3028,-2.3241,-2.3407,-2.3471,-2.3494,-2.3494,-2.3494,-2.3494,-2.3494,-2.3494,-2.3517,0.3129,0.3661,0.2887,0.2458,0.2409,0.2279,0.2228,0.2177,0.2247,0.2267,0.2286,0.2206,0.2194,0.2225,0.2202,0.218,0.2055,0.215,0.2149,0.2092,0.1452,0.0896,0.034,-0.0336,-0.0877,-0.1413,-0.1947,-0.235,-0.2753,-0.3023,-0.3226,-0.3226,-0.3205,-0.3205,-0.3224,-0.3175,-0.3288,-0.3448,-0.4036,-0.4665,-0.5424,-0.5958,-0.6412,-0.6926,-0.6998,-0.7031,-0.7085,-0.7133,-0.7133,-0.7133,-0.7187,-0.7348,-0.7824,-0.8249,-0.883,-0.9361,-0.9865,-1.0285,-1.071,-1.0964,-1.1175,-1.1226,-1.1276,-1.1326,-1.1427,-1.1628,-1.2067,-1.2363,-1.2793,-1.3218,-1.361,-1.4082,-1.4362,-1.4605,-1.488,-1.5062,-1.5244,-1.5558,-1.6001,-1.6423,-1.6808,-1.7102,-1.7365,-1.7625,-1.7922,-1.8189,-1.8503,-1.8889,-1.9213,-1.9435,-1.9797,-2.0185,-2.0426,-2.0628,-2.0827,-2.099,-2.1151,-2.134,-2.1526,-2.1751,-2.1969,-2.2243,-2.2525,-2.2816,-2.3095,-2.3193,-2.3336,-2.3407,-2.3494,-2.3494,-2.3494,-2.3494,-2.3494,-2.3494,-2.3494,0.4101,0.3652,0.2692,0.2367,0.2349,0.222,0.2187,0.217,0.2194,0.2187,0.2191,0.2239,0.2228,0.2173,0.2166,0.2221,0.223,0.2173,0.2166,0.2158,0.1837,0.1498,0.1279,0.0672,0.0,-0.0739,-0.1276,-0.188,-0.2619,-0.3023,-0.3224,-0.3218,-0.3181,-0.3158,-0.3201,-0.3126,-0.307,-0.3001,-0.3211,-0.3752,-0.4399,-0.4957,-0.5411,-0.6095,-0.6426,-0.6696,-0.681,-0.7085,-0.7085,-0.7133,-0.7133,-0.7348,-0.767,-0.7877,-0.8302,-0.8883,-0.9354,-0.9769,-1.0233,-1.071,-1.1023,-1.1124,-1.1167,-1.1267,-1.1377,-1.1628,-1.1828,-1.2067,-1.2363,-1.2793,-1.3266,-1.3742,-1.4165,-1.4501,-1.4834,-1.4971,-1.5074,-1.5558,-1.6001,-1.6423,-1.6808,-1.7073,-1.7295,-1.7584,-1.7842,-1.8123,-1.8361,-1.8711,-1.9153,-1.9435,-1.9726,-2.008,-2.0357,-2.0595,-2.0761,-2.0925,-2.1087,-2.1277,-2.1495,-2.1721,-2.194,-2.2271,-2.2579,-2.2868,-2.3119,-2.3217,-2.3336,-2.3448,-2.3494,-2.3494,-2.3494,-2.3494,-2.3494,-2.3494,-2.3494,0.4763,0.4651,0.3557,0.2863,0.2565,0.2438,0.234,0.2198,0.2168,0.2221,0.2221,0.2221,0.2221,0.2221,0.2221,0.2221,0.2221,0.2221,0.2224,0.2223,0.2154,0.1954,0.1748,0.1412,0.0941,0.0134,-0.0806,-0.1613,-0.2485,-0.3023,-0.3224,-0.3141,-0.3142,-0.3107,-0.3146,-0.3028,-0.2928,-0.2897,-0.2846,-0.3062,-0.3583,-0.4067,-0.4783,-0.5441,-0.5819,-0.6095,-0.648,-0.6756,-0.6869,-0.7025,-0.7133,-0.7187,-0.7348,-0.7456,-0.7723,-0.8249,-0.883,-0.9354,-0.9821,-1.0344,-1.0812,-1.0964,-1.1167,-1.1276,-1.1276,-1.1477,-1.1678,-1.1918,-1.2026,-1.2412,-1.2977,-1.3494,-1.3978,-1.4373,-1.4651,-1.4891,-1.5028,-1.5289,-1.5824,-1.6275,-1.6607,-1.6863,-1.7199,-1.7666,-1.7922,-1.8123,-1.8361,-1.8595,-1.9003,-1.9325,-1.9654,-1.9975,-2.0204,-2.0527,-2.0761,-2.0893,-2.1007,-2.1214,-2.1481,-2.1617,-2.1811,-2.226,-2.2632,-2.285,-2.3077,-2.3241,-2.3336,-2.3471,-2.3494,-2.3494,-2.3494,-2.3494,-2.3494,-2.3494,-2.3494,0.5355,0.5842,0.4602,0.3613,0.2915,0.2717,0.2557,0.229,0.2221,0.2221,0.2221,0.2221,0.2221,0.2221,0.2221,0.2221,0.2221,0.2221,0.2221,0.2221,0.2221,0.2085,0.1951,0.1681,0.1344,0.0672,-0.0269,-0.1141,-0.2014,-0.2484,-0.288,-0.2996,-0.3071,-0.3073,-0.3044,-0.297,-0.2875,-0.2844,-0.2803,-0.2817,-0.3114,-0.3411,-0.4125,-0.467,-0.4999,-0.5378,-0.5823,-0.6263,-0.648,-0.681,-0.7031,-0.7133,-0.7133,-0.7187,-0.7348,-0.7777,-0.8249,-0.8771,-0.9347,-1.0028,-1.0498,-1.0863,-1.1124,-1.1226,-1.1226,-1.1326,-1.1528,-1.1678,-1.1778,-1.2116,-1.2686,-1.316,-1.3647,-1.428,-1.4558,-1.4834,-1.4971,-1.5153,-1.5647,-1.6188,-1.6448,-1.6693,-1.7157,-1.7666,-1.7949,-1.8149,-1.8386,-1.862,-1.8874,-1.9124,-1.942,-1.9747,-2.003,-2.0342,-2.0728,-2.086,-2.0942,-2.1183,-2.1388,-2.1495,-2.1678,-2.2101,-2.2463,-2.2756,-2.296,-2.3151,-2.3336,-2.3494,-2.3494,-2.3494,-2.3494,-2.3494,-2.3494,-2.3494,-2.3494,0.638,0.5501,0.4441,0.3717,0.3183,0.2825,0.2686,0.2554,0.2354,0.2221,0.2221,0.2221,0.2221,0.2221,0.2221,0.2221,0.2221,0.2221,0.2221,0.2221,0.2221,0.2221,0.2153,0.1951,0.1748,0.1008,0.0269,-0.0268,-0.1133,-0.1801,-0.2117,-0.2072,-0.2833,-0.2911,-0.2952,-0.287,-0.2781,-0.2772,-0.2758,-0.2713,-0.2765,-0.3079,-0.3463,-0.3901,-0.4229,-0.4666,-0.5214,-0.576,-0.6095,-0.6426,-0.6869,-0.7031,-0.7133,-0.7133,-0.7187,-0.7348,-0.7824,-0.8143,-0.8771,-0.9458,-0.9984,-1.019,-1.0454,-1.093,-1.0922,-1.1074,-1.1226,-1.1377,-1.1578,-1.1877,-1.2353,-1.2677,-1.316,-1.4071,-1.4593,-1.4834,-1.5017,-1.5289,-1.5691,-1.6088,-1.6436,-1.6778,-1.7186,-1.757,-1.7868,-1.8069,-1.8321,-1.8542,-1.876,-1.8974,-1.9184,-1.9515,-1.9839,-2.0258,-2.0679,-2.0794,-2.0925,-2.1119,-2.1325,-2.1433,-2.1601,-2.194,-2.2265,-2.2616,-2.2884,-2.3077,-2.3265,-2.3494,-2.3494,-2.3494,-2.3494,-2.3494,-2.3494,-2.3517,-2.3517]}]]